[[{"header":{"parameterUnit":"m.s-1","parameterCategory":1,"la1":30.6,"la2":29.2853,"lo1":-89.7004,"lo2":-87.6739,"dy":0.0162,"dx":0.0183,"nx":112,"ny":82,"refTime":"2023-09-18T12:00:00:Z","depth":0,"parameterNumber":2,"parameterNumberName":"U-component_of_WINDS"},"data":[0.0,0.0,0.0,0.0,0.0,0.0,0.0,0.0,0.0,0.0,0.0,0.0,0.0,0.0,0.0,0.0,0.0,0.0,0.0,0.0,0.0,0.0,0.0,0.0,0.0,0.0,0.0,0.0,0.0,0.0,0.0,0.0,0.0,0.0,0.0,0.0,0.0,0.0,0.0,0.0,0.0,0.0,0.0,0.0,0.0,0.0,0.0,0.0,0.0,0.0,0.0,0.0,0.0,0.0,0.0,0.0,0.0,0.0,0.0,0.0,0.0,0.0,0.0,0.0,0.0,0.0,0.0,0.0,0.0,0.0,0.0,0.0,0.0,0.0,0.0,0.0,0.0,0.0,0.0,0.0,0.0,0.0,0.0,0.0,0.0,0.0,0.0,0.0,0.0,0.0,2.349,2.5554,2.8953,3.048,2.9146,2.867,2.6944,2.3379,0.0,0.0,0.0,0.0,0.0,0.0,0.0,0.0,0.0,0.0,0.0,0.0,0.0,0.0,0.0,0.0,0.0,0.0,0.0,0.0,0.0,0.0,0.0,0.0,0.0,0.0,0.0,0.0,0.0,0.0,0.0,0.0,0.0,0.0,0.0,0.0,0.0,0.0,0.0,0.0,0.0,0.0,0.0,0.0,0.0,0.0,0.0,0.0,0.0,0.0,0.0,0.0,0.0,0.0,0.0,0.0,0.0,0.0,0.0,0.0,0.0,0.0,0.0,0.0,0.0,0.0,0.0,0.0,0.0,0.0,0.0,0.0,0.0,0.0,0.0,0.0,0.0,0.0,0.0,0.0,0.0,0.0,0.0,0.0,0.0,0.0,0.0,0.0,0.0,0.0,0.0,0.0,0.0,0.0,0.0,0.0,0.0,0.0,0.0,0.0,0.0,0.0,0.0,0.0,2.3917,2.7108,2.9138,2.9922,2.9059,2.7232,2.5559,2.4329,0.0,0.0,0.0,0.0,0.0,0.0,0.0,0.0,0.0,0.0,0.0,0.0,0.0,0.0,0.0,0.0,0.0,0.0,0.0,0.0,0.0,0.0,0.0,0.0,0.0,0.0,0.0,0.0,0.0,0.0,0.0,0.0,0.0,0.0,0.0,0.0,0.0,0.0,0.0,0.0,0.0,0.0,0.0,0.0,0.0,0.0,0.0,0.0,0.0,0.0,0.0,0.0,0.0,0.0,0.0,0.0,0.0,0.0,0.0,0.0,0.0,0.0,0.0,0.0,0.0,0.0,0.0,0.0,0.0,0.0,0.0,0.0,0.0,0.0,0.0,0.0,0.0,0.0,0.0,0.0,0.0,0.0,0.0,0.0,0.0,0.0,0.0,0.0,0.0,0.0,0.0,0.0,0.0,0.0,0.0,0.0,0.0,0.0,0.0,0.0,0.0,0.0,0.0,2.3983,2.5379,2.7568,2.9194,2.9465,2.7875,2.6618,2.532,2.3998,2.3357,0.0,0.0,0.0,0.0,0.0,0.0,0.0,0.0,0.0,0.0,0.0,0.0,0.0,0.0,0.0,0.0,0.0,0.0,0.0,0.0,0.0,0.0,0.0,0.0,0.0,0.0,0.0,0.0,0.0,0.0,0.0,0.0,0.0,0.0,0.0,0.0,0.0,0.0,0.0,0.0,0.0,0.0,0.0,0.0,0.0,0.0,0.0,0.0,0.0,0.0,0.0,0.0,0.0,0.0,0.0,0.0,0.0,0.0,0.0,0.0,0.0,0.0,0.0,0.0,0.0,0.0,0.0,0.0,0.0,0.0,0.0,0.0,0.0,0.0,0.0,0.0,0.0,0.0,0.0,0.0,0.0,0.0,0.0,0.0,0.0,0.0,0.0,0.0,0.0,0.0,0.0,0.0,0.0,0.0,0.0,0.0,0.0,0.0,0.0,0.0,0.0,0.0,2.533,2.6449,2.7688,2.8721,2.8621,2.6961,2.5668,2.4533,2.3573,2.2596,0.0,0.0,0.0,0.0,0.0,0.0,0.0,0.0,0.0,0.0,0.0,0.0,0.0,0.0,0.0,0.0,0.0,0.0,0.0,0.0,0.0,0.0,0.0,0.0,0.0,0.0,0.0,0.0,0.0,0.0,0.0,0.0,0.0,0.0,0.0,0.0,0.0,0.0,0.0,0.0,0.0,0.0,0.0,0.0,0.0,0.0,0.0,0.0,0.0,0.0,0.0,0.0,0.0,0.0,0.0,0.0,0.0,0.0,0.0,0.0,0.0,0.0,0.0,0.0,0.0,0.0,0.0,0.0,0.0,0.0,0.0,0.0,0.0,0.0,0.0,0.0,0.0,0.0,0.0,0.0,0.0,0.0,0.0,0.0,0.0,0.0,0.0,0.0,0.0,0.0,0.0,0.0,0.0,0.0,0.0,0.0,0.0,0.0,0.0,0.0,0.0,0.0,2.4928,2.6201,2.762,2.7283,2.6995,2.7164,2.371,2.2214,2.3757,2.1558,0.0,0.0,0.0,0.0,0.0,0.0,0.0,0.0,0.0,0.0,0.0,0.0,0.0,0.0,0.0,0.0,0.0,0.0,0.0,0.0,0.0,0.0,0.0,0.0,0.0,0.0,0.0,0.0,0.0,0.0,0.0,0.0,0.0,0.0,0.0,0.0,0.0,0.0,0.0,0.0,0.0,0.0,0.0,0.0,0.0,0.0,0.0,0.0,0.0,0.0,0.0,0.0,0.0,0.0,0.0,0.0,0.0,0.0,0.0,0.0,0.0,0.0,0.0,0.0,0.0,0.0,0.0,0.0,0.0,0.0,0.0,0.0,0.0,0.0,0.0,0.0,0.0,0.0,0.0,0.0,0.0,0.0,0.0,0.0,0.0,0.0,0.0,0.0,0.0,0.0,0.0,0.0,0.0,0.0,0.0,0.0,0.0,0.0,0.0,0.0,0.0,0.0,2.4666,2.5382,0.0,2.6473,2.6061,2.545,2.3741,2.2928,2.3418,0.0,0.0,0.0,0.0,0.0,0.0,0.0,0.0,0.0,0.0,0.0,0.0,0.0,0.0,0.0,0.0,0.0,0.0,0.0,0.0,0.0,0.0,0.0,0.0,0.0,0.0,0.0,0.0,0.0,0.0,0.0,0.0,0.0,0.0,0.0,0.0,0.0,0.0,0.0,0.0,0.0,0.0,0.0,0.0,0.0,0.0,0.0,0.0,0.0,0.0,0.0,0.0,0.0,0.0,0.0,0.0,0.0,0.0,0.0,0.0,0.0,0.0,0.0,0.0,0.0,0.0,0.0,0.0,0.0,0.0,0.0,0.0,0.0,0.0,0.0,0.0,0.0,0.0,0.0,0.0,0.0,0.0,0.0,0.0,0.0,0.0,0.0,0.0,0.0,0.0,0.0,0.0,0.0,0.0,0.0,0.0,0.0,0.0,0.0,0.0,0.0,0.0,2.4071,2.4137,2.4499,0.0,2.5476,2.5101,2.4363,2.3115,2.2672,2.3315,0.0,0.0,0.0,0.0,0.0,0.0,0.0,0.0,0.0,0.0,0.0,0.0,0.0,0.0,0.0,0.0,0.0,0.0,0.0,0.0,0.0,0.0,0.0,0.0,0.0,0.0,0.0,0.0,0.0,0.0,0.0,0.0,0.0,0.0,0.0,0.0,0.0,0.0,0.0,0.0,0.0,0.0,0.0,0.0,0.0,0.0,0.0,0.0,0.0,0.0,0.0,0.0,0.0,0.0,0.0,0.0,0.0,0.0,0.0,0.0,0.0,0.0,0.0,0.0,0.0,0.0,0.0,0.0,0.0,0.0,0.0,0.0,0.0,0.0,0.0,0.0,0.0,0.0,0.0,0.0,0.0,0.0,0.0,0.0,0.0,0.0,0.0,0.0,0.0,0.0,0.0,0.0,0.0,0.0,0.0,0.0,0.0,0.0,0.0,0.0,0.0,0.0,2.3403,2.3393,2.3663,2.4421,2.4133,2.3998,2.4282,2.1564,2.0932,0.0,0.0,0.0,0.0,0.0,0.0,0.0,0.0,0.0,0.0,0.0,0.0,0.0,0.0,0.0,0.0,0.0,0.0,0.0,0.0,0.0,0.0,0.0,0.0,0.0,0.0,0.0,0.0,0.0,0.0,0.0,0.0,0.0,0.0,0.0,0.0,0.0,0.0,0.0,0.0,0.0,0.0,0.0,0.0,0.0,0.0,0.0,0.0,0.0,0.0,0.0,0.0,0.0,0.0,0.0,0.0,0.0,0.0,0.0,0.0,0.0,0.0,0.0,0.0,0.0,0.0,0.0,0.0,0.0,0.0,0.0,0.0,0.0,0.0,0.0,0.0,0.0,0.0,0.0,0.0,0.0,0.0,0.0,0.0,0.0,0.0,0.0,0.0,0.0,0.0,0.0,0.0,0.0,0.0,0.0,0.0,0.0,0.0,0.0,0.0,0.0,0.0,0.0,2.3786,2.3261,2.3209,2.4001,2.3659,2.3536,2.384,2.2236,2.2081,2.4137,0.0,0.0,0.0,0.0,0.0,0.0,0.0,0.0,0.0,0.0,0.0,0.0,0.0,0.0,0.0,0.0,0.0,0.0,0.0,0.0,0.0,0.0,0.0,0.0,0.0,0.0,0.0,0.0,0.0,0.0,0.0,0.0,0.0,0.0,0.0,0.0,0.0,0.0,0.0,0.0,0.0,0.0,0.0,0.0,0.0,0.0,0.0,0.0,0.0,0.0,0.0,0.0,0.0,0.0,0.0,0.0,0.0,0.0,0.0,0.0,0.0,0.0,0.0,0.0,0.0,0.0,0.0,0.0,0.0,0.0,0.0,0.0,0.0,0.0,0.0,0.0,0.0,0.0,0.0,0.0,0.0,0.0,0.0,0.0,0.0,0.0,0.0,0.0,0.0,0.0,0.0,0.0,0.0,0.0,0.0,0.0,0.0,0.0,0.0,0.0,0.0,0.0,2.3493,2.3007,2.2833,2.3223,2.3237,2.3277,2.3482,2.2462,2.2422,2.3884,0.0,0.0,0.0,0.0,0.0,0.0,0.0,0.0,0.0,0.0,0.0,0.0,0.0,0.0,0.0,0.0,0.0,0.0,0.0,0.0,0.0,0.0,0.0,0.0,0.0,0.0,0.0,0.0,0.0,0.0,0.0,0.0,0.0,0.0,0.0,0.0,0.0,0.0,0.0,0.0,0.0,0.0,0.0,0.0,0.0,0.0,0.0,0.0,0.0,0.0,0.0,0.0,0.0,0.0,0.0,0.0,0.0,0.0,0.0,0.0,0.0,0.0,0.0,0.0,0.0,0.0,0.0,0.0,0.0,0.0,0.0,0.0,0.0,0.0,0.0,0.0,0.0,0.0,0.0,0.0,0.0,0.0,0.0,0.0,0.0,0.0,0.0,0.0,0.0,0.0,0.0,0.0,0.0,0.0,0.0,0.0,0.0,0.0,0.0,0.0,0.0,0.0,2.2968,2.2797,2.2652,2.2377,2.2857,2.3189,2.3189,2.2401,2.2276,2.3145,0.0,0.0,0.0,0.0,0.0,0.0,0.0,0.0,0.0,0.0,0.0,0.0,0.0,0.0,0.0,0.0,0.0,0.0,0.0,0.0,0.0,0.0,0.0,0.0,0.0,0.0,0.0,0.0,0.0,0.0,0.0,0.0,0.0,0.0,0.0,0.0,0.0,0.0,0.0,0.0,0.0,0.0,0.0,0.0,0.0,0.0,0.0,0.0,0.0,0.0,0.0,0.0,0.0,0.0,0.0,0.0,0.0,0.0,0.0,0.0,-2.4505,0.0,0.0,0.0,0.0,0.0,0.0,0.0,0.0,0.0,0.0,0.0,0.0,0.0,0.0,0.0,0.0,0.0,0.0,0.0,0.0,0.0,0.0,0.0,0.0,0.0,0.0,0.0,0.0,0.0,0.0,0.0,0.0,0.0,0.0,0.0,0.0,0.0,0.0,0.0,0.0,0.0,2.3812,2.3343,2.2972,2.2634,2.2972,2.3189,2.3189,2.2926,2.2901,2.3249,2.2377,0.0,0.0,0.0,0.0,0.0,0.0,0.0,0.0,0.0,0.0,0.0,0.0,0.0,0.0,0.0,0.0,0.0,0.0,0.0,0.0,0.0,0.0,0.0,0.0,0.0,0.0,0.0,0.0,0.0,0.0,0.0,0.0,0.0,0.0,0.0,0.0,0.0,0.0,0.0,0.0,0.0,0.0,0.0,0.0,0.0,0.0,0.0,0.0,0.0,0.0,0.0,0.0,0.0,0.0,0.0,0.0,0.0,0.0,0.0,0.0,-2.5338,0.0,0.0,0.0,0.0,0.0,0.0,0.0,0.0,0.0,0.0,0.0,0.0,0.0,0.0,0.0,0.0,0.0,0.0,0.0,0.0,0.0,0.0,0.0,0.0,0.0,0.0,0.0,0.0,0.0,0.0,0.0,0.0,0.0,0.0,0.0,0.0,0.0,0.0,0.0,0.0,2.4063,2.3684,2.3323,2.2972,2.3236,2.3437,2.3437,2.317,2.2902,2.2694,2.2184,0.0,0.0,0.0,0.0,0.0,0.0,0.0,0.0,0.0,0.0,0.0,0.0,0.0,0.0,0.0,0.0,0.0,0.0,0.0,0.0,0.0,0.0,0.0,0.0,0.0,0.0,0.0,0.0,0.0,0.0,0.0,0.0,0.0,0.0,0.0,0.0,0.0,0.0,0.0,0.0,0.0,0.0,0.0,0.0,0.0,0.0,0.0,0.0,0.0,0.0,0.0,0.0,0.0,-2.593,-2.6719,-2.812,-2.8262,-2.8884,-2.9752,-2.8334,-2.7059,-2.5982,-2.5894,0.0,0.0,0.0,0.0,0.0,0.0,0.0,0.0,0.0,0.0,0.0,0.0,0.0,0.0,0.0,0.0,0.0,0.0,0.0,0.0,0.0,0.0,0.0,0.0,-1.0962,-0.7217,-0.086,0.0,0.0,0.0,0.0,0.0,0.0,0.0,0.0,0.0,0.0,0.0,2.3988,2.3794,2.3588,2.3323,2.3544,2.3692,2.3692,2.3394,2.2866,2.202,2.1971,2.1596,0.0,0.0,0.0,0.0,0.0,0.0,0.0,0.0,0.0,0.0,0.0,0.0,0.0,0.0,0.0,0.0,0.0,0.0,0.0,0.0,0.0,0.0,0.0,0.0,0.0,0.0,0.0,0.0,0.0,0.0,0.0,0.0,-1.897,-1.9758,0.0,0.0,0.0,0.0,0.0,0.0,0.0,0.0,0.0,0.0,0.0,0.0,0.0,-2.5575,-2.6116,-2.6962,-2.7097,-2.6556,-2.7215,-2.7992,-2.8965,-2.9656,-3.0532,-3.1523,-3.1961,0.0,-2.7059,-2.6654,0.0,0.0,0.0,0.0,0.0,0.0,0.0,0.0,0.0,0.0,0.0,0.0,0.0,0.0,0.0,0.0,0.0,0.0,0.0,0.0,0.0,0.0,-1.3303,-1.117,-0.9533,-0.7869,0.0,-0.1298,0.3197,0.7031,1.0049,0.0,0.0,0.0,0.0,0.0,0.0,0.0,2.3672,2.3658,2.3692,2.3649,2.3671,2.3692,2.3692,2.3905,2.3419,2.1929,2.1818,2.1432,2.0588,2.102,0.0,0.0,0.0,0.0,0.0,0.0,0.0,0.0,0.0,0.0,0.0,0.0,0.0,0.0,0.0,0.0,0.0,0.0,0.0,0.0,0.0,0.0,0.0,0.0,0.0,0.0,0.0,0.0,0.0,-2.1488,-2.1678,-2.0761,-2.187,-2.2726,0.0,0.0,0.0,0.0,0.0,0.0,0.0,0.0,0.0,-2.5809,-2.6922,-2.767,-2.7985,-2.8749,-2.9376,-2.9837,-3.0159,-3.0797,-3.1632,-3.1986,-3.2617,-3.3438,-3.3598,-3.2447,-3.0324,-2.8964,-2.7855,-2.6944,0.0,0.0,0.0,0.0,-2.5854,-2.6189,-2.6547,-2.5993,-2.5209,-2.5668,0.0,0.0,0.0,0.0,0.0,0.0,0.0,0.0,0.0,0.0,-1.3205,-1.1004,-0.9501,-0.7803,-0.5091,-0.1909,0.1016,0.0,0.6866,1.1228,1.5389,0.0,0.0,0.0,0.0,2.4156,2.4233,2.4186,2.4022,2.3735,2.3692,2.3692,2.3692,2.3837,2.3504,2.2556,2.2042,2.14,2.0539,2.0769,2.1195,0.0,0.0,0.0,0.0,0.0,0.0,0.0,0.0,0.0,0.0,0.0,0.0,0.0,0.0,0.0,0.0,0.0,0.0,0.0,0.0,0.0,0.0,0.0,0.0,0.0,0.0,0.0,0.0,-2.3264,-2.3746,-2.1603,-2.3295,-2.4464,0.0,0.0,0.0,0.0,0.0,0.0,-2.5658,-2.7402,-2.8333,-2.8219,-2.9116,-2.9856,-3.0402,-3.0629,-3.1364,-3.256,-3.256,-3.2887,-3.3459,-3.3758,-3.4081,-3.4445,-3.4562,-3.4187,-3.3297,-3.1257,-2.9915,-2.9006,-2.7746,-2.7726,-2.8345,-2.7548,-2.7399,-2.7657,-2.8087,-2.7196,-2.5949,-2.6318,-2.556,-2.4461,-2.421,0.0,0.0,0.0,0.0,-1.8841,-1.7343,-1.508,-1.2705,-1.0681,-0.8854,-0.6592,-0.2898,-0.0539,0.0902,0.0,0.5296,0.9986,1.3317,0.0,0.0,0.0,0.0,2.4051,2.4445,2.45,2.4284,2.3756,2.3774,2.3795,2.3714,2.3774,2.359,2.3033,2.2244,2.14,2.0539,2.0496,2.0522,2.0578,0.0,0.0,0.0,0.0,0.0,0.0,0.0,0.0,0.0,0.0,0.0,0.0,0.0,0.0,0.0,0.0,0.0,0.0,0.0,0.0,0.0,0.0,0.0,0.0,0.0,0.0,0.0,0.0,0.0,-2.1668,-2.455,0.0,0.0,0.0,0.0,-2.7039,-2.7823,-2.8456,-2.8757,-2.955,-3.0632,-3.1962,-3.149,-3.2144,-3.4209,-3.2923,-3.2652,-3.3339,-3.3339,-3.3236,-3.3058,-3.4198,-3.4343,-3.3747,-3.5188,-3.5514,-3.4838,-3.288,-3.1263,-3.0013,-2.9876,-2.9864,-2.9883,-2.9832,-2.9315,-2.8606,-2.859,-2.797,-2.7069,-2.6283,-2.5349,-2.4442,-2.4118,-2.3645,0.0,0.0,-2.0073,-1.8205,-1.6734,-1.4065,-1.128,-0.9277,-0.6675,-0.3547,0.0328,0.2189,0.3091,0.0,0.5788,0.9182,1.235,0.0,1.8223,2.0925,2.3263,2.4489,2.3751,2.414,2.4284,2.3756,2.3996,2.4054,2.3714,2.3996,2.384,2.3033,2.2244,2.14,2.0539,1.9967,2.0006,2.0779,2.077,0.0,0.0,0.0,0.0,0.0,0.0,0.0,0.0,0.0,0.0,0.0,0.0,0.0,0.0,0.0,0.0,0.0,0.0,0.0,0.0,0.0,0.0,0.0,0.0,0.0,0.0,0.0,0.0,-2.5986,-2.8309,0.0,-2.9144,-2.9161,-2.9315,-2.9594,-3.0282,-3.0733,-3.085,-3.2168,-3.2984,-3.3079,-3.33,-3.3779,-3.4542,-3.406,-3.3898,-3.4117,-3.4117,-3.3731,-3.302,-3.3705,-3.388,-3.3658,-3.4682,-3.5116,-3.5066,-3.4538,-3.3709,-3.2679,-3.1581,-3.1495,-3.192,-3.136,-3.1179,-3.114,-3.0556,-2.9349,-2.7872,-2.6593,-2.5523,-2.4779,-2.5169,-2.4393,-2.3165,-2.2137,-2.0239,-1.8058,-1.6142,-1.3379,-1.0672,-0.9079,-0.6016,-0.2353,0.1533,0.4232,0.6026,0.6608,0.8128,1.0271,1.3193,1.5634,1.8293,2.1661,2.305,2.3886,2.4371,2.4591,2.4439,2.3777,2.361,2.3606,2.3692,2.361,2.3627,2.3767,2.252,2.1657,2.1345,2.0102,1.9479,1.9648,1.9372,1.9939,0.0,0.0,0.0,0.0,0.0,0.0,0.0,0.0,0.0,0.0,0.0,0.0,0.0,0.0,0.0,0.0,0.0,0.0,0.0,0.0,0.0,0.0,0.0,0.0,0.0,0.0,-2.8615,-2.8652,-3.1066,-3.2391,-3.1488,-3.1783,-3.2148,-3.243,-3.3108,-3.3476,-3.3425,-3.4518,-3.4827,-3.4243,-3.444,-3.4688,-3.4941,-3.4457,-3.4326,-3.4489,-3.4252,-3.3624,-3.2792,-3.319,-3.3257,-3.3033,-3.3938,-3.4433,-3.464,-3.5152,-3.5079,-3.4536,-3.3505,-3.3471,-3.3907,-3.3375,-3.3203,-3.3072,-3.1872,-3.0272,-2.8572,-2.7574,-2.6568,-2.5842,-2.6136,-2.5059,-2.3454,-2.2272,-2.0004,-1.7448,-1.5222,-1.2813,-1.034,-0.7823,-0.453,-0.0928,0.2627,0.5846,0.841,0.9482,1.0336,1.1584,1.3904,1.6417,1.9119,2.1961,2.3128,2.3959,2.4763,2.4818,2.4522,2.378,2.35,2.3459,2.3692,2.35,2.3628,2.417,2.2685,2.1931,2.2189,2.0509,1.9626,1.9759,1.869,1.9003,2.0748,0.0,0.0,0.0,0.0,0.0,0.0,0.0,0.0,0.0,0.0,0.0,0.0,0.0,0.0,0.0,0.0,0.0,0.0,0.0,0.0,0.0,0.0,0.0,-2.6415,-2.943,-3.0882,-2.9326,-3.2664,-3.4174,-3.1806,-3.3715,-3.5232,-3.558,-3.6309,-3.6667,-3.6464,-3.6416,-3.6182,-3.5667,-3.4988,-3.4941,-3.5577,-3.4226,-3.386,-3.4472,-3.3728,-3.2983,-3.2313,-3.2775,-3.2553,-3.188,-3.3063,-3.3587,-3.3666,-3.4679,-3.5149,-3.5311,-3.5589,-3.5693,-3.5722,-3.5835,-3.5279,-3.4197,-3.2396,-3.0651,-2.9193,-2.9128,-2.848,-2.7577,-2.6921,-2.55,-2.3776,-2.2227,-1.9406,-1.6332,-1.3992,-1.2337,-1.0096,-0.5313,-0.1999,0.092,0.3872,0.7222,1.0062,1.1437,1.2253,1.3073,1.4383,1.7712,2.0573,2.1644,2.3507,0.0,2.4806,2.4809,2.4522,2.3816,2.375,2.3728,2.375,2.375,2.3873,2.417,2.2703,2.2189,2.2978,2.1152,2.0497,2.1252,1.8918,1.8633,2.0496,0.0,0.0,0.0,0.0,0.0,0.0,0.0,0.0,0.0,0.0,0.0,0.0,0.0,0.0,0.0,0.0,0.0,0.0,0.0,0.0,0.0,0.0,-2.8416,-2.8356,-3.0613,-3.2313,-3.2452,-3.5027,-3.6541,-3.5881,-3.6413,-3.7099,-3.7783,-3.7645,-3.7574,-3.7488,-3.6786,-3.6333,-3.6182,-3.5616,-3.5407,-3.5622,-3.4684,-3.4297,-3.4472,-3.3203,-3.2476,-3.2297,-3.219,-3.2033,-3.1844,-3.2706,-3.3285,-3.3647,-3.4323,-3.4835,-3.5251,-3.5514,-3.5655,-3.5705,-3.5694,-3.4697,-3.3102,-3.1418,-3.0139,-2.9218,-2.9283,-2.8671,-2.7769,-2.7068,-2.5698,-2.399,-2.2123,-1.8627,-1.5096,-1.3631,-0.9799,-0.5584,-0.2832,0.0163,0.333,0.6758,0.9047,1.0789,1.2201,1.4349,1.6021,1.638,1.8738,2.0993,2.2194,2.3553,0.0,2.4775,2.4809,2.4829,2.4902,2.4708,2.4664,2.4894,2.4708,2.4472,2.4207,2.3235,2.2776,2.2997,2.1696,2.0761,2.0304,2.0245,2.0194,0.0,0.0,0.0,0.0,0.0,0.0,0.0,0.0,0.0,0.0,0.0,0.0,0.0,0.0,0.0,0.0,0.0,0.0,0.0,0.0,0.0,0.0,-2.9582,-3.0779,-3.098,-3.2522,-3.3917,-3.4743,-3.6413,-3.7507,-3.7507,-3.779,-3.8193,-3.867,-3.8415,-3.815,-3.7893,-3.7173,-3.6504,-3.5948,-3.5744,-3.547,-3.5148,-3.4404,-3.4184,-3.4472,-3.2679,-3.2154,-3.2713,-3.1927,-3.1699,-3.2049,-3.2316,-3.2711,-3.3187,-3.3802,-3.4452,0.0,0.0,0.0,0.0,0.0,-3.3943,-3.2306,-3.1405,-3.0513,-2.9795,-2.9829,-2.945,-2.8792,-2.7881,-2.6031,-2.3762,-2.1424,-1.7597,-1.3878,-1.222,-0.8078,-0.3528,-0.0328,0.3059,0.6192,0.858,1.058,1.232,1.3621,1.5911,0.0,1.8127,1.9885,2.1513,2.2422,2.3676,2.4576,2.4768,2.4786,2.4826,2.4891,2.4587,2.4544,2.4867,2.4587,0.0,0.0,0.0,2.2867,2.2578,2.2128,0.0,0.0,0.0,2.082,2.0659,2.0983,0.0,0.0,2.1442,2.1303,0.0,0.0,0.0,0.0,0.0,0.0,0.0,0.0,0.0,0.0,0.0,0.0,0.0,0.0,0.0,0.0,-3.1638,-3.2551,-3.4105,-3.4934,-3.5561,-3.6083,-3.6838,-3.7298,-3.7379,-3.801,-3.8469,-3.856,-3.8652,-3.8496,-3.8032,0.0,0.0,0.0,0.0,-3.5284,-3.4694,-3.3965,-3.4007,-3.4789,-3.2627,-3.2264,-3.3422,-3.2072,-3.1693,-3.2161,-3.1943,-3.2109,-3.255,-3.3317,-3.4097,-3.4887,-3.5403,-3.5593,-3.5466,-3.4499,-3.32,-3.1911,-3.178,0.0,0.0,-3.0529,-3.041,-3.0055,-2.878,-2.6247,-2.3193,-2.0377,-1.6548,-1.274,-1.023,-0.6617,-0.2551,0.1915,0.5878,0.891,0.9577,1.1816,1.4082,1.5266,1.6907,1.843,1.9426,2.0877,2.2063,2.2523,2.3923,2.4898,2.4814,2.4877,2.477,2.4376,0.0,0.0,2.4299,2.4044,2.3987,2.4189,2.3491,2.2783,2.2112,2.2499,2.2334,2.1612,2.094,2.094,2.1582,2.0924,2.1204,2.231,2.2164,2.2209,0.0,0.0,0.0,0.0,0.0,0.0,0.0,0.0,0.0,0.0,0.0,0.0,0.0,0.0,0.0,-3.2409,-3.4351,-3.6087,-3.7343,-3.7629,-3.7119,-3.5441,-3.5631,-3.6062,-3.6479,-3.667,-3.7019,-3.7661,-3.8322,-3.8658,-3.8546,-3.7667,-3.7082,-3.6847,-3.6053,-3.5742,-3.6042,-3.5283,-3.5509,-3.6658,0.0,0.0,-3.4012,-3.3135,-3.2252,-3.1427,-3.197,-3.2303,-3.2586,-3.353,-3.4358,-3.5078,-3.5449,-3.5568,-3.5338,-3.3746,-3.2979,-3.2501,-3.1206,-3.0703,-3.06,-3.0587,-3.0455,-2.9901,-2.7793,-2.5279,0.0,-1.9654,-1.5798,-1.1826,-0.8593,-0.3749,0.0819,0.2741,0.6007,0.9044,1.0237,1.2175,1.4196,1.5898,1.7233,1.843,1.9426,2.0877,2.2159,2.2936,2.4614,2.5529,2.4873,2.5365,2.5611,2.5203,2.5104,2.5104,2.5144,2.5104,2.4829,2.4245,2.381,2.3267,2.2596,2.2634,2.2334,2.1612,2.145,2.145,2.1582,2.145,2.1691,2.231,2.2248,2.2293,0.0,0.0,0.0,0.0,0.0,0.0,0.0,0.0,0.0,0.0,0.0,-2.9945,0.0,0.0,-3.4154,-3.5522,-3.7479,-3.871,-3.8429,-3.8904,-3.859,-3.6858,-3.6677,-3.6805,-3.7063,-3.7356,-3.7661,-3.8065,-3.8469,-3.8707,-3.8707,-3.7964,-3.7542,-3.7542,-3.6825,-3.6522,-3.6803,-3.6054,-3.6169,-3.7155,-3.5244,-3.4571,-3.4999,-3.3511,-3.275,-3.2672,-3.2655,-3.2798,-3.3117,-3.3818,-3.4099,-3.4073,-3.4372,-3.4381,-3.4083,-3.3218,-3.2372,-3.1549,-3.0762,-3.0533,-3.06,-3.0554,-3.0239,-2.9474,-2.7408,-2.4636,-2.1391,-1.779,-1.4401,-1.0653,-0.5636,-0.109,0.269,0.4845,0.7317,0.9673,1.1335,1.3226,1.5126,1.6902,1.8129,1.917,2.0147,2.1384,2.2461,2.3099,2.445,2.5252,2.4853,2.5154,2.5255,2.4835,2.4795,2.4795,2.4795,2.4795,2.4572,2.3994,2.3649,2.3212,2.2721,2.2351,2.1977,2.1628,2.1165,2.107,2.1306,2.107,2.1197,2.1661,2.1661,2.1751,0.0,0.0,0.0,0.0,0.0,0.0,0.0,0.0,-2.8992,-3.0262,-3.1362,-3.2764,-3.4888,-3.6042,-3.7236,-3.875,-4.0094,-4.0514,-3.925,-3.9718,-3.97,-3.8395,-3.7948,-3.7797,-3.788,-3.8235,-3.8469,-3.8469,-3.8615,-3.8707,-3.8707,-3.8183,-3.7966,-3.8128,-3.7522,-3.7319,-3.7591,-3.6772,-3.6755,-3.747,-3.5577,-3.508,-3.5794,-3.3946,-3.3441,-3.4001,-3.3487,-3.3494,-3.3826,-3.4045,-3.3687,-3.3011,-3.3233,-3.3007,-3.253,-3.2557,-3.1725,-3.0578,-3.0491,-3.0529,-3.0587,-3.0507,-2.9987,-2.9071,-2.7209,-2.408,-2.0255,-1.601,-1.2876,-0.9334,-0.2988,0.1149,0.4242,0.6657,0.8692,1.0614,1.2436,1.4337,1.623,1.8051,1.9059,1.9924,2.0943,2.1945,2.2761,2.3241,2.4297,2.4976,2.4814,2.4935,2.4807,2.4265,2.419,2.419,2.419,2.419,2.4016,2.3628,2.3346,2.3021,2.2634,2.1977,2.1552,2.1491,2.0699,2.0483,2.0862,2.0483,2.055,2.0991,2.0991,2.1181,-2.466,-2.5225,-2.5494,-2.7135,-2.7638,-2.8269,0.0,0.0,-3.2459,-3.2974,-3.4488,-3.5968,-3.6783,-3.8215,-3.9681,-4.0881,-4.1187,-4.1304,-4.1409,-4.0864,-3.9845,-3.822,-3.7528,-3.7366,-3.7839,-3.7728,-3.7624,-3.7624,-3.8303,-3.8707,-3.8707,-3.8183,-3.8218,-3.8939,-3.7826,-3.7717,-3.8887,-3.8077,-3.7975,-3.8515,-3.8272,-3.7262,-3.5624,-3.5371,-3.4712,-3.3757,-3.4106,-3.438,-3.4535,-3.4029,-3.3506,-3.2989,-3.3034,-3.2292,-3.1233,-3.1409,-3.1355,-3.1121,-3.0585,-3.0481,-3.0575,-3.0442,-2.9947,-2.9001,-2.6819,-2.3538,-1.9627,-1.5437,-1.1713,-0.7769,-0.2499,0.2514,0.6268,0.6593,0.9165,1.1853,1.3124,1.4944,1.6931,1.903,1.9498,2.0028,2.1321,2.2146,2.2869,2.3631,2.4952,2.5607,2.4892,2.5423,2.5442,2.432,2.419,2.419,2.419,2.419,2.3917,2.33,2.3212,2.294,2.2377,2.1853,2.143,2.1055,2.055,2.0314,2.0382,2.0314,2.055,2.0991,2.0991,2.1023,-2.4924,-2.645,0.0,0.0,-2.9698,-3.1186,-3.2659,-3.3722,-3.4735,-3.5886,-3.7162,-3.8271,-3.8988,-4.01,-4.1074,0.0,-4.2428,-4.2752,-4.1915,-4.1489,-4.045,-3.8257,-3.7471,-3.7009,-3.6761,-3.7192,-3.7507,-3.7507,-3.8248,-3.8707,-3.8707,-3.8496,-3.8729,-3.9531,-3.8601,-3.8531,-3.9549,-3.8784,-3.8465,-3.8689,-3.7753,-3.6838,-3.5976,-3.5483,-3.5059,-3.473,-3.4461,-3.4379,-3.4429,-3.3978,-3.339,-3.2761,-3.2761,-3.2154,-3.1219,-3.1147,-3.1097,-3.1056,-3.0954,-3.0987,-3.1081,-3.1137,-3.018,-2.8558,-2.6234,-2.2975,-1.9058,-1.4374,-0.968,-0.5177,-0.0921,0.3613,0.7214,0.77,1.0081,1.266,1.4305,1.6405,1.8511,2.0463,2.1243,2.1916,2.2801,2.3699,2.4318,2.4417,2.4938,2.5351,2.5483,2.5784,2.5897,2.5645,2.5181,2.4887,2.4887,2.4465,2.3917,2.3236,2.3189,2.2933,2.2321,2.1615,2.1181,2.0991,2.0296,1.9929,1.9929,1.9929,2.0035,2.0243,2.0243,2.0089,-2.6101,0.0,0.0,-3.0256,-3.2064,-3.3833,-3.4699,-3.5757,-3.6815,-3.7796,-3.8681,-3.9469,-4.0046,-4.0681,-4.1258,-4.172,-4.2816,-4.3181,-4.197,-4.1412,-4.0223,-3.7851,-3.6901,-3.6088,-3.5192,-3.6348,-3.7239,-3.7489,-3.8028,-3.8469,-3.8689,-3.8909,-3.9448,-4.0345,-3.9792,-3.9834,-4.0496,-3.963,-3.9054,-3.8785,-3.7555,-3.6853,-3.6597,-3.5752,-3.541,-3.5461,-3.478,-3.4563,-3.4578,-3.4045,-3.333,-3.2614,-3.2614,-3.2151,-3.1473,-3.1049,-3.0904,-3.0902,-3.0928,-3.1033,-3.1164,-3.1295,-3.0136,-2.8252,-2.5843,-2.2352,-1.839,-1.4092,-0.8731,-0.3348,0.0715,0.4625,0.7784,0.8756,1.1023,1.3486,1.5466,1.7771,1.9991,2.1749,2.2749,2.35,2.4145,2.4936,2.5468,2.5436,2.5278,2.5359,2.5931,2.6091,2.6283,2.6581,2.608,2.5642,2.5421,2.4869,2.4194,2.3387,2.3236,2.2965,2.2426,2.1491,2.0991,2.0991,2.0139,1.969,1.969,1.969,1.9603,1.9479,1.9479,1.9207,-2.8734,0.0,-2.989,-3.3218,-3.4737,-3.5641,-3.6449,-3.795,-3.895,-3.8161,-3.8681,-3.9296,-3.9315,-3.9354,-3.9912,-4.1546,-4.1854,-4.1873,-4.1816,-4.0392,-3.8639,-3.6678,-3.5458,-3.4327,0.0,-3.5069,-3.6652,-3.7452,-3.7514,-3.7863,-3.867,-3.9441,-4.0394,-4.1501,-4.153,-4.1669,-4.2021,-4.091,-3.9918,-3.9072,-3.8759,-3.8212,-3.7452,-3.6615,-3.5976,-3.5493,-3.513,-3.5162,-3.5385,-3.4264,-3.333,-3.2614,-3.2614,-3.2262,-3.1688,-3.0903,-3.0731,-3.0808,-3.0228,-3.0259,-3.051,-3.0455,-2.9661,-2.8252,-2.5843,-2.1767,-1.7461,-1.5227,-0.9611,-0.3124,0.2061,0.562,0.8222,0.9469,1.1856,1.4419,1.6429,1.8861,2.1123,2.2733,2.3517,2.4145,2.4948,2.5314,2.5787,2.6618,2.6346,2.6049,2.6002,2.6351,2.6597,2.6612,2.6594,2.6245,2.5476,2.5384,2.4878,2.3768,2.3392,2.3045,2.2695,2.1592,2.0991,2.0991,2.0139,1.969,1.969,1.969,1.9442,1.893,1.893,1.865,-3.0562,0.0,-3.4825,-3.7077,-3.8373,-3.9131,-3.9306,-3.9366,-3.893,-3.7459,-3.6949,-3.6603,-3.6007,-3.5911,-3.6642,-3.8911,-3.9758,-4.0527,-4.1643,-4.0816,-3.9031,-3.6151,-3.5787,0.0,0.0,0.0,0.0,-3.5826,-3.6872,-3.7606,-3.7881,-3.9364,-4.0383,-4.0738,-4.1515,-4.1707,-4.1254,-4.0898,-4.0284,-3.9414,-3.8808,-3.7958,-3.6949,-3.6323,-3.5706,-3.5159,-3.4903,-3.4643,-3.4373,-3.4138,-3.3795,-3.3403,-3.3403,-3.3389,-3.3287,-3.2486,-3.2087,-3.1865,-3.1108,-3.0944,-3.1072,-3.1212,-3.0059,-2.8192,-2.5824,-2.2028,-1.7984,-1.5404,-0.9236,-0.2375,0.2281,0.5719,0.8478,1.0848,1.3484,1.6007,1.8004,2.0213,2.2344,2.4141,2.4509,2.4946,2.6316,2.6876,2.7309,2.7905,2.7937,2.7635,2.6937,2.7791,2.8389,2.8209,2.7714,2.7291,2.7016,2.6502,2.5719,2.4563,2.4177,2.3498,2.2334,2.1472,2.0862,2.055,1.998,1.969,1.969,1.9706,1.9604,1.9434,1.9063,1.8412,-3.3471,-3.5931,-3.8249,-4.025,-4.1024,-4.1179,-4.0798,-3.9796,-3.8365,-3.624,-3.5161,-3.4218,-3.3064,-3.2833,-3.3487,-3.543,-3.6719,-3.8016,-3.9608,-3.9358,-3.8238,-3.6174,-3.597,-3.522,0.0,0.0,0.0,-3.5477,-3.6725,-3.7764,-3.8322,-3.9935,-4.0989,-4.136,-4.2529,-4.2667,-4.1613,-4.1548,-4.087,-3.958,-3.9071,-3.8131,-3.6836,-3.6497,-3.595,-3.528,-3.4883,-3.4585,-3.4404,-3.4253,-3.4043,-3.3815,-3.3902,-3.4117,-3.4308,-3.355,-3.3221,-3.2928,-3.1722,-3.1164,-3.1011,-3.1181,-3.0028,-2.8166,-2.5811,-2.1918,-1.7421,-1.3368,-0.7271,-0.0875,0.4114,0.7042,0.9466,1.2214,1.485,1.7267,1.9243,2.147,2.3488,2.4916,2.537,2.59,2.7291,2.8085,2.859,2.8726,2.9116,2.9031,2.8036,2.8783,2.933,2.9156,2.8607,2.8117,2.7824,2.7328,2.6475,2.515,2.464,2.3829,2.2548,2.1532,2.0973,2.091,2.0102,1.9809,2.0049,1.9812,1.9575,1.9413,1.9112,1.8197,-3.7308,-3.8999,-4.0169,-4.2659,-4.2676,-4.1823,-4.0807,-3.9295,-3.7315,-3.4571,-3.3288,-3.2153,-3.0506,0.0,-3.0602,-3.1545,-3.3128,-3.475,-3.6211,-3.6461,-3.6519,0.0,0.0,0.0,0.0,0.0,0.0,-3.6413,0.0,-3.826,-3.9822,-4.1059,-4.2154,-4.3234,-4.4433,-4.4421,-4.3047,-4.2661,-4.1525,-3.9645,-3.9588,-3.872,-3.7133,-3.7095,-3.6621,-3.5805,-3.5054,-3.5021,-3.5397,-3.4582,-3.4093,-3.3842,-3.4123,-3.4423,-3.464,-3.4029,-3.3949,-3.3872,-3.1986,-3.0937,-3.0448,-3.041,-2.959,-2.8166,-2.5811,-2.1515,-1.6121,-0.9653,-0.4056,0.1303,0.7307,0.964,1.1048,1.3617,1.593,1.809,2.0237,2.2511,2.4405,2.5112,2.6071,2.7019,2.7823,2.8909,2.9545,2.9132,2.9883,3.0137,2.9117,2.9252,2.9434,2.9412,2.916,2.8705,2.7934,2.786,2.7181,2.5623,2.4923,2.4176,2.3307,2.194,2.1439,2.2011,2.0569,2.0109,2.0691,2.002,1.9443,1.8933,1.8879,1.7953,-3.9652,-4.1863,-4.3624,-4.4241,-4.3812,-4.251,-3.9638,-3.7692,-3.5535,-3.2144,-3.0269,-2.8898,-2.7766,-2.8102,0.0,-3.1352,-3.3446,0.0,-3.7851,-3.8493,0.0,-3.7145,0.0,-3.7238,-3.5465,-3.6802,0.0,0.0,-3.8285,-3.8951,-4.0205,-4.1919,-4.2837,-4.2781,-4.3886,-4.3728,-4.2162,-4.1402,-4.0795,-4.0266,-3.9653,-3.8704,-3.7471,-3.7003,-3.6136,-3.5016,-3.5217,-3.515,-3.4891,-3.4869,-3.4574,-3.4123,-3.4464,-3.4614,-3.464,-3.4029,-3.3599,-3.3158,-3.2055,-3.1563,-3.1342,-3.0685,-2.9656,-2.8239,-2.5848,-2.2685,-1.8277,-1.0377,-0.3394,0.3007,0.8639,1.0891,1.2397,1.5212,1.7655,1.9747,2.1234,2.2908,2.4435,2.546,2.6911,2.8103,2.8506,2.9184,2.9748,2.9883,3.0239,3.0137,2.9117,2.9583,2.9836,2.9454,2.933,2.9129,2.8746,2.8705,2.8264,2.7236,2.6794,2.5933,2.4514,2.3862,2.3129,2.2316,2.1889,2.1363,2.0712,2.0147,1.974,1.9509,1.7861,1.6515,-4.21,-4.3977,-4.5253,-4.489,-4.3941,-4.2175,-3.8661,-3.6258,-3.3735,-3.0141,-2.836,-2.7147,-2.6198,-2.6428,0.0,0.0,0.0,0.0,-3.5496,-3.7039,-3.7897,0.0,-3.839,0.0,-3.7136,-3.8022,-3.8927,0.0,-3.9507,-3.9888,-4.0868,-4.2234,-4.2848,-4.256,-4.3348,-4.3143,-4.1816,-4.0931,-4.0315,-3.9969,-3.9508,-3.8558,-3.7201,-3.6853,-3.6102,-3.507,0.0,-3.5254,-3.4889,-3.5053,-3.4605,-3.388,-3.4187,-3.4074,-3.3712,-3.3527,-3.3249,-3.2854,-3.2104,-3.184,-3.1707,-3.0801,-2.9688,-2.8252,-2.5843,-2.3187,-1.9157,-1.0286,-0.2683,0.3919,0.8684,1.1926,1.4476,1.6449,1.8834,2.107,2.2323,2.3625,2.4948,2.6201,2.7496,2.8517,2.8872,2.9363,2.9836,3.0266,3.0442,3.0334,2.9761,2.9989,3.0068,2.9695,2.9513,2.933,2.92,2.9067,2.8668,2.7842,2.7482,2.6641,2.5216,2.466,2.3882,2.2728,2.2508,2.1697,2.0335,2.0314,1.9714,1.8613,1.7435,1.5913,-4.436,-4.5474,-4.5748,-4.4875,-4.3306,-4.1078,-3.7647,-3.4761,-3.1854,-2.8526,0.0,-2.6293,-2.5447,-2.538,-2.5553,-2.5764,0.0,-2.9945,-3.2109,-3.4325,-3.6446,-3.8379,-3.8737,-3.8884,-3.9072,-3.916,-3.967,-4.0721,-4.0621,-4.0865,-4.1698,-4.228,-4.2544,-4.2431,-4.2783,-4.2533,-4.1655,-4.0785,-4.0,-3.9296,-3.9065,-3.8161,-3.6699,-3.6603,-3.6161,-3.5493,-3.5493,-3.5369,-3.5138,-3.5138,-3.4486,-3.3488,-3.3772,-3.3306,-3.2523,-3.2759,-3.2823,-3.2667,-3.1962,-3.1738,-3.1581,-3.0781,-2.9756,-2.8381,-2.586,-2.3427,-1.9522,-0.9761,-0.1525,0.5171,0.876,1.3042,1.6675,1.7664,1.9924,2.2204,2.346,2.4634,2.5826,2.7144,2.7974,2.864,2.9111,2.9476,2.9883,3.0419,3.0564,3.0597,3.0595,3.04,3.0196,3.0037,2.9713,2.9474,2.9434,2.9203,2.875,2.8055,2.7716,2.7042,2.5922,2.5218,2.4437,2.3571,2.3033,2.1904,2.0157,2.051,1.9512,1.7215,1.7053,1.5328,-4.5722,-4.613,-4.5855,-4.4276,-4.2088,-3.9412,-3.5936,-3.2596,0.0,0.0,-2.631,-2.5622,-2.5351,-2.589,-2.6832,-2.8217,0.0,0.0,0.0,0.0,-3.6061,0.0,0.0,0.0,0.0,0.0,0.0,0.0,0.0,-4.1499,-4.2294,-4.246,-4.2374,-4.2097,-4.2214,-4.1828,-4.0906,-4.0029,-3.9503,-3.9277,-3.7834,-3.6988,-3.668,-3.6007,-3.5641,-3.5493,-3.5493,0.0,-3.5432,-3.5432,-3.4757,-3.3756,-3.409,-3.35,-3.2462,-3.2192,-3.2044,-3.189,-3.109,-3.0825,-3.0802,-3.0644,-3.0102,-2.8973,-2.6072,-2.4138,-2.059,-0.9276,0.1284,0.9654,1.1661,1.4668,1.7825,2.0143,2.1953,2.3503,2.4665,2.5886,2.6974,2.766,2.8386,2.9034,2.9514,2.966,2.9883,3.0419,3.0564,3.0607,3.0603,3.0565,3.0436,3.0189,3.0004,2.9829,2.9661,2.9455,2.9275,2.9126,2.8868,2.8476,2.7929,2.751,2.6879,2.5933,2.5139,2.363,2.1397,2.0598,1.9203,1.7255,1.5248,1.3105,-4.6055,-4.6308,-4.5879,-4.4141,-4.1445,-3.8301,-3.4824,0.0,0.0,0.0,-2.5785,-2.5465,-2.5312,-2.563,0.0,0.0,0.0,0.0,0.0,0.0,0.0,0.0,0.0,0.0,0.0,0.0,0.0,0.0,0.0,-4.1169,-4.1834,-4.1681,-4.1509,-4.1383,-4.141,-4.0975,-4.0026,-3.9611,-3.8909,-3.793,-3.7103,-3.6491,-3.6098,-3.5256,-3.5129,-3.5582,-3.5165,-3.5223,-3.5582,-3.5146,-3.4389,-3.3456,-3.316,-3.2425,-3.1496,-3.1286,-3.1181,-3.1054,-3.0555,-3.0458,-3.0528,-3.0432,-3.0054,-2.9217,-2.684,-2.48,-2.089,-0.9386,0.2495,1.211,1.3558,1.6216,1.9052,2.1346,2.3396,2.5003,2.5721,2.6736,2.7619,2.8084,2.8608,2.916,2.9625,2.9696,2.9883,3.0419,3.0945,3.1282,3.1312,3.1327,3.1072,3.0433,3.019,3.0032,2.9877,2.957,2.9412,2.9412,2.9156,2.8815,2.842,2.8075,2.7285,2.5995,2.5124,2.339,2.077,1.9918,1.8188,1.5559,1.3289,1.0447,-4.584,-4.6152,-4.5879,-4.4141,-4.0859,-3.7226,-3.4101,-3.0469,0.0,0.0,-2.5503,-2.5451,-2.5329,0.0,-2.5159,0.0,0.0,0.0,0.0,0.0,0.0,0.0,0.0,0.0,0.0,0.0,0.0,0.0,0.0,-4.0454,-4.0863,-4.0615,-4.05,-4.0551,-4.0416,-4.0057,-3.9461,-3.9093,-3.8164,-3.6735,-3.6543,-3.6067,-3.531,-3.4817,-3.4803,-3.5139,-3.4685,-3.4743,-3.512,-3.4471,-3.3712,-3.2843,-3.2174,-3.137,-3.0603,-3.0621,-3.0577,-3.0462,-3.0269,-3.0274,-3.0365,-3.0252,-3.0021,-2.9492,-2.7736,-2.59,-2.1858,-0.9384,0.3872,1.4626,1.5685,1.7932,2.0456,2.2511,2.4665,2.6351,2.6605,2.7425,2.8174,2.8435,2.8855,2.9272,2.9695,2.9763,2.995,3.0458,3.1308,3.1933,3.2031,3.2031,3.1738,3.0903,3.0477,3.0215,3.0122,2.9715,2.9474,2.9532,2.9416,2.9104,2.8646,2.8362,2.7542,2.6055,2.4891,2.3101,2.0641,1.9782,1.7639,1.4324,1.1852,0.8293,-4.5098,-4.5703,-4.5879,-4.4141,-3.9941,-3.5742,-3.3828,0.0,0.0,-2.5644,-2.5547,-2.5488,-2.5394,-2.4739,-2.4707,0.0,0.0,-2.4562,0.0,0.0,0.0,0.0,0.0,0.0,0.0,0.0,0.0,0.0,0.0,-3.9521,-3.9567,-3.9665,-3.9733,-3.9794,-3.9149,-3.9071,-3.9672,-3.8033,-3.71,-3.6867,-3.6074,-3.5261,-3.4448,-3.5216,-3.4795,-3.3472,-3.4199,-3.4095,0.0,-3.3355,-3.2811,-3.2026,-3.2006,-3.1412,-3.0608,-3.0663,-3.0601,-3.0462,-3.0269,-3.0132,-3.0065,-3.0182,-3.0347,-3.0179,-2.8443,-2.7984,-2.4798,-0.881,0.6917,1.8917,1.896,2.0208,2.2024,2.4402,2.611,2.7192,2.7224,2.8022,2.8722,2.8769,2.9223,2.9695,2.9939,2.9969,3.0114,3.054,3.1347,3.1972,3.2166,3.2187,3.2109,3.1891,3.1018,3.0475,3.0463,2.9965,2.9746,2.9939,3.0265,3.0118,2.933,2.9332,2.882,2.7688,2.5746,2.418,2.3064,2.1292,1.8719,1.5297,1.1828,0.7441,-4.3808,-4.4844,-4.498,-4.2754,-3.8672,-3.4766,-3.3066,0.0,-2.5683,-2.5607,-2.5551,-2.5473,-2.5408,-2.5067,-2.487,0.0,0.0,0.0,0.0,0.0,0.0,0.0,0.0,0.0,0.0,0.0,0.0,0.0,-3.9548,-3.8972,-3.8015,-3.8546,-3.8935,-3.9035,-3.8749,-3.8473,-3.8206,-3.7483,-3.6559,-3.546,-3.5091,-3.4773,-3.4458,-3.3785,-3.37,-3.4078,-3.3395,-3.32,0.0,-3.2809,-3.235,-3.1912,-3.1406,-3.0955,-3.0597,-3.0575,-3.0542,-3.0399,-2.9621,-2.9631,-2.9904,-2.9307,-2.9574,-2.9911,-2.8769,-2.3291,-1.5394,-0.5491,0.9415,2.236,2.229,2.3245,2.4396,2.5035,2.6283,2.7365,2.7589,2.8252,2.9007,2.9746,2.9775,2.9933,3.067,3.0357,3.0314,3.1237,3.1676,3.2141,3.2835,3.2506,3.2363,3.2793,3.1987,3.1372,3.1299,3.0988,3.0777,3.0776,3.0804,3.0414,2.945,2.9478,2.9008,2.7915,2.5944,2.4421,2.3382,2.1181,1.8176,1.4351,0.9584,0.4457,-4.1328,-4.2637,-4.2949,-4.0625,-3.6797,-3.3203,0.0,0.0,-2.537,-2.5597,-2.5561,-2.5498,-2.5441,-2.517,-2.4755,0.0,0.0,-2.2928,-2.437,0.0,0.0,0.0,0.0,0.0,0.0,0.0,0.0,0.0,-3.8756,-3.817,-3.7051,-3.743,-3.7831,-3.8203,-3.7969,-3.7518,-3.6858,-3.6827,-3.604,-3.4528,-3.4528,-3.4418,-3.4163,-3.2963,-3.2844,-3.3516,-3.2598,-3.2343,0.0,-3.1989,-3.1686,-3.1515,-3.0911,-3.0648,-3.0594,-3.0521,-3.0344,-2.9979,-2.9033,-2.9068,-2.9383,-2.8586,-2.8851,-2.9358,-2.8557,-2.1748,-1.2833,-0.5777,0.896,2.2817,2.3988,2.4995,2.5689,2.5486,2.6266,2.722,2.7765,2.8413,2.9185,3.0146,3.0335,3.0468,3.0949,3.0748,3.0764,3.1422,3.1743,3.2182,3.2948,3.2559,3.2519,3.3301,3.2812,3.2365,3.2255,3.1794,3.1604,3.1828,3.1366,3.0712,2.9906,2.9798,2.9207,2.8065,2.6143,2.478,2.4003,2.1497,1.8156,1.3949,0.8011,0.1132,-3.7363,-3.8633,-3.9531,-3.7773,-3.4101,-3.0703,0.0,0.0,-2.4668,-2.5527,-2.5598,-2.5493,-2.5489,-2.474,-2.411,-2.411,-2.2639,0.0,-2.2697,0.0,0.0,0.0,0.0,0.0,0.0,0.0,0.0,-3.8007,-3.7339,0.0,-3.7004,-3.6319,-3.635,-3.7285,-3.6484,-3.6016,-3.6016,-3.594,-3.547,-3.4592,-3.4592,-3.414,-3.3324,-3.3355,-3.248,-3.0996,-3.1836,-3.1637,0.0,-3.0716,-3.0689,-3.0606,-3.0606,-3.0606,-3.0594,-3.0521,-2.9937,-2.9157,-2.8679,-2.8466,-2.838,-2.8166,-2.841,-2.8649,-2.7683,-2.589,-2.1945,-1.1399,0.4599,1.9453,2.3399,2.4792,2.5335,2.5888,2.6266,2.6768,2.7689,2.853,2.9211,2.9642,3.082,3.1492,3.0583,3.1172,3.1511,3.0717,3.1347,3.1987,3.2187,3.2207,3.2519,3.3301,3.3398,3.3359,3.3281,3.219,3.1955,3.3,3.1962,3.1213,3.0995,3.0601,2.9754,2.842,2.648,2.5464,2.5374,2.2767,1.9188,1.4643,0.7794,-0.2168,-3.4269,-3.5447,-3.5801,-3.3496,-3.1465,-2.9629,-2.8164,0.0,-2.5371,-2.5644,-2.5152,-2.4856,-2.5396,-2.4256,-2.3206,-2.3206,-2.2254,0.0,0.0,0.0,0.0,0.0,0.0,0.0,0.0,0.0,-3.7583,-3.6443,-3.6273,-3.5684,-3.4478,-3.4267,-3.4607,-3.5488,-3.582,-3.5703,-3.5117,-3.5096,-3.4644,-3.3766,-3.3219,-3.2828,-3.2535,-3.1953,-3.1738,-3.1777,-3.1445,-3.1071,-3.0696,-3.0696,-3.0624,-3.0529,-3.0529,-3.0395,-3.0148,-2.9696,-2.9286,-2.8746,-2.7445,-2.7123,-2.7176,-2.6374,-2.6709,-2.7272,-2.6328,-2.0772,-1.1523,0.4173,1.3975,2.0455,2.3573,2.4776,2.5259,2.5411,2.5988,2.6753,2.7689,2.853,2.9399,3.0394,3.0729,3.1102,3.1968,3.141,3.1191,3.2228,3.1599,3.13,3.2109,3.2207,3.2519,3.3301,3.3926,3.4258,3.4199,3.3849,3.3466,3.3114,3.275,3.1862,3.038,3.0359,2.9864,2.8712,2.7814,2.7083,2.6564,2.4413,1.7222,0.5382,-0.1849,-0.9748,0.0,-3.2016,-3.2282,-3.0368,-2.9003,0.0,0.0,0.0,-2.5215,-2.5215,-2.4711,-2.4351,-2.452,-2.3605,-2.2728,-2.2378,-2.212,0.0,0.0,0.0,0.0,0.0,0.0,0.0,0.0,-3.5873,-3.5805,-3.469,-3.4775,-3.4394,-3.3292,-3.3317,-3.3474,-3.375,-3.457,-3.4609,-3.3769,-3.4062,-3.3789,-3.2949,-3.2441,-3.2207,-3.2168,-3.1309,-3.0996,-3.115,-3.0603,-3.0118,0.0,-2.9688,-2.9744,-2.983,-2.9513,-2.9423,-2.9353,-2.8662,-2.812,-2.759,-2.6456,-2.6134,-2.606,-2.5163,-2.526,-2.5397,-2.3503,-1.7433,-0.7954,0.7831,1.4753,1.8514,2.3423,2.4934,2.5259,2.5449,2.5988,2.6703,2.7442,2.8385,2.938,3.0338,3.0748,3.1191,3.1872,3.1443,3.1289,3.2119,3.1323,3.1022,3.2068,3.2207,3.2637,3.3769,3.4375,3.4824,3.5098,3.4805,3.4446,3.41,3.3161,3.2083,3.0893,3.0376,2.9788,2.9049,2.8383,2.7655,2.6863,2.1103,1.2283,0.0589,-0.7762,-1.4524,0.0,-2.8536,0.0,0.0,0.0,0.0,0.0,0.0,0.0,-2.4394,-2.4251,-2.3912,-2.3229,-2.289,-2.2494,-2.1814,-2.226,0.0,0.0,0.0,0.0,0.0,0.0,0.0,-3.0546,-3.2139,-3.3133,-3.2938,-3.3048,-3.3126,-3.3126,-3.3129,-3.2817,-3.2129,-3.2812,-3.2871,-3.2207,-3.2949,-3.293,-3.2187,-3.2129,-3.2089,-3.207,-3.1249,-3.0366,0.0,-2.9486,-2.8929,-2.7989,-2.7981,-2.8279,-2.864,-2.7878,-2.7899,-2.8296,-2.7516,-2.6688,-2.5947,-2.5695,-2.5375,-2.4986,-2.4427,-2.4045,-2.3152,-1.9727,-1.5796,-1.0023,0.1956,0.8808,1.4476,2.2996,2.515,2.5271,2.5872,2.6266,2.6621,2.7051,2.8189,2.9231,2.9623,3.082,3.1549,3.0814,3.1405,3.1757,3.1071,3.091,3.1215,3.2164,3.2344,3.2969,3.4531,3.4766,3.5117,3.5937,3.5195,3.4951,3.558,3.3277,3.1966,3.2145,3.0561,2.9607,2.9412,2.8378,2.7226,2.5932,1.4192,0.5395,-0.0715,-1.0471,-1.6848,-2.5839,0.0,-2.6248,-2.542,-2.5412,-2.546,0.0,0.0,0.0,0.0,0.0,0.0,0.0,-2.2353,-2.1571,-2.3353,-2.2687,-2.2362,-2.3495,0.0,0.0,-2.9922,-3.1588,-3.2405,-3.1828,-3.2689,-3.2989,-3.2298,-3.236,-3.2116,-3.1357,-3.1417,-3.1348,-3.106,-3.1233,-3.1613,-3.2187,-3.2383,-3.2342,-3.2036,-3.137,-3.1025,-3.0964,-3.075,-3.02,-2.9411,-2.9411,-2.8876,-2.7989,-2.7826,-2.7819,-2.784,-2.7504,-2.7339,-2.721,-2.655,-2.6073,-2.5682,-2.5013,-2.4376,-2.3869,-2.3684,-2.2814,-2.1329,-1.8382,-1.4946,-0.9537,0.2342,0.8608,1.3809,2.2662,2.4671,2.4654,2.5721,2.6266,2.6703,2.7519,2.8427,2.9231,2.9623,3.0271,3.1133,3.2288,3.2134,3.2256,3.35,3.3128,3.2792,3.3083,3.3691,3.4258,3.4668,3.5293,3.5781,3.5976,3.5801,3.5448,3.4896,3.3611,3.2511,3.1689,3.0404,2.9607,2.9412,2.8631,2.5834,2.0892,1.175,0.3034,-0.5243,-1.339,-1.9105,-2.4851,-2.5085,-2.5354,-2.4919,-2.5203,-2.5371,-2.4544,0.0,0.0,0.0,0.0,0.0,0.0,0.0,0.0,0.0,-2.2656,0.0,0.0,0.0,0.0,-2.992,-3.093,-3.1376,0.0,-3.1311,-3.1235,-3.0325,-3.0348,-3.0175,-2.9622,-2.9648,-2.9814,-3.015,-3.0111,-3.054,-3.146,-3.148,-3.1237,-3.0802,-3.0334,-2.9888,-2.9449,-2.9449,-2.8979,-2.8152,-2.8152,-2.7632,-2.6745,-2.6542,-2.6612,-2.6807,-2.623,-2.611,-2.6097,-2.5245,-2.4894,-2.4705,-2.411,-2.344,-2.287,-2.2897,-2.1973,-2.0341,-1.746,-1.398,-0.894,0.0877,0.7611,1.3472,2.0508,2.3571,2.509,2.6009,2.6689,2.7243,2.7706,2.8631,2.9439,2.966,3.0104,3.0891,3.23,3.2182,3.226,3.3347,3.3407,3.3366,3.3398,3.416,3.4844,3.5254,3.5723,3.5996,3.5996,3.5996,3.574,3.5149,3.3906,3.2952,3.24,3.0652,2.9457,2.8952,2.7507,2.3493,1.6877,0.8014,-0.049,-0.8637,-1.6231,-2.04,-2.4322,-2.472,-2.5391,-2.5398,-2.5396,-2.5197,-2.4478,0.0,0.0,0.0,0.0,0.0,0.0,-2.0708,0.0,0.0,0.0,0.0,0.0,0.0,-2.7426,-2.8777,-2.9159,0.0,-2.8978,-2.9225,-2.9061,-2.8281,-2.826,-2.8281,-2.8281,-2.8229,-2.8522,-2.925,-2.9226,-2.9518,-3.0179,-3.0341,-3.0055,-2.9368,-2.9232,-2.8785,-2.806,-2.806,-2.7557,-2.6676,0.0,0.0,-2.5253,-2.5053,-2.5294,-2.5678,-2.4789,-2.4746,-2.5008,-2.407,-2.3671,-2.3566,-2.3165,-2.2617,-2.2113,-2.2101,-2.1327,-1.9824,-1.6876,-1.3118,-0.8405,-0.1382,0.6214,1.3435,1.8586,2.2847,2.5913,2.6449,2.7332,2.804,2.7933,2.8883,2.9748,2.9748,3.0152,3.0845,3.1908,3.2156,3.2337,3.2715,3.3359,3.3809,3.3809,3.4434,3.5176,3.5918,3.5992,3.6003,3.5984,3.5995,3.5903,3.5704,3.425,3.3293,3.3034,3.0885,2.9172,2.8085,2.5496,2.0626,1.3369,0.3803,-0.4353,-1.1168,-1.8354,-2.0909,-2.4322,-2.4697,-2.5321,-2.5391,-2.4891,-2.4391,-2.4311,0.0,0.0,0.0,0.0,0.0,0.0,-2.1699,-2.2187,0.0,0.0,-2.5664,0.0,0.0,-2.7051,-2.7242,0.0,-2.8182,-2.7438,-2.8046,-2.8437,-2.83,-2.8238,-2.8227,-2.8227,-2.8154,-2.8159,-2.8235,-2.8221,-2.8244,-2.8309,-2.9162,-2.9467,-2.9214,-2.8536,-2.812,-2.7923,-2.7923,-2.7451,-2.6612,0.0,-2.6022,-2.5034,-2.4877,-2.4787,-2.4696,-2.4358,-2.4129,-2.3937,-2.375,-2.3522,-2.3189,-2.2487,-2.219,-2.2012,-2.1383,-2.053,-1.9273,-1.6675,-1.2789,-0.82,-0.3126,0.4929,1.3693,2.083,2.4432,2.6331,2.6817,2.7947,2.8907,2.8892,2.9456,2.9954,2.9954,3.0253,3.1037,3.2702,3.3051,3.3623,3.5173,3.5527,3.5605,3.5605,3.5723,3.5859,3.5996,3.5988,3.5979,3.591,3.5974,3.5892,3.5621,3.4798,3.3417,3.1447,3.0231,2.8613,2.6487,2.3028,1.747,0.9795,0.0283,-0.7267,-1.2949,-1.8303,-2.0211,-2.3629,-2.3658,-2.3965,-2.3987,-2.442,-2.4626,-2.3733,-2.3305,0.0,0.0,0.0,0.0,0.0,0.0,-2.2418,-2.4121,0.0,-2.5771,-2.6152,-2.6186,-2.6353,0.0,0.0,-2.7337,-2.6927,-2.7292,-2.7333,-2.683,-2.6793,-2.6785,-2.6743,-2.669,-2.6838,-2.7284,-2.7265,-2.746,-2.789,-2.7883,-2.7851,-2.7798,-2.7412,-2.6969,-2.6505,-2.6505,-2.6274,-2.588,0.0,-2.5451,-2.4986,-2.4741,-2.4575,-2.4478,-2.4266,-2.3996,-2.3671,-2.3282,-2.2805,-2.2307,-2.196,-2.1681,-2.1442,-2.1118,-2.0165,-1.8757,-1.6569,-1.2528,-0.7444,-0.1637,0.581,1.3162,1.8213,2.2531,2.5925,2.7241,2.8001,2.8629,2.9343,2.9806,3.011,3.0162,3.0366,3.0979,3.2324,3.2983,3.3586,3.4469,3.5391,3.582,3.5351,3.5703,3.5996,3.5996,3.5993,3.5982,3.5911,3.595,3.5712,3.5048,3.4885,3.3584,3.079,2.9953,2.818,2.5287,2.0555,1.4047,0.5638,-0.2273,-0.9578,-1.6174,-1.9188,-1.9978,-2.3024,-2.2793,-2.2716,-2.2312,0.0,-2.4208,-2.3118,-2.325,0.0,0.0,0.0,0.0,0.0,-2.1518,0.0,-2.4135,-2.5065,-2.5595,-2.5558,-2.5511,-2.5741,-2.6387,-2.6481,-2.6491,-2.6491,-2.6548,-2.6259,-2.5552,-2.5539,-2.5539,-2.5468,-2.5408,-2.5677,-2.6346,-2.6323,-2.6621,-2.7274,-2.664,-2.6409,-2.6601,-2.639,-2.5927,-2.5224,-2.5224,-2.5203,-2.5171,-2.5018,-2.4924,-2.4872,-2.4604,-2.4425,-2.4302,-2.4153,-2.3756,-2.3241,-2.2652,-2.2017,-2.143,-2.1212,-2.0927,-2.0601,-2.0237,-1.9352,-1.8057,-1.6182,-1.2155,-0.6849,-0.0193,0.6597,1.2698,1.6204,2.1221,2.5793,2.7532,2.8089,2.8555,2.9734,3.0164,3.0303,3.0352,3.0498,3.0954,3.2085,3.285,3.3459,3.3866,3.5116,3.5742,3.5078,3.5586,3.5994,3.601,3.5989,3.5963,3.5892,3.5705,3.535,3.4809,3.4974,3.3865,3.1078,2.9952,2.7715,2.413,1.7716,1.0478,0.2374,-0.4802,-1.1478,-1.7574,-1.915,-1.9047,-2.2997,-2.2793,-2.2427,-2.0869,-2.1147,0.0,-2.2656,-2.2284,0.0,-2.2675,0.0,0.0,0.0,-2.238,-2.3293,-2.4175,-2.5038,-2.5558,-2.5434,0.0,-2.5507,-2.5498,-2.5568,-2.5591,-2.5591,-2.5595,-2.5576,-2.5513,-2.5453,-2.5408,-2.5401,-2.5337,-2.5341,-2.5399,-2.5409,-2.5418,-2.5495,-2.5418,-2.5813,-2.6601,-2.5793,-2.5261,-2.5022,-2.5022,-2.4956,-2.4847,-2.4832,-2.4716,-2.4526,-2.4512,-2.4211,-2.3756,-2.3735,-2.3106,-2.2163,-2.1816,-2.143,-2.0926,-2.0043,-1.9713,-1.9447,-1.7956,-1.741,-1.6974,-1.5213,-1.1602,-0.687,-0.0762,0.6133,1.2829,1.8162,2.2951,2.6621,2.7596,2.8515,2.9442,3.0362,3.0568,3.0575,3.0587,3.0583,3.1131,3.2812,3.3222,3.3807,3.5318,3.5798,3.5957,3.582,3.5918,3.6004,3.5994,3.5951,3.5911,3.5892,3.4925,3.47,3.5547,3.5296,3.4358,3.2698,3.0312,2.7058,2.2805,1.4043,0.6784,0.1173,-0.7697,-1.2847,-1.4499,-1.6695,-1.6528,-2.2687,-2.2307,-2.1716,-2.0581,-2.083,0.0,0.0,-2.2981,-2.3083,-2.2871,-2.3288,0.0,0.0,0.0,-2.2504,-2.3346,-2.3737,-2.3903,-2.3857,-2.383,-2.3813,-2.3794,-2.3806,-2.3816,-2.3816,-2.3864,-2.3876,-2.3816,-2.3837,-2.4007,-2.438,-2.4385,-2.4301,-2.4181,-2.4721,-2.474,-2.4188,-2.4798,-2.5283,-2.5589,-2.5407,-2.5184,-2.501,-2.501,-2.493,-2.479,-2.467,-2.4456,-2.4192,-2.4284,-2.3941,-2.3328,-2.287,-2.246,-2.204,-2.1428,-2.0765,-2.0078,-1.9713,-1.8941,-1.7995,-1.741,-1.6448,-1.5254,-1.3726,-1.0327,-0.5788,0.0,0.6449,1.289,1.8511,2.257,2.5525,2.6864,2.7853,2.8757,2.9715,3.0231,3.0565,3.0646,3.0637,3.0984,3.2171,3.2865,3.3619,3.4775,3.5014,3.5067,3.5096,3.4648,3.4545,3.5125,3.562,3.5911,3.5963,3.4923,3.4462,3.4928,3.4677,3.3897,3.2482,2.9266,2.5637,2.1666,1.2698,0.5553,0.0421,-0.7295,-1.2087,-1.4105,-1.4965,-1.458,-2.1802,-2.1329,-2.0766,0.0,0.0,0.0,-2.242,-2.316,-2.3621,-2.3592,-2.3639,0.0,0.0,0.0,0.0,0.0,-2.2732,-2.2882,-2.2805,-2.2541,-2.2325,-2.2269,-2.2259,-2.2182,-2.197,-2.2461,-2.2697,-2.2417,-2.2701,-2.3028,-2.34,-2.3416,-2.3339,-2.3132,-2.3704,-2.3855,-2.3496,-2.3936,-2.4404,-2.4937,-2.4798,-2.4805,-2.4924,-2.4872,-2.4766,-2.4591,-2.4461,-2.4229,-2.3908,-2.3999,-2.3588,-2.2788,-2.218,-2.1782,-2.1453,-2.0814,-2.0043,-1.928,-1.8754,-1.7731,-1.6519,-1.6009,-1.4665,-1.305,-1.167,-0.8467,-0.4216,0.1209,0.7102,1.3035,1.855,2.2179,2.4798,2.6415,2.7432,2.8296,2.9257,3.0034,3.0556,3.0644,3.0608,3.0924,3.2057,3.2762,3.3448,3.4274,3.4464,3.4427,3.4189,3.3891,3.4069,3.498,3.5519,3.5829,3.5902,3.4644,3.3989,3.4321,3.3566,3.2708,3.1832,2.8224,2.4228,1.9855,1.1107,0.4044,-0.1232,-0.7353,-1.1236,-1.2962,-1.3152,-1.2554,-2.0288,-1.9862,-1.9601,0.0,0.0,0.0,-2.2098,-2.2455,-2.3118,-2.4918,-2.3947,-2.2793,-2.2793,0.0,0.0,-2.1501,-2.226,-2.2801,-2.2583,-2.1866,-2.1281,-2.1085,-2.1062,-2.0796,-2.0136,-2.1578,-2.2249,-2.1515,-2.2254,-2.2709,-2.2579,-2.2579,-2.2475,-2.2281,-2.2281,-2.2665,-2.3464,-2.2697,-2.3118,-2.4766,-2.3898,-2.3936,-2.4771,-2.4591,-2.4374,-2.419,-2.419,-2.3996,-2.3692,-2.3692,-2.3058,-2.2068,-2.1744,-2.1054,-2.0246,-1.9763,-1.9295,-1.8636,-1.6957,-1.5948,-1.511,-1.3334,-1.1822,-1.0422,-0.9008,-0.6068,-0.2135,0.2763,0.7962,1.3283,1.837,2.2028,2.4786,2.6391,2.7448,2.8313,2.9201,3.0025,3.0586,3.0601,3.0544,3.1032,3.2712,3.3058,3.3327,3.4103,3.436,3.4161,3.3288,3.3993,3.4923,3.5778,3.5718,3.563,3.5683,3.3981,3.3218,3.3941,3.1914,3.075,3.0889,2.7398,2.2805,1.7206,0.8959,0.1951,-0.3869,-0.8337,-1.0481,-1.0481,-1.1265,-1.0269,-2.0742,-2.022,0.0,-2.0224,0.0,0.0,0.0,-2.2829,0.0,0.0,-2.3081,-2.2062,-2.2677,0.0,0.0,-2.0658,-2.0296,-1.9994,-1.9935,-1.9145,-1.8555,-1.8505,-1.8505,-1.842,-1.8213,-1.8735,-1.8944,-1.8631,-1.8941,-1.9545,-2.0433,-2.0496,-2.0661,-2.1019,-2.1631,-2.1761,-2.139,-2.1838,-2.2337,-2.2828,-2.2566,-2.2903,-2.3749,-2.3686,-2.3416,-2.3001,-2.3001,-2.2998,-2.2972,-2.2773,-2.2466,-2.204,-2.1428,-2.0813,-2.0212,-1.9383,-1.8517,-1.7491,-1.6168,-1.4755,-1.3314,-1.1795,-1.0062,-0.8261,-0.6781,-0.4186,-0.0703,0.4185,0.8569,1.2927,1.8074,2.1361,2.3695,2.5068,2.6173,2.716,2.808,2.8953,2.9747,3.0402,3.0487,3.0956,3.2628,3.2474,3.2801,3.4814,3.3641,3.222,3.142,3.2666,3.3712,3.3974,3.5006,3.567,3.5698,3.408,3.3301,3.3891,3.1461,2.9856,2.9509,2.475,2.0178,1.5977,0.7555,0.1461,-0.2065,-0.651,-0.835,-0.7767,-0.7978,-0.7007,-1.9483,-1.9223,0.0,-2.0129,-2.0755,-2.1507,-2.2641,0.0,0.0,0.0,0.0,-2.1966,-2.1831,-2.0653,0.0,-1.9276,-1.8665,-1.8222,-1.8165,-1.7377,-1.6778,-1.6726,-1.6715,-1.6624,-1.6346,-1.699,-1.7283,-1.6914,-1.7282,-1.7841,-1.8615,-1.857,-1.867,-1.894,-1.9405,-1.9749,-1.9926,-2.0197,-2.0877,-2.1925,-2.1493,-2.1572,-2.2072,-2.2404,-2.2301,-2.189,-2.1604,-2.1709,-2.1979,-2.1575,-2.1378,-2.1332,-2.0894,-2.0177,-1.9346,-1.8508,-1.7357,-1.594,-1.4462,-1.2892,-1.1245,-0.9591,-0.7786,-0.6007,-0.4209,-0.186,0.1196,0.5789,0.9452,1.3033,1.794,2.0662,2.2582,2.4225,2.5447,2.6479,2.7374,2.8313,2.9206,3.0027,3.0292,3.0905,3.2511,3.218,3.2333,3.4199,3.2622,3.1303,3.1516,3.2464,3.3392,3.4115,3.4754,3.5261,3.5636,3.3953,3.3016,3.3431,3.0849,2.8716,2.7395,2.3466,1.9131,1.4551,0.7259,0.1734,-0.1833,-0.5195,-0.6616,-0.6094,-0.5336,-0.4224,-1.7428,0.0,0.0,-1.9161,-2.0611,0.0,-2.1853,-2.3291,-2.4403,-2.3614,0.0,-2.2045,-2.045,-1.9347,-1.8438,-1.7704,-1.7396,-1.7214,-1.7102,-1.634,-1.5722,-1.5582,-1.5582,-1.5336,-1.4712,-1.6038,-1.6664,-1.5998,-1.6668,-1.7079,-1.7044,-1.6855,-1.6703,-1.6598,-1.6463,-1.7177,-1.885,-1.8073,-1.8915,-2.1292,-2.0335,-1.9885,-1.9939,-2.0841,-2.1085,-2.0781,-2.0216,-2.0264,-2.0757,-2.0179,-2.0004,-2.0128,-2.0079,-1.9235,-1.7928,-1.7235,-1.5913,-1.4201,-1.2252,-1.0656,-0.9154,-0.6998,-0.5371,-0.3808,-0.1595,0.0713,0.3374,0.7538,1.0563,1.355,1.7925,2.0082,2.1657,2.3673,2.5022,2.6076,2.6855,2.7888,2.8831,2.9465,2.998,3.0791,3.2218,3.1952,3.1789,3.2564,3.1475,3.1148,3.2769,3.2961,3.3621,3.5391,3.4814,3.4661,3.5526,3.3765,3.271,3.2903,3.0206,2.755,2.5201,2.2898,1.8908,1.2939,0.7516,0.2238,-0.2845,-0.4249,-0.4923,-0.4788,-0.3045,-0.1793,-1.8517,-1.7653,0.0,0.0,-2.1033,-2.1637,-2.0972,-2.128,-2.1525,-2.0934,-2.0659,-2.0249,-1.9294,-1.8345,-1.7643,-1.7473,-1.6752,-1.6207,-1.6183,-1.5384,-1.4738,-1.4549,-1.4654,-1.4647,-1.4332,-1.4738,-1.4966,-1.484,-1.4816,-1.5099,-1.5754,-1.5608,-1.578,-1.6413,-1.6417,-1.6578,-1.6982,-1.6895,-1.7088,-1.7567,-1.7415,-1.7518,-1.7818,-1.9424,-1.9823,-1.9292,-1.9496,-1.953,-1.9414,-1.926,-1.9051,-1.8765,-1.8387,-1.7855,-1.7153,-1.5872,-1.4612,-1.32,-1.1076,-0.9606,-0.8189,-0.5655,-0.3851,-0.2252,-0.0055,0.2518,0.5481,0.9041,1.1874,1.465,1.8344,2.0366,2.1707,2.2775,2.3941,2.4976,2.5579,2.6683,2.7777,2.8596,2.9344,3.017,3.1159,3.0811,3.0494,3.0886,3.1046,3.1331,3.1936,3.2387,3.3164,3.4378,3.4949,3.5295,3.5507,3.4297,3.3581,3.3724,3.006,2.7318,2.601,2.0718,1.5882,1.1721,0.6049,0.0525,-0.4764,-0.3,-0.1796,-0.1132,-0.0066,0.0932,-1.7701,0.0,0.0,-1.8736,0.0,-2.029,-1.9531,-1.9435,-1.9234,-1.824,-1.8712,-1.881,-1.7214,-1.6469,-1.5866,-1.5075,-1.4466,-1.4177,-1.4464,-1.4087,-1.3847,-1.4029,-1.4149,-1.4175,-1.4083,-1.4126,-1.4178,-1.4201,-1.4069,-1.4208,-1.4669,-1.4483,-1.4586,-1.5041,-1.4996,-1.5188,-1.5688,-1.5766,-1.5976,-1.6401,-1.6333,-1.6343,-1.6426,-1.8104,-1.8567,-1.81,-1.8175,-1.8216,-1.8184,-1.7981,-1.7838,-1.7734,-1.751,-1.6694,-1.5527,-1.4474,-1.2872,-1.0935,-0.9235,-0.7653,-0.5942,-0.3579,-0.2075,-0.0648,0.1916,0.3954,0.6153,0.9638,1.2177,1.4591,1.7796,1.9714,2.1003,2.1938,2.3165,2.4318,2.4947,2.582,2.6814,2.7942,2.8669,2.9489,3.0603,3.0617,3.0383,3.0113,3.0338,3.0877,3.1825,3.2203,3.2997,3.4466,3.4541,3.4716,3.5251,3.4147,3.3428,3.3482,3.014,2.7487,2.5939,2.042,1.5869,1.2605,0.7591,0.3059,-0.0926,0.0066,0.0795,0.1261,0.3045,0.3909,-1.6659,0.0,-1.6654,-1.7317,-1.8063,0.0,-1.7786,-1.7632,-1.7215,-1.5744,-1.6857,-1.7385,-1.5091,-1.4541,-1.4008,-1.2702,-1.2244,-1.2336,-1.3094,-1.3076,-1.3188,-1.3779,-1.3885,-1.3846,-1.3676,-1.3662,-1.362,-1.3538,-1.3574,-1.3634,-1.3662,-1.3609,-1.3572,-1.3572,-1.3462,-1.3803,-1.4637,-1.4653,-1.5082,-1.588,-1.5732,-1.5565,-1.5384,-1.6689,-1.7119,-1.6823,-1.6625,-1.6615,-1.6722,-1.6503,-1.6518,-1.6642,-1.6575,-1.5476,-1.3848,-1.3062,-1.1135,-0.8738,-0.7487,-0.5701,-0.3627,-0.1668,-0.0433,0.0908,0.3724,0.5283,0.6754,1.0097,1.2378,1.4507,1.725,1.8979,2.0297,2.135,2.2583,2.3723,2.4433,2.5232,2.6135,2.7353,2.8126,2.8988,3.0182,3.0583,3.0489,2.979,2.9624,3.0189,3.1977,3.2109,3.2807,3.4827,3.4056,3.3847,3.4942,3.3717,3.2907,3.29,3.009,2.7541,2.5561,2.0914,1.7036,1.4148,1.0038,0.6781,0.4478,0.3694,0.33,0.3366,0.5741,0.6473,0.0,0.0,-1.717,0.0,-1.6498,-1.657,0.0,0.0,-1.5355,0.0,-1.4954,-1.5603,-1.398,-1.3578,-1.3413,-1.3201,-1.2467,-1.2434,-1.384,-1.3331,-1.3019,-1.3574,-1.378,-1.3577,-1.2773,-1.269,-1.2494,-1.2038,-1.2332,-1.2567,-1.2675,-1.3151,-1.343,-1.343,-1.3413,-1.3464,-1.3599,-1.3711,-1.3779,-1.382,-1.4184,-1.4336,-1.4311,-1.4934,-1.514,-1.5053,-1.538,-1.5145,-1.4587,-1.5109,-1.5122,-1.48,-1.4444,-1.3866,-1.3069,-1.1708,-1.0089,-0.8374,-0.6931,-0.4862,-0.2697,-0.1362,0.0378,0.2362,0.4671,0.6716,0.8851,1.1652,1.3776,1.5782,1.8057,1.943,2.0424,2.1366,2.2224,2.294,2.3354,2.481,2.6194,2.6661,2.7945,2.9067,2.9483,2.9582,2.9625,2.9697,2.9263,2.9715,3.1921,3.1747,3.2273,3.4505,3.3941,3.3771,3.4697,3.3352,3.2601,3.2871,2.9396,2.6755,2.5576,2.1033,1.7474,1.5051,1.1024,0.8027,0.627,0.614,0.6074,0.6074,0.7279,0.7757,-1.6474,-1.6143,-1.5627,0.0,-1.5102,-1.528,-1.4199,0.0,-1.4302,-1.3239,-1.3587,-1.3636,-1.2204,-1.2168,-1.2054,-1.1208,-1.1054,-1.1404,-1.2436,-1.2591,-1.28,-1.3408,-1.3196,-1.3003,-1.3014,-1.2212,-1.1981,-1.2615,-1.2421,-1.2513,-1.2981,-1.311,-1.3173,-1.3173,-1.3173,-1.3173,-1.3173,-1.3227,-1.3158,-1.2944,-1.3162,-1.3158,-1.2987,-1.3042,-1.3577,-1.4475,-1.447,-1.4322,-1.4113,-1.4268,-1.4063,-1.369,-1.3537,-1.2832,-1.1768,-1.052,-0.9029,-0.7396,-0.5852,-0.3678,-0.1362,-0.0155,0.17,0.3779,0.5595,0.7334,0.9158,1.1509,1.3507,1.5421,1.7397,1.8875,2.01,2.1039,2.1668,2.2224,2.2797,2.4236,2.5792,2.7046,2.8209,2.904,2.9156,2.9178,2.9141,2.8986,2.8759,2.918,3.0874,3.1078,3.1664,3.3231,3.3129,3.291,3.2803,3.2059,3.1438,3.1182,2.8592,2.6436,2.507,2.1587,1.8512,1.592,1.2382,0.9731,0.813,0.8553,0.8798,0.8798,1.0153,1.0801,0.0,0.0,-1.4115,-1.336,-1.3662,-1.3844,0.0,0.0,-1.3183,0.0,-1.2626,-1.229,-1.0848,-1.1143,-1.1163,-0.9826,-0.9872,-1.0365,-1.1196,-1.1712,-1.2243,-1.2941,-1.2489,-1.2255,-1.2623,-1.1515,-1.1157,-1.2132,-1.1879,-1.1982,-1.2706,-1.2687,-1.2709,-1.2889,-1.2906,-1.2824,-1.2662,-1.2646,-1.2637,-1.261,-1.2443,-1.2249,-1.1979,-1.1657,-1.2224,-1.3442,-1.3336,-1.3356,-1.34,-1.3359,-1.3115,-1.2763,-1.26,-1.183,-1.0657,-0.9437,-0.7995,-0.6445,-0.4714,-0.2474,-0.0241,0.0969,0.289,0.4934,0.6211,0.7688,0.9379,1.1379,1.3199,1.4991,1.6946,1.8412,1.9662,2.0748,2.1306,2.1903,2.3064,2.4226,2.5595,2.7458,2.8372,2.8839,2.8839,2.8839,2.8749,2.8446,2.8246,2.8627,3.0034,3.0416,3.1006,3.2173,3.2182,3.1931,3.136,3.0767,3.0211,2.9721,2.7877,2.6068,2.4407,2.1917,1.9304,1.6479,1.3892,1.182,1.0212,1.0815,1.1114,1.1176,1.2435,1.3009,0.0,-1.4234,0.0,-1.2271,-1.2025,0.0,0.0,0.0,0.0,-1.1641,-1.2122,-1.2054,-1.0504,-1.0977,-1.134,-1.0564,-0.9725,-0.97,-1.119,-1.1102,-1.1153,-1.1893,-1.1792,-1.1381,-1.0704,-1.0174,-0.961,-0.8998,-0.9561,-1.0227,-1.0891,-1.14,-1.1958,-1.2614,-1.263,-1.2309,-1.167,-1.167,-1.199,-1.2591,-1.203,-1.1743,-1.1685,-1.1182,-1.0995,-1.1117,-1.1738,-1.179,-1.1477,-1.2121,-1.2188,-1.1799,-1.1254,-1.0692,-1.005,-0.8391,-0.7093,-0.5806,-0.3554,-0.1437,0.0546,0.1748,0.3663,0.5584,0.6362,0.8035,1.0074,1.2078,1.3627,1.5207,1.7464,1.844,1.92,2.0667,2.1306,2.2215,2.4499,2.5243,2.5941,2.7581,2.8192,2.842,2.842,2.842,2.842,2.8402,2.7787,2.8058,2.9942,2.9884,3.0261,3.1845,3.1343,3.103,3.1359,2.997,2.9185,2.9415,2.7462,2.5529,2.372,2.1698,1.9304,1.6479,1.5571,1.4378,1.2826,1.2818,1.2879,1.2879,1.2948,1.3009,0.0,0.0,0.0,-1.2047,-1.1708,-1.1433,-1.0402,-1.0276,-1.0389,-1.0425,-1.0685,-1.0732,-1.0173,-1.0732,-1.0886,-0.9668,-0.9583,-0.9879,-1.042,-1.0712,-1.0968,-1.1216,-1.0668,-1.0318,-1.0543,-0.9555,-0.9178,-0.9872,-0.9725,-1.0117,-1.1254,-1.0925,-1.1012,-1.1668,-1.1278,-1.1152,-1.1341,-1.1775,-1.1907,-1.1766,-1.1549,-1.1102,-1.0473,-1.0294,-0.997,-0.9569,-1.0131,-1.0714,-1.1277,-1.1093,-1.1115,-1.1244,-1.0674,-1.0176,-0.9531,-0.787,-0.6523,-0.5184,-0.2933,-0.0744,0.1247,0.2938,0.471,0.6416,0.7581,0.9089,1.0822,1.2801,1.3986,1.5207,1.7504,1.8627,1.9627,2.1413,2.1945,2.255,2.4317,2.4988,2.5842,2.7835,2.8316,2.8394,2.8394,2.8394,2.8246,2.7776,2.747,2.7636,2.8542,2.8812,2.9112,2.9628,2.9692,2.9465,2.8816,2.824,2.7769,2.7375,2.6254,2.5025,2.3731,2.2178,2.0215,1.7878,1.7114,1.5543,1.3009,1.3545,1.3786,1.3786,1.4332,1.4569,-1.2565,0.0,0.0,0.0,0.0,-1.0828,-0.9867,0.0,-0.9353,-0.9393,-0.9679,-0.9924,-0.9924,-1.0363,-1.0335,-0.9095,-0.9268,-0.9568,-0.9568,-0.9985,-1.0297,-1.0297,-0.9713,-0.9497,-0.997,-0.8989,-0.87,-0.9697,-0.9299,0.0,-1.0684,-1.0123,-1.0066,-1.074,-1.0223,-1.0246,-1.0909,-1.1262,-1.1336,-1.115,-1.0898,-1.0441,-0.9792,-0.956,-0.9215,-0.8811,-0.8876,-0.9596,-1.0704,-1.0387,-1.0351,-1.0437,-0.9914,-0.9284,-0.848,-0.6987,-0.5647,-0.4289,-0.1976,-0.0093,0.1648,0.3788,0.5444,0.6853,0.8265,0.9666,1.1199,1.3165,1.4193,1.5207,1.7504,1.8904,2.0073,2.1521,2.1974,2.2492,2.4154,2.4701,2.5524,2.7599,2.8139,2.8264,2.8394,2.8316,2.7984,2.7326,2.7031,2.7046,2.7494,2.8047,2.8441,2.8592,2.9097,2.8953,2.7777,2.756,2.7173,2.6346,2.5615,2.4723,2.3684,2.239,2.0713,1.8637,1.797,1.6373,1.3795,1.4332,1.4628,1.4628,1.5167,1.541,0.0,0.0,0.0,0.0,0.0,0.0,-0.987,0.0,-0.8412,-0.8551,-0.9215,-0.9765,-0.9765,-0.9868,-0.9718,-0.8999,-0.8783,-0.8693,-0.8693,-0.8908,-0.9065,-0.9065,-0.8955,-0.8875,-0.8875,-0.8392,-0.8088,-0.8088,-0.8088,-0.837,-0.9034,-0.8954,-0.9157,-0.9797,-0.954,-0.969,-1.0355,-1.0058,-1.0244,-1.0873,-1.0133,-0.9779,-0.9741,-0.9081,-0.8761,-0.8706,-0.8023,-0.8419,-0.9563,-0.9953,-0.9853,-0.9439,-0.8878,-0.7998,-0.6862,-0.5728,-0.4509,-0.3096,-0.0796,0.0608,0.1799,0.4337,0.5812,0.6907,0.8311,0.9717,1.1199,1.3175,1.4204,1.5219,1.7545,1.9207,2.0449,2.0894,2.1337,2.2145,2.4076,2.4506,2.5071,2.6947,2.7636,2.801,2.8316,2.8102,2.7701,2.7143,2.6455,2.6261,2.6986,2.7679,2.8339,2.8886,2.9576,2.9538,2.8424,2.8047,2.7477,2.6538,2.568,2.4705,2.3576,2.2321,2.0713,1.8677,1.797,1.6856,1.541,1.541,1.541,1.541,1.541,1.542,-1.0905,0.0,0.0,0.0,0.0,0.0,0.0,0.0,-0.8008,-0.8198,-0.853,-0.8782,-0.8782,-0.8821,-0.8766,-0.8571,-0.8628,-0.8657,-0.8504,-0.8427,-0.8369,-0.8369,-0.8257,-0.8169,-0.8169,-0.8033,-0.7956,0.0,-0.7956,-0.8154,-0.8634,-0.8496,-0.8265,-0.795,-0.8748,-0.927,-0.9451,-1.0228,-1.0454,-1.0108,-0.9894,-0.9403,-0.8695,-0.8523,-0.8117,-0.7579,-0.7927,-0.809,-0.8158,-0.8264,-0.8558,-0.8878,-0.8316,-0.7682,-0.6862,-0.5728,-0.401,-0.2069,-0.053,0.1493,0.3686,0.5371,0.6579,0.7765,0.9622,1.0501,1.1299,1.3726,1.4549,1.5285,1.7917,1.9682,2.0926,2.1337,2.1764,2.2538,2.4154,2.4506,2.5071,2.6947,2.7378,2.75,2.7572,2.753,2.7206,2.6421,2.6106,2.6079,2.6294,2.6475,2.6814,2.7279,2.7516,2.7497,2.7195,2.7083,2.6774,2.6177,2.5545,2.4894,2.4168,2.2548,2.0944,1.9292,1.8151,1.6856,1.541,1.541,1.541,1.541,1.5921,1.6382,0.0,0.0,0.0,0.0,0.0,0.0,-0.8404,-0.7966,-0.7739,0.0,-0.8108,-0.8191,-0.8191,-0.8311,-0.8374,-0.8335,-0.8412,-0.8534,-0.8677,-0.8305,-0.8116,-0.8392,-0.8122,-0.7899,-0.7899,-0.7899,-0.7899,-0.7899,-0.7899,-0.7975,-0.8109,-0.7912,-0.7723,-0.7579,-0.8431,-0.8995,-0.9231,-0.9936,-1.0046,-0.9636,-0.9322,-0.8783,-0.8042,-0.7859,-0.7443,-0.6876,-0.7231,-0.7341,-0.7245,-0.6944,-0.7416,-0.8316,-0.7731,-0.7001,-0.6143,-0.4986,-0.3218,-0.1235,-0.0044,0.2052,0.4436,0.5766,0.7075,0.8435,1.0246,1.1208,1.2083,1.4122,1.5386,1.6481,1.8101,1.9498,2.0565,2.0959,2.1658,2.2491,2.3524,2.4399,2.5414,2.6999,2.7303,2.7348,2.75,2.7409,2.6985,2.6073,2.5766,2.5652,2.5652,2.5912,2.6346,2.6891,2.7212,2.74,2.74,2.711,2.6893,2.6766,2.5777,2.5067,2.4752,2.2759,2.1151,1.9964,1.8684,1.7457,1.6301,1.569,1.5584,1.5864,1.6652,1.7077,0.0,0.0,0.0,0.0,0.0,0.0,-0.8919,-0.8114,-0.7484,0.0,-0.7812,-0.7812,-0.7812,-0.8066,-0.8258,-0.8197,-0.8137,-0.8324,-0.8988,-0.8455,-0.8229,-0.883,-0.8379,-0.7974,-0.7914,-0.7899,-0.7899,-0.7899,-0.7856,-0.7739,-0.753,-0.727,-0.74,-0.7942,-0.8313,-0.874,-0.9239,-0.9301,-0.9316,-0.9262,-0.8578,-0.8013,-0.7627,-0.7207,-0.6811,-0.6413,-0.6284,-0.6382,-0.66,-0.5915,-0.6476,-0.7746,-0.7085,-0.6192,-0.5173,-0.3938,-0.2343,-0.062,0.0575,0.2518,0.4632,0.5911,0.7466,0.9044,1.0399,1.1747,1.31,1.4492,1.6451,1.8106,1.8185,1.8954,1.9874,2.028,2.124,2.2183,2.2666,2.4191,2.5822,2.6919,2.7172,2.7365,2.7725,2.747,2.6903,2.5955,2.5459,2.5221,2.5297,2.5885,2.6515,2.7184,2.7969,2.8418,2.8246,2.7676,2.7429,2.7655,2.6106,2.5221,2.5221,2.2966,2.137,2.0611,1.9334,1.8313,1.7601,1.6368,1.6148,1.6839,1.7556,1.7787,0.0,0.0,0.0,0.0,0.0,0.0,-0.7191,-0.6924,-0.6835,0.0,-0.7225,-0.7334,-0.7334,-0.7381,-0.7582,-0.8042,-0.7705,-0.7748,-0.8785,-0.8801,-0.8755,-0.889,-0.8785,-0.8499,-0.7944,-0.7899,-0.7899,-0.7899,-0.7561,-0.7254,-0.7042,-0.6828,-0.6855,-0.7134,-0.7621,-0.8015,-0.8266,-0.8703,-0.8773,-0.8505,-0.8031,-0.7598,-0.7207,-0.6811,-0.6397,-0.6021,-0.589,-0.5718,-0.5577,-0.5314,-0.6008,-0.7063,-0.6033,-0.5518,-0.5173,-0.3938,-0.2077,0.0,0.119,0.3481,0.5911,0.6701,0.8134,0.9747,1.0559,1.1747,1.328,1.544,1.7053,1.8224,1.8612,1.9456,2.028,2.0764,2.1278,2.1991,2.3046,2.4039,2.4963,2.5756,2.6417,2.6841,2.6939,2.6873,2.6624,2.6052,2.5524,2.5335,2.5779,2.6118,2.6433,2.6775,2.8066,2.8388,2.7148,2.7454,2.747,2.6945,2.5828,2.5221,2.5221,2.2966,2.137,2.0611,1.9222,1.8181,1.7423,1.8174,1.8688,1.8992,1.9571,1.9983,0.0,0.0,0.0,-0.831,0.0,0.0,0.0,-0.6094,-0.627,-0.6911,-0.6785,-0.6621,-0.6852,-0.7795,-0.8333,-0.7654,-0.8303,-0.882,-0.858,-0.8351,-0.8728,-1.0174,-0.9188,-0.8259,-0.7929,-0.7899,-0.7856,-0.7753,-0.7691,-0.7374,-0.6778,-0.6994,-0.7134,-0.7109,-0.7588,-0.8017,-0.8394,-0.8503,-0.8354,-0.7984,-0.7589,-0.7089,-0.648,-0.6045,-0.5619,-0.5246,-0.5195,-0.508,-0.4937,-0.4496,-0.4843,-0.5626,-0.4721,-0.4422,-0.42,-0.239,-0.0763,0.0776,0.2366,0.4404,0.6481,0.7462,0.8941,1.0415,1.1116,1.2434,1.4147,1.5928,1.7244,1.8185,1.8419,1.9251,2.007,2.0311,2.1116,2.2019,2.2617,2.3974,2.5152,2.5541,2.6201,2.6691,2.6691,2.6691,2.6436,2.5726,2.5615,2.5745,2.6102,2.6477,2.6824,2.7214,2.7943,2.8095,2.7317,2.7249,2.7249,2.7249,2.5942,2.5221,2.5221,2.2966,2.1166,2.0022,1.9994,1.9619,1.8789,2.0393,2.0806,2.0041,2.0657,2.1001,0.0,0.0,0.0,0.0,0.0,-0.7008,0.0,0.0,0.0,-0.6922,-0.6539,0.0,0.0,0.0,0.0,0.0,0.0,0.0,0.0,-0.7474,0.0,-1.081,-0.9129,-0.7768,-0.7768,-0.7768,-0.7695,-0.7545,-0.7726,-0.7508,-0.6701,-0.7222,-0.7484,-0.7332,-0.7617,-0.7999,-0.8462,-0.8117,-0.7801,-0.7472,-0.705,-0.6518,-0.5882,-0.5368,-0.4978,-0.4662,-0.45,-0.439,-0.4259,-0.3574,-0.3561,-0.3843,-0.3365,-0.3234,-0.3099,-0.0977,0.0408,0.149,0.3373,0.511,0.675,0.8234,0.9799,1.1358,1.2101,1.3538,1.5141,1.6441,1.7422,1.8145,1.8341,1.9043,1.9711,1.9818,2.0817,2.1821,2.2016,2.377,2.5293,2.5428,2.6117,2.6691,2.6691,2.6691,2.6385,2.5486,2.5726,2.6065,2.6202,2.6853,2.74,2.7595,2.7883,2.7933,2.754,2.7194,2.7111,2.7431,2.6297,2.5518,2.539,2.3229,2.1218,1.9444,2.0902,2.1223,2.038,2.2209,2.2315,2.0752,2.146,2.1675,0.0,0.0,0.0,0.0,-0.7556,0.0,-0.6722,0.0,-0.6275,-0.6754,0.0,0.0,0.0,0.0,0.0,0.0,0.0,0.0,-0.6066,-0.632,-0.7166,-0.8446,-0.7821,-0.7287,-0.7287,-0.7287,-0.7272,-0.7256,-0.7128,-0.6987,-0.6873,-0.6941,-0.7114,-0.7395,-0.7081,-0.7044,-0.7286,-0.6901,-0.6691,-0.6631,-0.6213,-0.5975,-0.589,-0.5219,-0.4923,-0.4837,-0.4169,-0.366,-0.3222,-0.2808,-0.2414,-0.2093,-0.2006,-0.2313,-0.2615,-0.1293,0.0267,0.196,0.3465,0.5344,0.7273,0.8791,1.0793,1.2822,1.4029,1.4903,1.584,1.7477,1.8027,1.8341,1.9281,1.9603,1.9782,2.0158,2.0376,2.0798,2.1802,2.3095,2.4249,2.4776,2.5882,2.6691,2.6691,2.6691,2.6505,2.5997,2.5961,2.5994,2.604,2.7212,2.7795,2.7097,2.8279,2.8369,2.6543,2.7388,2.7528,2.6283,2.6733,2.6782,2.6134,2.4338,2.2194,1.9646,2.1329,2.1848,2.1057,2.2454,2.2765,2.2106,2.2652,2.2915,0.0,0.0,0.0,0.0,0.0,0.0,-0.6933,0.0,-0.6445,0.0,0.0,0.0,0.0,0.0,0.0,0.0,-0.7743,0.0,0.0,0.0,-0.6295,0.0,0.0,0.0,-0.799,-0.7516,-0.7195,-0.7195,-0.7187,-0.7131,-0.6964,-0.7169,-0.7178,-0.6898,-0.6943,-0.6917,-0.6751,-0.6579,-0.6397,-0.616,-0.5712,-0.5376,-0.5112,-0.4445,-0.4136,-0.412,-0.3377,-0.2917,-0.268,-0.1893,-0.1451,-0.1251,-0.0895,-0.1117,-0.147,0.0089,0.151,0.2945,0.4669,0.6471,0.8346,1.0178,1.1962,1.3558,1.4411,1.5096,1.5796,1.6896,1.7626,1.8224,1.865,1.9244,1.9747,1.9909,2.0415,2.1124,2.2039,2.3179,2.4294,2.528,2.594,2.6367,2.6657,2.6691,2.6556,2.6085,2.6227,2.6447,2.6627,2.7827,2.8381,2.7668,2.8904,2.9121,2.746,2.7727,2.7891,2.776,2.746,2.6682,2.5274,2.4183,2.2591,2.0473,2.1654,2.2095,2.1618,2.2578,2.2952,2.2799,2.3025,2.3078,-0.8118,0.0,0.0,0.0,0.0,0.0,0.0,0.0,0.0,0.0,0.0,0.0,0.0,0.0,0.0,0.0,0.0,-0.7876,0.0,-0.6591,0.0,0.0,0.0,0.0,0.0,-0.7561,-0.7034,-0.7034,-0.7073,-0.7027,-0.6957,-0.7108,-0.7052,-0.6684,-0.6731,-0.6631,-0.6336,-0.6213,-0.5975,-0.554,-0.526,-0.4885,-0.4482,-0.3939,-0.3614,-0.344,-0.28,-0.2387,-0.2011,-0.1236,-0.0806,-0.0583,0.0,0.0,-0.0182,0.1136,0.255,0.4034,0.5712,0.7741,0.9805,1.1299,1.2831,1.4143,1.456,1.5242,1.5996,1.674,1.7504,1.8185,1.8458,1.9132,1.969,1.969,2.0425,2.132,2.2048,2.3205,2.4478,2.5558,2.5997,2.6297,2.6657,2.6691,2.6556,2.6085,2.6401,2.679,2.7057,2.8065,2.8598,2.8216,2.8909,2.9008,2.8021,2.7976,2.8352,2.929,2.8233,2.6798,2.5121,2.445,2.331,2.1697,2.2259,2.2427,2.2261,2.2823,2.3213,2.3364,2.3153,2.3165,0.0,0.0,0.0,-0.7416,0.0,0.0,0.0,0.0,-0.6155,0.0,0.0,0.0,0.0,0.0,0.0,0.0,0.0,0.0,0.0,0.0,0.0,0.0,0.0,0.0,0.0,-0.7091,-0.6621,-0.6617,-0.6388,-0.6394,-0.6785,-0.644,-0.6512,-0.7073,-0.6328,-0.5944,-0.5913,-0.5522,-0.5112,-0.4634,-0.4807,-0.4675,-0.4207,-0.4052,-0.3689,-0.3115,-0.2832,-0.2049,-0.0938,-0.0895,-0.0538,0.0045,0.0627,0.0918,0.1045,0.1093,0.2802,0.5189,0.6142,0.8798,1.1715,1.1765,1.311,1.4652,1.4698,1.5522,1.6667,1.7747,1.8066,1.8341,1.9369,1.969,1.969,1.969,2.0213,2.0887,2.1584,2.3032,2.4409,2.5077,2.6016,2.6691,2.6691,2.6691,2.6556,2.6085,2.6401,2.679,2.7057,2.769,2.8159,2.8281,2.7879,2.7579,2.7502,2.8053,2.8903,3.0178,2.899,2.7727,2.6492,2.5706,2.4736,2.3339,2.3165,2.3053,2.3078,2.3078,2.3427,2.3954,2.3389,2.3439,-0.685,-0.6544,-0.6379,-0.6967,0.0,0.0,0.0,0.0,0.0,0.0,0.0,0.0,0.0,0.0,0.0,0.0,0.0,0.0,0.0,0.0,0.0,0.0,0.0,0.0,0.0,0.0,-0.623,-0.6141,-0.6304,-0.6356,-0.6279,-0.6337,-0.6382,-0.632,-0.6037,-0.5634,-0.5042,-0.4922,-0.4683,-0.4332,-0.4137,-0.3805,-0.3332,-0.3122,-0.2675,-0.2097,-0.1666,-0.1297,-0.085,-0.0045,0.0403,0.0674,0.1337,0.2235,0.3129,0.3047,0.4014,0.5728,0.843,1.0406,1.1963,1.2841,1.3841,1.4789,1.5186,1.5876,1.6637,1.7394,1.7827,1.8263,1.8968,1.9442,1.969,1.969,2.0543,2.1425,2.165,2.2829,2.407,2.5019,2.5486,2.5944,2.659,2.6691,2.6657,2.647,2.659,2.6894,2.7494,2.823,2.876,2.8862,2.9535,2.9619,2.8815,2.9302,2.9632,2.9585,2.9232,2.8632,2.7733,2.6213,2.4968,2.3989,2.3825,2.3703,2.3703,2.4079,2.4356,2.4544,2.4343,2.4356,-0.6268,-0.6022,-0.5985,-0.654,-0.6402,0.0,-0.6594,0.0,-0.6716,0.0,0.0,0.0,0.0,0.0,0.0,0.0,0.0,0.0,0.0,-0.6928,0.0,0.0,0.0,0.0,0.0,-0.6494,-0.6072,-0.6205,-0.618,-0.6154,-0.6162,-0.6075,-0.6002,-0.5906,-0.5602,-0.5163,-0.4602,-0.4487,-0.4306,-0.3995,-0.359,-0.3173,-0.2756,-0.2391,-0.193,-0.1333,-0.0795,-0.0447,-0.0179,0.0804,0.1206,0.1302,0.2328,0.3333,0.4182,0.4136,0.5367,0.7406,1.0473,1.1944,1.2696,1.3758,1.4514,1.5096,1.5499,1.6008,1.6637,1.7394,1.7827,1.8263,1.9006,1.9442,1.975,1.9989,2.0902,2.1754,2.1994,2.3013,2.4158,2.5028,2.5335,2.5689,2.6332,2.6809,2.6996,2.6742,2.6911,2.7298,2.7861,2.8394,2.8794,2.8941,2.9513,2.9805,2.9406,2.9935,3.0179,2.9935,2.9589,2.9178,2.8732,2.6799,2.5453,2.4738,2.4515,2.4289,2.4004,2.4556,2.4921,2.5096,2.5096,2.5209]},{"header":{"parameterUnit":"m.s-1","parameterCategory":1,"la1":30.6,"la2":29.2853,"lo1":-89.7004,"lo2":-87.6739,"dy":0.0162,"dx":0.0183,"nx":112,"ny":82,"refTime":"2023-09-18T12:00:00:Z","depth":0,"parameterNumber":3,"parameterNumberName":"V-component_of_WINDS"},"data":[0.0,0.0,0.0,0.0,0.0,0.0,0.0,0.0,0.0,0.0,0.0,0.0,0.0,0.0,0.0,0.0,0.0,0.0,0.0,0.0,0.0,0.0,0.0,0.0,0.0,0.0,0.0,0.0,0.0,0.0,0.0,0.0,0.0,0.0,0.0,0.0,0.0,0.0,0.0,0.0,0.0,0.0,0.0,0.0,0.0,0.0,0.0,0.0,0.0,0.0,0.0,0.0,0.0,0.0,0.0,0.0,0.0,0.0,0.0,0.0,0.0,0.0,0.0,0.0,0.0,0.0,0.0,0.0,0.0,0.0,0.0,0.0,0.0,0.0,0.0,0.0,0.0,0.0,0.0,0.0,0.0,0.0,0.0,0.0,0.0,0.0,0.0,0.0,0.0,0.0,1.5109,1.6914,1.7569,1.7598,1.6743,1.6553,1.5792,1.4256,0.0,0.0,0.0,0.0,0.0,0.0,0.0,0.0,0.0,0.0,0.0,0.0,0.0,0.0,0.0,0.0,0.0,0.0,0.0,0.0,0.0,0.0,0.0,0.0,0.0,0.0,0.0,0.0,0.0,0.0,0.0,0.0,0.0,0.0,0.0,0.0,0.0,0.0,0.0,0.0,0.0,0.0,0.0,0.0,0.0,0.0,0.0,0.0,0.0,0.0,0.0,0.0,0.0,0.0,0.0,0.0,0.0,0.0,0.0,0.0,0.0,0.0,0.0,0.0,0.0,0.0,0.0,0.0,0.0,0.0,0.0,0.0,0.0,0.0,0.0,0.0,0.0,0.0,0.0,0.0,0.0,0.0,0.0,0.0,0.0,0.0,0.0,0.0,0.0,0.0,0.0,0.0,0.0,0.0,0.0,0.0,0.0,0.0,0.0,0.0,0.0,0.0,0.0,0.0,1.4873,1.6128,1.6992,1.7275,1.6777,1.5723,1.4831,1.4188,0.0,0.0,0.0,0.0,0.0,0.0,0.0,0.0,0.0,0.0,0.0,0.0,0.0,0.0,0.0,0.0,0.0,0.0,0.0,0.0,0.0,0.0,0.0,0.0,0.0,0.0,0.0,0.0,0.0,0.0,0.0,0.0,0.0,0.0,0.0,0.0,0.0,0.0,0.0,0.0,0.0,0.0,0.0,0.0,0.0,0.0,0.0,0.0,0.0,0.0,0.0,0.0,0.0,0.0,0.0,0.0,0.0,0.0,0.0,0.0,0.0,0.0,0.0,0.0,0.0,0.0,0.0,0.0,0.0,0.0,0.0,0.0,0.0,0.0,0.0,0.0,0.0,0.0,0.0,0.0,0.0,0.0,0.0,0.0,0.0,0.0,0.0,0.0,0.0,0.0,0.0,0.0,0.0,0.0,0.0,0.0,0.0,0.0,0.0,0.0,0.0,0.0,0.0,1.4841,1.5628,1.6077,1.6855,1.7012,1.6094,1.4907,1.4107,1.3786,1.3014,0.0,0.0,0.0,0.0,0.0,0.0,0.0,0.0,0.0,0.0,0.0,0.0,0.0,0.0,0.0,0.0,0.0,0.0,0.0,0.0,0.0,0.0,0.0,0.0,0.0,0.0,0.0,0.0,0.0,0.0,0.0,0.0,0.0,0.0,0.0,0.0,0.0,0.0,0.0,0.0,0.0,0.0,0.0,0.0,0.0,0.0,0.0,0.0,0.0,0.0,0.0,0.0,0.0,0.0,0.0,0.0,0.0,0.0,0.0,0.0,0.0,0.0,0.0,0.0,0.0,0.0,0.0,0.0,0.0,0.0,0.0,0.0,0.0,0.0,0.0,0.0,0.0,0.0,0.0,0.0,0.0,0.0,0.0,0.0,0.0,0.0,0.0,0.0,0.0,0.0,0.0,0.0,0.0,0.0,0.0,0.0,0.0,0.0,0.0,0.0,0.0,0.0,1.5295,1.605,1.6066,1.6582,1.6441,1.5254,1.4082,1.339,1.3269,1.2332,0.0,0.0,0.0,0.0,0.0,0.0,0.0,0.0,0.0,0.0,0.0,0.0,0.0,0.0,0.0,0.0,0.0,0.0,0.0,0.0,0.0,0.0,0.0,0.0,0.0,0.0,0.0,0.0,0.0,0.0,0.0,0.0,0.0,0.0,0.0,0.0,0.0,0.0,0.0,0.0,0.0,0.0,0.0,0.0,0.0,0.0,0.0,0.0,0.0,0.0,0.0,0.0,0.0,0.0,0.0,0.0,0.0,0.0,0.0,0.0,0.0,0.0,0.0,0.0,0.0,0.0,0.0,0.0,0.0,0.0,0.0,0.0,0.0,0.0,0.0,0.0,0.0,0.0,0.0,0.0,0.0,0.0,0.0,0.0,0.0,0.0,0.0,0.0,0.0,0.0,0.0,0.0,0.0,0.0,0.0,0.0,0.0,0.0,0.0,0.0,0.0,0.0,1.4978,1.5204,1.6027,1.5752,1.5273,1.4519,1.3143,1.2377,1.2565,1.195,0.0,0.0,0.0,0.0,0.0,0.0,0.0,0.0,0.0,0.0,0.0,0.0,0.0,0.0,0.0,0.0,0.0,0.0,0.0,0.0,0.0,0.0,0.0,0.0,0.0,0.0,0.0,0.0,0.0,0.0,0.0,0.0,0.0,0.0,0.0,0.0,0.0,0.0,0.0,0.0,0.0,0.0,0.0,0.0,0.0,0.0,0.0,0.0,0.0,0.0,0.0,0.0,0.0,0.0,0.0,0.0,0.0,0.0,0.0,0.0,0.0,0.0,0.0,0.0,0.0,0.0,0.0,0.0,0.0,0.0,0.0,0.0,0.0,0.0,0.0,0.0,0.0,0.0,0.0,0.0,0.0,0.0,0.0,0.0,0.0,0.0,0.0,0.0,0.0,0.0,0.0,0.0,0.0,0.0,0.0,0.0,0.0,0.0,0.0,0.0,0.0,0.0,1.4385,1.4434,0.0,1.4524,1.393,1.2689,1.1515,1.0998,1.1422,0.0,0.0,0.0,0.0,0.0,0.0,0.0,0.0,0.0,0.0,0.0,0.0,0.0,0.0,0.0,0.0,0.0,0.0,0.0,0.0,0.0,0.0,0.0,0.0,0.0,0.0,0.0,0.0,0.0,0.0,0.0,0.0,0.0,0.0,0.0,0.0,0.0,0.0,0.0,0.0,0.0,0.0,0.0,0.0,0.0,0.0,0.0,0.0,0.0,0.0,0.0,0.0,0.0,0.0,0.0,0.0,0.0,0.0,0.0,0.0,0.0,0.0,0.0,0.0,0.0,0.0,0.0,0.0,0.0,0.0,0.0,0.0,0.0,0.0,0.0,0.0,0.0,0.0,0.0,0.0,0.0,0.0,0.0,0.0,0.0,0.0,0.0,0.0,0.0,0.0,0.0,0.0,0.0,0.0,0.0,0.0,0.0,0.0,0.0,0.0,0.0,0.0,1.3619,1.3936,1.3932,0.0,1.3617,1.2859,1.162,1.0412,0.9917,1.0442,0.0,0.0,0.0,0.0,0.0,0.0,0.0,0.0,0.0,0.0,0.0,0.0,0.0,0.0,0.0,0.0,0.0,0.0,0.0,0.0,0.0,0.0,0.0,0.0,0.0,0.0,0.0,0.0,0.0,0.0,0.0,0.0,0.0,0.0,0.0,0.0,0.0,0.0,0.0,0.0,0.0,0.0,0.0,0.0,0.0,0.0,0.0,0.0,0.0,0.0,0.0,0.0,0.0,0.0,0.0,0.0,0.0,0.0,0.0,0.0,0.0,0.0,0.0,0.0,0.0,0.0,0.0,0.0,0.0,0.0,0.0,0.0,0.0,0.0,0.0,0.0,0.0,0.0,0.0,0.0,0.0,0.0,0.0,0.0,0.0,0.0,0.0,0.0,0.0,0.0,0.0,0.0,0.0,0.0,0.0,0.0,0.0,0.0,0.0,0.0,0.0,0.0,1.3173,1.3506,1.3662,1.4029,1.3103,1.2228,1.1517,0.9998,0.9265,0.0,0.0,0.0,0.0,0.0,0.0,0.0,0.0,0.0,0.0,0.0,0.0,0.0,0.0,0.0,0.0,0.0,0.0,0.0,0.0,0.0,0.0,0.0,0.0,0.0,0.0,0.0,0.0,0.0,0.0,0.0,0.0,0.0,0.0,0.0,0.0,0.0,0.0,0.0,0.0,0.0,0.0,0.0,0.0,0.0,0.0,0.0,0.0,0.0,0.0,0.0,0.0,0.0,0.0,0.0,0.0,0.0,0.0,0.0,0.0,0.0,0.0,0.0,0.0,0.0,0.0,0.0,0.0,0.0,0.0,0.0,0.0,0.0,0.0,0.0,0.0,0.0,0.0,0.0,0.0,0.0,0.0,0.0,0.0,0.0,0.0,0.0,0.0,0.0,0.0,0.0,0.0,0.0,0.0,0.0,0.0,0.0,0.0,0.0,0.0,0.0,0.0,0.0,1.2382,1.2499,1.2471,1.2896,1.199,1.1038,1.0366,0.9041,0.8256,0.8311,0.0,0.0,0.0,0.0,0.0,0.0,0.0,0.0,0.0,0.0,0.0,0.0,0.0,0.0,0.0,0.0,0.0,0.0,0.0,0.0,0.0,0.0,0.0,0.0,0.0,0.0,0.0,0.0,0.0,0.0,0.0,0.0,0.0,0.0,0.0,0.0,0.0,0.0,0.0,0.0,0.0,0.0,0.0,0.0,0.0,0.0,0.0,0.0,0.0,0.0,0.0,0.0,0.0,0.0,0.0,0.0,0.0,0.0,0.0,0.0,0.0,0.0,0.0,0.0,0.0,0.0,0.0,0.0,0.0,0.0,0.0,0.0,0.0,0.0,0.0,0.0,0.0,0.0,0.0,0.0,0.0,0.0,0.0,0.0,0.0,0.0,0.0,0.0,0.0,0.0,0.0,0.0,0.0,0.0,0.0,0.0,0.0,0.0,0.0,0.0,0.0,0.0,1.1841,1.1977,1.2013,1.2609,1.1523,1.0669,1.021,0.8791,0.783,0.7645,0.0,0.0,0.0,0.0,0.0,0.0,0.0,0.0,0.0,0.0,0.0,0.0,0.0,0.0,0.0,0.0,0.0,0.0,0.0,0.0,0.0,0.0,0.0,0.0,0.0,0.0,0.0,0.0,0.0,0.0,0.0,0.0,0.0,0.0,0.0,0.0,0.0,0.0,0.0,0.0,0.0,0.0,0.0,0.0,0.0,0.0,0.0,0.0,0.0,0.0,0.0,0.0,0.0,0.0,0.0,0.0,0.0,0.0,0.0,0.0,0.0,0.0,0.0,0.0,0.0,0.0,0.0,0.0,0.0,0.0,0.0,0.0,0.0,0.0,0.0,0.0,0.0,0.0,0.0,0.0,0.0,0.0,0.0,0.0,0.0,0.0,0.0,0.0,0.0,0.0,0.0,0.0,0.0,0.0,0.0,0.0,0.0,0.0,0.0,0.0,0.0,0.0,1.114,1.1616,1.1981,1.2725,1.1584,1.0813,1.0813,0.9051,0.7834,0.752,0.0,0.0,0.0,0.0,0.0,0.0,0.0,0.0,0.0,0.0,0.0,0.0,0.0,0.0,0.0,0.0,0.0,0.0,0.0,0.0,0.0,0.0,0.0,0.0,0.0,0.0,0.0,0.0,0.0,0.0,0.0,0.0,0.0,0.0,0.0,0.0,0.0,0.0,0.0,0.0,0.0,0.0,0.0,0.0,0.0,0.0,0.0,0.0,0.0,0.0,0.0,0.0,0.0,0.0,0.0,0.0,0.0,0.0,0.0,0.0,-0.8318,0.0,0.0,0.0,0.0,0.0,0.0,0.0,0.0,0.0,0.0,0.0,0.0,0.0,0.0,0.0,0.0,0.0,0.0,0.0,0.0,0.0,0.0,0.0,0.0,0.0,0.0,0.0,0.0,0.0,0.0,0.0,0.0,0.0,0.0,0.0,0.0,0.0,0.0,0.0,0.0,0.0,0.92,1.0332,1.1266,1.1972,1.1266,1.0813,1.0813,0.9263,0.7998,0.7386,0.7541,0.0,0.0,0.0,0.0,0.0,0.0,0.0,0.0,0.0,0.0,0.0,0.0,0.0,0.0,0.0,0.0,0.0,0.0,0.0,0.0,0.0,0.0,0.0,0.0,0.0,0.0,0.0,0.0,0.0,0.0,0.0,0.0,0.0,0.0,0.0,0.0,0.0,0.0,0.0,0.0,0.0,0.0,0.0,0.0,0.0,0.0,0.0,0.0,0.0,0.0,0.0,0.0,0.0,0.0,0.0,0.0,0.0,0.0,0.0,0.0,-0.8417,0.0,0.0,0.0,0.0,0.0,0.0,0.0,0.0,0.0,0.0,0.0,0.0,0.0,0.0,0.0,0.0,0.0,0.0,0.0,0.0,0.0,0.0,0.0,0.0,0.0,0.0,0.0,0.0,0.0,0.0,0.0,0.0,0.0,0.0,0.0,0.0,0.0,0.0,0.0,0.0,0.858,0.9629,1.0568,1.1266,1.0712,1.0312,1.0312,0.9127,0.8054,0.7264,0.7315,0.0,0.0,0.0,0.0,0.0,0.0,0.0,0.0,0.0,0.0,0.0,0.0,0.0,0.0,0.0,0.0,0.0,0.0,0.0,0.0,0.0,0.0,0.0,0.0,0.0,0.0,0.0,0.0,0.0,0.0,0.0,0.0,0.0,0.0,0.0,0.0,0.0,0.0,0.0,0.0,0.0,0.0,0.0,0.0,0.0,0.0,0.0,0.0,0.0,0.0,0.0,0.0,0.0,-1.4971,-1.4357,-1.3038,-1.3104,-1.167,-0.9167,-0.9618,-0.912,-0.8006,-0.8351,0.0,0.0,0.0,0.0,0.0,0.0,0.0,0.0,0.0,0.0,0.0,0.0,0.0,0.0,0.0,0.0,0.0,0.0,0.0,0.0,0.0,0.0,0.0,0.0,-2.1749,-2.1888,-2.0724,0.0,0.0,0.0,0.0,0.0,0.0,0.0,0.0,0.0,0.0,0.0,0.8143,0.9193,1.0012,1.0568,1.0115,0.9814,0.9814,0.898,0.8097,0.7314,0.7086,0.6913,0.0,0.0,0.0,0.0,0.0,0.0,0.0,0.0,0.0,0.0,0.0,0.0,0.0,0.0,0.0,0.0,0.0,0.0,0.0,0.0,0.0,0.0,0.0,0.0,0.0,0.0,0.0,0.0,0.0,0.0,0.0,0.0,-0.621,-0.8033,0.0,0.0,0.0,0.0,0.0,0.0,0.0,0.0,0.0,0.0,0.0,0.0,0.0,-1.4766,-1.5078,-1.5566,-1.5644,-1.5332,-1.5713,-1.5041,-1.3353,-1.3672,-1.2336,-0.9788,-1.0154,0.0,-0.7377,-0.8854,0.0,0.0,0.0,0.0,0.0,0.0,0.0,0.0,0.0,0.0,0.0,0.0,0.0,0.0,0.0,0.0,0.0,0.0,0.0,0.0,0.0,0.0,-1.991,-2.036,-2.0918,-2.1475,0.0,-2.2012,-2.1719,-2.0714,-1.91,0.0,0.0,0.0,0.0,0.0,0.0,0.0,0.6509,0.8494,0.9814,0.9917,0.9865,0.9814,0.9814,0.9176,0.8466,0.7819,0.778,0.7642,0.7392,0.6127,0.0,0.0,0.0,0.0,0.0,0.0,0.0,0.0,0.0,0.0,0.0,0.0,0.0,0.0,0.0,0.0,0.0,0.0,0.0,0.0,0.0,0.0,0.0,0.0,0.0,0.0,0.0,0.0,0.0,-0.5909,-0.7412,-0.9407,-1.0082,-1.0417,0.0,0.0,0.0,0.0,0.0,0.0,0.0,0.0,0.0,-1.5971,-1.666,-1.7122,-1.7318,-1.7791,-1.7738,-1.7227,-1.7412,-1.6548,-1.475,-1.4915,-1.3013,-0.9588,-1.0352,-0.8998,-0.6515,-0.7964,-0.7725,-0.6407,0.0,0.0,0.0,0.0,-0.6506,-0.7079,-0.7612,-0.7699,-0.7527,-0.7421,0.0,0.0,0.0,0.0,0.0,0.0,0.0,0.0,0.0,0.0,-2.0928,-2.1596,-2.2383,-2.3154,-2.3698,-2.3595,-2.3259,0.0,-2.1611,-1.9745,-1.6575,0.0,0.0,0.0,0.0,0.4042,0.6607,0.7917,0.8922,0.971,0.9814,0.9814,0.9814,0.951,0.9022,0.821,0.8023,0.7789,0.7527,0.6549,0.6429,0.0,0.0,0.0,0.0,0.0,0.0,0.0,0.0,0.0,0.0,0.0,0.0,0.0,0.0,0.0,0.0,0.0,0.0,0.0,0.0,0.0,0.0,0.0,0.0,0.0,0.0,0.0,0.0,-0.7784,-0.9474,-1.0948,-1.0863,-1.0447,0.0,0.0,0.0,0.0,0.0,0.0,-1.4739,-1.582,-1.6857,-1.7719,-1.8638,-1.9112,-1.909,-1.9607,-1.9503,-1.8799,-1.8799,-1.7856,-1.6139,-1.6012,-1.377,-1.004,-1.0402,-0.8921,-0.6397,-0.7432,-0.7251,-0.6232,-0.5961,-0.5578,-0.5253,-0.5667,-0.6263,-0.7024,-0.8054,-0.851,-0.8682,-0.8934,-0.8428,-0.783,-0.8573,0.0,0.0,0.0,0.0,-1.6816,-1.8517,-2.0379,-2.2006,-2.2905,-2.3839,-2.4601,-2.4949,-2.4701,-2.43,0.0,-2.3172,-2.1785,-1.9286,0.0,0.0,0.0,0.0,0.2847,0.6493,0.7374,0.8243,0.9658,0.9666,0.9614,0.9762,0.9666,0.9233,0.844,0.8096,0.7789,0.7527,0.6759,0.6618,0.7186,0.0,0.0,0.0,0.0,0.0,0.0,0.0,0.0,0.0,0.0,0.0,0.0,0.0,0.0,0.0,0.0,0.0,0.0,0.0,0.0,0.0,0.0,0.0,0.0,0.0,0.0,0.0,0.0,0.0,-1.2073,-1.1907,0.0,0.0,0.0,0.0,-1.4001,-1.4484,-1.521,-1.6519,-1.7061,-1.7686,-1.8546,-1.9486,-1.9988,-1.985,-2.0473,-2.0206,-1.9248,-1.9248,-1.8518,-1.7117,-1.6495,-1.4666,-1.1951,-1.0423,-0.8937,-0.7723,-0.8198,-0.7578,-0.6379,-0.6078,-0.594,-0.5944,-0.6002,-0.5898,-0.595,-0.6996,-0.7299,-0.719,-0.7104,-0.7328,-0.7824,-0.8482,-0.9673,0.0,0.0,-1.5195,-1.7276,-1.8914,-2.0951,-2.2748,-2.3551,-2.4275,-2.4846,-2.5056,-2.5022,-2.4729,0.0,-2.2792,-2.1373,-1.9574,0.0,-1.276,-0.9981,-0.405,0.1444,0.5211,0.6865,0.8243,0.9658,0.9211,0.9113,0.9762,0.9211,0.8736,0.844,0.8096,0.7789,0.7527,0.6681,0.6308,0.6452,0.635,0.0,0.0,0.0,0.0,0.0,0.0,0.0,0.0,0.0,0.0,0.0,0.0,0.0,0.0,0.0,0.0,0.0,0.0,0.0,0.0,0.0,0.0,0.0,0.0,0.0,0.0,0.0,0.0,-1.1502,-1.2382,0.0,-1.1114,-1.2228,-1.3052,-1.3099,-1.4769,-1.5999,-1.649,-1.8107,-1.9429,-2.037,-2.1011,-2.1313,-2.1271,-2.149,-2.0977,-1.9697,-1.9697,-1.8794,-1.7189,-1.6348,-1.4556,-1.2084,-1.0273,-0.8837,-0.7774,-0.7262,-0.6324,-0.5176,-0.4861,-0.4777,-0.4842,-0.4757,-0.5498,-0.6619,-0.6914,-0.7182,-0.7208,-0.6446,-0.6541,-0.7047,-0.7455,-0.8758,-1.0679,-1.3367,-1.546,-1.7514,-2.0203,-2.1832,-2.3017,-2.3963,-2.4587,-2.5007,-2.507,-2.4956,-2.4625,-2.403,-2.2793,-2.1414,-2.0123,-1.6693,-1.3598,-1.1884,-0.5961,0.0208,0.5571,0.6704,0.7706,0.9607,0.9961,1.002,0.9814,0.9961,0.9666,0.8709,0.8196,0.7882,0.7769,0.7069,0.6898,0.7346,0.7631,0.8208,0.0,0.0,0.0,0.0,0.0,0.0,0.0,0.0,0.0,0.0,0.0,0.0,0.0,0.0,0.0,0.0,0.0,0.0,0.0,0.0,0.0,0.0,0.0,0.0,0.0,0.0,-1.1344,-1.1142,-1.2473,-1.2841,-1.1538,-1.252,-1.3234,-1.3267,-1.5001,-1.6418,-1.7215,-1.8741,-2.0107,-2.1087,-2.173,-2.1886,-2.1517,-2.1741,-2.1138,-1.9912,-1.9775,-1.9024,-1.762,-1.6729,-1.5332,-1.3598,-1.1273,-0.9873,-0.912,-0.7472,-0.587,-0.447,-0.3891,-0.3297,-0.2817,-0.3067,-0.3783,-0.4795,-0.562,-0.609,-0.6204,-0.5735,-0.5769,-0.6145,-0.7125,-0.869,-1.0751,-1.3782,-1.5983,-1.8068,-2.076,-2.2304,-2.3361,-2.4258,-2.4745,-2.5002,-2.4999,-2.4588,-2.4082,-2.3617,-2.2549,-2.1446,-2.0517,-1.7,-1.3891,-1.2743,-0.6851,-0.0523,0.5151,0.6303,0.7439,0.9547,1.0218,1.0261,0.9814,1.0218,0.9969,0.8857,0.8257,0.7928,0.8076,0.7719,0.7731,0.8235,0.8815,0.9683,1.0858,0.0,0.0,0.0,0.0,0.0,0.0,0.0,0.0,0.0,0.0,0.0,0.0,0.0,0.0,0.0,0.0,0.0,0.0,0.0,0.0,0.0,0.0,0.0,-0.9484,-1.0566,-1.1317,-1.1184,-1.2131,-1.2438,-1.1577,-1.2271,-1.3348,-1.4647,-1.5132,-1.6325,-1.878,-1.8957,-1.9441,-2.0489,-2.1441,-2.1517,-2.0644,-2.1077,-2.0851,-1.9902,-1.9473,-1.9043,-1.8562,-1.7611,-1.6946,-1.6419,-1.3526,-1.2225,-1.2004,-0.9049,-0.6594,-0.457,-0.3505,-0.1871,-0.0234,-0.133,-0.1001,-0.0373,-0.3048,-0.3899,-0.3908,-0.4744,-0.483,-0.5111,-0.7656,-0.9597,-1.1532,-1.4365,-1.6795,-1.8954,-2.0647,-2.2371,-2.3786,-2.4469,-2.4704,-2.4807,-2.4797,-2.3995,-2.3141,-2.2691,-2.1993,-2.1333,-2.0734,-1.7029,-1.3682,-1.2433,-0.6519,0.0,0.3818,0.5671,0.7439,0.9562,0.9777,0.9829,0.9777,0.9777,0.9524,0.8857,0.8263,0.8076,0.8363,0.8492,0.8648,0.8966,0.9848,1.1196,1.312,0.0,0.0,0.0,0.0,0.0,0.0,0.0,0.0,0.0,0.0,0.0,0.0,0.0,0.0,0.0,0.0,0.0,0.0,0.0,0.0,0.0,0.0,-1.0554,-1.0321,-1.1142,-1.1841,-1.1972,-1.2835,-1.33,-1.306,-1.3253,-1.3595,-1.4221,-1.5114,-1.5853,-1.6593,-1.8141,-1.9116,-1.9441,-2.0459,-2.0857,-2.0566,-2.043,-2.0202,-1.9902,-1.917,-1.875,-1.8553,-1.7296,-1.6675,-1.6489,-1.4221,-1.286,-1.1998,-0.9761,-0.7643,-0.5662,-0.4675,-0.3433,-0.234,-0.3437,-0.3953,-0.4138,-0.4066,-0.3901,-0.3717,-0.3336,-0.352,-0.4336,-0.6561,-0.9227,-1.2158,-1.5635,-1.8385,-2.0778,-2.2798,-2.3804,-2.4429,-2.4859,-2.4941,-2.4876,-2.4576,-2.3724,-2.2876,-2.2356,-2.0781,-1.9521,-1.9349,-1.6578,-1.3503,-1.0945,-0.6201,0.0,0.3758,0.5671,0.7296,0.9187,0.9857,0.9965,0.9432,0.9857,0.9763,0.8871,0.8457,0.829,0.837,0.8656,0.9407,1.0739,1.1338,1.2314,0.0,0.0,0.0,0.0,0.0,0.0,0.0,0.0,0.0,0.0,0.0,0.0,0.0,0.0,0.0,0.0,0.0,0.0,0.0,0.0,0.0,0.0,-1.1281,-1.1202,-1.1276,-1.1837,-1.2345,-1.2645,-1.3253,-1.3559,-1.3559,-1.3754,-1.3901,-1.4075,-1.465,-1.522,-1.5696,-1.7334,-1.8399,-1.8713,-1.9915,-2.0478,-2.0293,-1.9863,-1.9736,-1.9902,-1.8867,-1.8564,-1.8887,-1.7697,-1.7301,-1.7311,-1.5587,-1.4308,-1.3324,-1.131,-0.899,0.0,0.0,0.0,0.0,0.0,-0.4017,-0.49,-0.3856,-0.3409,-0.3329,-0.3201,-0.3421,-0.4367,-0.7405,-1.0123,-1.2969,-1.6738,-1.9373,-2.1472,-2.3475,-2.4318,-2.471,-2.5037,-2.4911,-2.4604,-2.4063,-2.3081,-2.2112,-2.1381,-1.9737,0.0,-1.7891,-1.5536,-1.2926,-1.0515,-0.5958,-0.1288,0.2932,0.5325,0.7236,0.8875,0.9685,0.9792,0.9112,0.9685,0.0,0.0,0.0,0.8664,0.9237,0.9794,0.0,0.0,0.0,1.301,1.3869,1.3627,0.0,0.0,1.3924,1.41,0.0,0.0,0.0,0.0,0.0,0.0,0.0,0.0,0.0,0.0,0.0,0.0,0.0,0.0,0.0,0.0,-1.175,-1.1527,-1.1993,-1.2285,-1.268,-1.3133,-1.3226,-1.3391,-1.3512,-1.3834,-1.4001,-1.4035,-1.4068,-1.4489,-1.5462,0.0,0.0,0.0,0.0,-2.0371,-1.9829,-1.9412,-1.9338,-1.9583,-1.8366,-1.8254,-1.9102,-1.8238,-1.8114,-1.8475,-1.7344,-1.6184,-1.5092,-1.3208,-1.0587,-0.7495,-0.5449,-0.3663,-0.2092,-0.1884,-0.2832,-0.406,-0.313,0.0,0.0,-0.3613,-0.3936,-0.476,-0.9005,-1.1686,-1.4074,-1.7791,-2.0074,-2.1737,-2.3388,-2.427,-2.4791,-2.5024,-2.4721,-2.4151,-2.341,-2.2341,-2.1175,-2.0167,-1.8943,-1.772,-1.6591,-1.4348,-1.2167,-1.0623,-0.5688,-0.1087,0.1844,0.4779,0.722,0.8692,0.0,0.0,0.8904,0.9411,0.9449,0.8864,0.8666,0.9147,1.0488,1.134,1.2444,1.3768,1.3405,1.3405,1.3815,1.3394,1.3058,1.2881,1.2861,1.2822,0.0,0.0,0.0,0.0,0.0,0.0,0.0,0.0,0.0,0.0,0.0,0.0,0.0,0.0,0.0,-1.0609,-1.1079,-1.1292,-1.0708,-1.0701,-1.126,-1.2725,-1.2182,-1.2066,-1.3187,-1.3347,-1.3474,-1.3707,-1.3948,-1.4166,-1.4412,-1.6281,-1.739,-1.7476,-1.9474,-2.0119,-1.9164,-1.876,-1.8288,-1.778,0.0,0.0,-1.7989,-1.7433,-1.7511,-1.8144,-1.818,-1.7085,-1.5108,-1.4233,-1.1496,-0.7536,-0.5535,-0.4999,-0.536,-0.5043,-0.515,-0.5293,-0.4178,-0.3295,-0.2744,-0.2878,-0.3403,-0.4736,-0.8497,-1.2193,0.0,-1.8897,-2.1645,-2.3719,-2.4266,-2.4717,-2.5026,-2.5026,-2.4549,-2.3871,-2.3129,-2.2192,-2.1146,-1.9897,-1.8806,-1.772,-1.6591,-1.4348,-1.2031,-1.0092,-0.5288,-0.0947,0.1848,0.493,0.7404,0.8987,0.9261,0.9261,0.9152,0.9261,0.916,0.8824,0.9259,1.0117,1.1451,1.172,1.2444,1.3768,1.3731,1.3731,1.3815,1.3731,1.3423,1.2881,1.291,1.2871,0.0,0.0,0.0,0.0,0.0,0.0,0.0,0.0,0.0,0.0,0.0,-0.8516,0.0,0.0,-1.0198,-1.0186,-1.0658,-1.0826,-1.0297,-0.979,-1.007,-1.1445,-1.1564,-1.187,-1.2581,-1.3228,-1.3707,-1.3854,-1.4001,-1.4088,-1.4088,-1.5628,-1.6519,-1.6519,-1.806,-1.8709,-1.8149,-1.7682,-1.7446,-1.7326,-1.6248,-1.6305,-1.726,-1.6435,-1.6777,-1.7924,-1.7915,-1.6982,-1.5355,-1.3321,-1.1162,-0.8971,-0.7384,-0.645,-0.601,-0.5857,-0.5708,-0.5421,-0.4392,-0.3411,-0.2744,-0.3211,-0.4183,-0.5997,-0.984,-1.3446,-1.6939,-2.0196,-2.2389,-2.3927,-2.4657,-2.4976,-2.5071,-2.4924,-2.4313,-2.3497,-2.2611,-2.1582,-2.0442,-1.9104,-1.7972,-1.6886,-1.574,-1.3689,-1.163,-0.9864,-0.5309,-0.1047,0.1847,0.4889,0.7301,0.8856,0.9025,0.9025,0.9025,0.9025,0.9065,0.9271,0.9917,1.0762,1.1765,1.2453,1.314,1.3779,1.4411,1.4549,1.4236,1.4549,1.4365,1.38,1.38,1.3658,0.0,0.0,0.0,0.0,0.0,0.0,0.0,0.0,-0.6295,-0.7475,-0.7747,-0.8017,-0.8861,-0.9237,-0.9457,-0.9841,-1.0183,-1.0195,-0.9695,-0.8987,-0.8801,-0.9573,-1.0792,-1.1646,-1.2035,-1.3259,-1.4001,-1.4001,-1.4055,-1.4088,-1.4088,-1.5137,-1.5726,-1.5793,-1.6804,-1.7204,-1.7032,-1.6661,-1.6557,-1.6683,-1.5747,-1.571,-1.6407,-1.547,-1.5951,-1.7418,-1.6879,-1.6336,-1.5684,-1.2392,-1.0783,-1.0329,-0.9451,-0.7924,-0.625,-0.6108,-0.588,-0.5529,-0.4625,-0.3613,-0.2878,-0.3949,-0.5287,-0.7248,-1.1479,-1.4756,-1.7841,-2.1342,-2.2875,-2.3697,-2.4781,-2.5071,-2.5014,-2.4846,-2.4044,-2.3023,-2.198,-2.0861,-1.9602,-1.8051,-1.7011,-1.599,-1.4732,-1.2926,-1.1163,-0.9627,-0.5275,-0.109,0.1844,0.479,0.7231,0.8652,0.8804,0.8804,0.8804,0.8804,0.9159,0.9969,1.0517,1.1166,1.1972,1.314,1.3862,1.3956,1.5039,1.5365,1.488,1.5365,1.5276,1.4698,1.4698,1.4422,-0.3466,-0.4165,-0.4668,-0.5029,-0.4998,-0.5239,0.0,0.0,-0.6309,-0.8145,-0.82,-0.8304,-0.9256,-0.9883,-0.9986,-0.9157,-0.9131,-0.8874,-0.7862,-0.7481,-0.7295,-0.717,-0.8923,-1.0626,-1.184,-1.2991,-1.3694,-1.3694,-1.3941,-1.4088,-1.4088,-1.5137,-1.5831,-1.603,-1.6841,-1.699,-1.6207,-1.5967,-1.5343,-1.4496,-1.4309,-1.449,-1.4847,-1.4742,-1.5093,-1.5831,-1.4918,-1.5217,-1.6104,-1.3319,-1.1455,-1.0401,-1.0257,-0.926,-0.786,-0.7035,-0.6736,-0.6615,-0.56,-0.4148,-0.3011,-0.4686,-0.5821,-0.7365,-1.2081,-1.5359,-1.8302,-2.2047,-2.3492,-2.4091,-2.4816,-2.4971,-2.4907,-2.4823,-2.3721,-2.241,-2.1416,-2.0382,-1.9053,-1.6985,-1.6506,-1.586,-1.4179,-1.2657,-1.1031,-0.9071,-0.4907,-0.095,0.185,0.4942,0.7356,0.8672,0.8804,0.8804,0.8804,0.8804,0.9361,1.0618,1.0762,1.1375,1.2725,1.3457,1.405,1.4606,1.5276,1.5588,1.5499,1.5588,1.5276,1.4698,1.4698,1.4652,-0.24,-0.3776,0.0,0.0,-0.5237,-0.5569,-0.62,-0.625,-0.6359,-0.7301,-0.7392,-0.7526,-0.8021,-0.8432,-0.8543,0.0,-0.8247,-0.8117,-0.7485,-0.7316,-0.7132,-0.6746,-0.8565,-1.009,-1.0541,-1.2444,-1.3559,-1.3559,-1.3921,-1.4088,-1.4088,-1.4489,-1.4867,-1.5175,-1.5303,-1.5372,-1.5182,-1.4888,-1.4573,-1.4082,-1.3741,-1.3682,-1.381,-1.3621,-1.4165,-1.5101,-1.4539,-1.4682,-1.5059,-1.3128,-1.1906,-1.128,-1.128,-1.0759,-0.9843,-0.8273,-0.7681,-0.7599,-0.665,-0.5464,-0.4645,-0.528,-0.6622,-0.8799,-1.2866,-1.6087,-1.9142,-2.2892,-2.3958,-2.4099,-2.4827,-2.4915,-2.4751,-2.442,-2.375,-2.2839,-2.1613,-2.0717,-1.9591,-1.7632,-1.6747,-1.5923,-1.4736,-1.3002,-1.1211,-0.9312,-0.5074,-0.0996,0.2062,0.5129,0.761,0.9144,0.9165,0.9058,0.9058,0.8905,0.9361,1.0712,1.0813,1.1434,1.2822,1.3836,1.4422,1.4698,1.5644,1.6139,1.6139,1.6139,1.6008,1.5744,1.5744,1.5908,-0.2169,0.0,0.0,-0.5335,-0.5654,-0.5966,-0.6118,-0.6305,-0.6491,-0.6664,-0.682,-0.6959,-0.7061,-0.7173,-0.7275,-0.7356,-0.755,-0.7614,-0.74,-0.7302,-0.7183,-0.7015,-0.8604,-0.9754,-0.9842,-1.2074,-1.3554,-1.3552,-1.3841,-1.4001,-1.4082,-1.4162,-1.4163,-1.4089,-1.3896,-1.3716,-1.3648,-1.3646,-1.3638,-1.3639,-1.3484,-1.3414,-1.332,-1.3013,-1.3593,-1.4779,-1.4229,-1.414,-1.4411,-1.2898,-1.2131,-1.187,-1.187,-1.1543,-1.076,-0.9197,-0.8498,-0.828,-0.7211,-0.6173,-0.5355,-0.5518,-0.7166,-0.9797,-1.3381,-1.6844,-2.0157,-2.3569,-2.4486,-2.4597,-2.5205,-2.5264,-2.5069,-2.4726,-2.4189,-2.3359,-2.1883,-2.0807,-1.956,-1.777,-1.6604,-1.5628,-1.4651,-1.305,-1.1273,-0.9321,-0.5546,-0.1607,0.2098,0.5665,0.8287,0.9543,0.9492,0.9269,0.919,0.9051,0.9348,1.0474,1.0712,1.1325,1.2559,1.3956,1.4698,1.4698,1.5876,1.6522,1.6522,1.6522,1.6595,1.671,1.671,1.6993,-0.2767,0.0,-0.527,-0.5857,-0.6125,-0.6285,-0.6427,-0.6692,-0.6868,-0.6729,-0.682,-0.6929,-0.6932,-0.6939,-0.7037,-0.7326,-0.738,-0.7383,-0.7373,-0.7122,-0.7161,-0.7713,-0.8676,-0.96,0.0,-1.2075,-1.334,-1.3539,-1.3654,-1.3781,-1.4075,-1.4355,-1.4007,-1.3085,-1.2995,-1.2541,-1.1456,-1.2215,-1.2586,-1.2413,-1.3535,-1.3908,-1.3539,-1.3327,-1.381,-1.4702,-1.3397,-1.3586,-1.4657,-1.2981,-1.2131,-1.187,-1.187,-1.1109,-0.9915,-0.9744,-0.9103,-0.8255,-0.7118,-0.554,-0.422,-0.5096,-0.7053,-0.9797,-1.3381,-1.747,-2.1371,-2.3902,-2.5202,-2.5906,-2.6188,-2.6161,-2.6078,-2.6193,-2.5137,-2.3646,-2.2102,-2.0226,-1.8362,-1.6593,-1.5639,-1.4651,-1.3195,-1.2346,-1.1079,-0.8713,-0.6386,-0.3083,0.1932,0.6692,0.9615,0.9686,0.9679,0.9552,0.921,0.9176,0.9363,0.9784,1.0415,1.1116,1.1814,1.369,1.4698,1.4698,1.5876,1.6522,1.6522,1.6522,1.6752,1.7271,1.7271,1.7544,-0.2943,0.0,-0.4817,-0.5211,-0.4797,-0.4545,-0.5349,-0.562,-0.5905,-0.6437,-0.6515,-0.6454,-0.6349,-0.6332,-0.6461,-0.6861,-0.701,-0.7146,-0.7343,-0.7197,-0.697,-0.6863,-0.777,0.0,0.0,0.0,0.0,-1.3039,-1.342,-1.3687,-1.3788,-1.3458,-1.3121,-1.2845,-1.21,-1.1566,-1.115,-1.1342,-1.1361,-1.1209,-1.1404,-1.1786,-1.2184,-1.1192,-1.1774,-1.332,-1.1341,-1.1507,-1.3023,-1.1838,-1.1636,-1.2158,-1.2158,-1.1497,-1.0495,-1.0243,-0.9125,-0.7577,-0.7039,-0.6507,-0.597,-0.5644,-0.7564,-1.054,-1.3586,-1.6979,-2.0597,-2.4414,-2.555,-2.5848,-2.6739,-2.6339,-2.5523,-2.4801,-2.3833,-2.2649,-2.1173,-1.9864,-1.8584,-1.7379,-1.6299,-1.5212,-1.3992,-1.3108,-1.1592,-0.8531,-0.3864,0.1086,0.591,0.8232,0.9637,1.0267,1.0087,0.9933,0.9833,0.9646,0.968,1.0111,1.0764,1.1524,1.2444,1.3878,1.488,1.5276,1.6107,1.6522,1.6522,1.7282,1.7807,1.7964,1.8329,1.8901,-0.3297,-0.4332,-0.529,-0.521,-0.4674,-0.4328,-0.4919,-0.5063,-0.5307,-0.6146,-0.62,-0.6034,-0.583,-0.5789,-0.5905,-0.6247,-0.6474,-0.6874,-0.7609,-0.7561,-0.7693,-0.8102,-0.8802,-0.952,0.0,0.0,0.0,-1.2913,-1.3367,-1.3652,-1.3948,-1.3169,-1.2629,-1.2349,-1.1296,-1.0441,-0.9894,-1.0167,-1.038,-1.0605,-1.0469,-1.0575,-1.0911,-1.0036,-1.0393,-1.1634,-1.0003,-1.0327,-1.1846,-1.1129,-1.1391,-1.2224,-1.1922,-1.1168,-1.0162,-0.962,-0.8283,-0.6849,-0.6887,-0.6695,-0.638,-0.5709,-0.7766,-1.0882,-1.3652,-1.7279,-2.1228,-2.4878,-2.6217,-2.6724,-2.7526,-2.6987,-2.6007,-2.5182,-2.4115,-2.2914,-2.1465,-1.9934,-1.86,-1.7773,-1.6554,-1.5332,-1.3981,-1.2358,-1.0477,-0.8305,-0.3253,0.203,0.6796,0.8526,0.953,1.011,1.02,1.0234,1.0127,0.9947,0.9833,0.9907,1.0778,1.1558,1.2052,1.3784,1.496,1.5544,1.6205,1.6622,1.6823,1.7839,1.8414,1.8584,1.9364,2.0121,-0.3592,-0.5134,-0.6452,-0.5616,-0.5334,-0.5228,-0.501,-0.4825,-0.4913,-0.5708,-0.5795,-0.5597,-0.5379,0.0,-0.5396,-0.5562,-0.5916,-0.6598,-0.8028,-0.825,-0.9105,0.0,0.0,0.0,0.0,0.0,0.0,-1.3253,0.0,-1.3831,-1.4396,-1.344,-1.2487,-1.1382,-1.036,-0.9139,-0.759,-0.8679,-0.9587,-1.0438,-1.0423,-1.0194,-0.9776,-0.9766,-0.9727,-0.9678,-0.9311,-0.9877,-1.1076,-1.0738,-1.1242,-1.215,-1.1087,-1.0115,-0.912,-0.7934,-0.683,-0.5973,-0.658,-0.6154,-0.5369,-0.5362,-0.7584,-1.0882,-1.3652,-1.8295,-2.3023,-2.5312,-2.714,-2.8427,-2.8512,-2.7996,-2.7345,-2.7016,-2.5743,-2.4225,-2.2673,-2.0358,-1.8307,-1.7665,-1.6291,-1.4746,-1.3122,-1.0166,-0.7986,-0.7942,-0.4466,-0.0066,0.4807,0.7565,0.9139,0.9274,1.004,1.0448,1.0167,1.014,0.9893,0.9263,1.0515,1.1145,1.093,1.3314,1.4942,1.5556,1.6215,1.6873,1.7516,1.8105,1.8694,1.9266,2.0423,2.1114,-0.2425,-0.2744,-0.305,-0.29,-0.22,-0.1577,-0.2338,-0.247,-0.2797,-0.4232,-0.4389,-0.4448,-0.4833,-0.4955,0.0,-0.5528,-0.6653,0.0,-0.8478,-0.9419,0.0,-1.0476,0.0,-1.0065,-1.1695,-1.1427,0.0,0.0,-1.3935,-1.3698,-1.3161,-1.2318,-1.1278,-0.9877,-0.8929,-0.8104,-0.7434,-0.758,-0.7745,-0.8009,-0.7887,-0.8139,-0.8565,-0.7781,-0.8094,-0.9301,-0.7727,-0.8115,-0.9758,-0.8937,-0.9588,-1.1087,-1.0045,-0.9518,-0.912,-0.7934,-0.6379,-0.4882,-0.4862,-0.4717,-0.4475,-0.4381,-0.6642,-1.0069,-1.3456,-1.7884,-2.247,-2.5846,-2.7644,-2.8612,-2.8933,-2.7827,-2.6286,-2.4946,-2.3429,-2.1931,-2.0776,-1.8884,-1.7269,-1.6772,-1.4536,-1.2366,-1.1301,-0.9412,-0.7832,-0.7381,-0.4183,-0.0066,0.4807,0.5952,0.7163,0.9075,0.953,0.9888,1.0392,1.0448,1.0287,0.9913,1.069,1.1478,1.2289,1.3432,1.4877,1.6664,1.6872,1.7533,1.8649,1.9202,2.0088,2.1197,2.1192,2.1817,-0.2022,-0.2401,-0.2669,-0.2156,-0.1438,-0.1012,-0.1519,-0.1504,-0.1916,-0.3567,-0.3797,-0.3876,-0.4502,-0.466,0.0,0.0,0.0,0.0,-0.8768,-0.9751,-1.0688,0.0,-1.1372,0.0,-1.1798,-1.1443,-1.1623,0.0,-1.3219,-1.325,-1.2886,-1.1415,-1.0188,-0.9435,-0.8328,-0.7607,-0.7373,-0.7217,-0.7109,-0.7048,-0.6966,-0.7059,-0.74,-0.683,-0.7017,-0.7936,0.0,-0.7173,-0.8618,-0.8012,-0.8708,-0.9955,-0.8921,-0.8496,-0.8249,-0.6745,-0.5192,-0.3743,-0.2809,-0.2436,-0.2635,-0.3645,-0.631,-0.9797,-1.3381,-1.8034,-2.273,-2.6113,-2.7859,-2.8797,-2.9083,-2.7592,-2.5717,-2.4502,-2.2847,-2.1162,-2.0012,-1.8458,-1.6907,-1.5666,-1.3485,-1.1377,-1.0153,-0.8837,-0.7647,-0.6502,-0.4686,-0.1855,0.2473,0.4415,0.6117,0.7957,0.8812,0.953,0.9983,1.0364,1.0434,1.0134,1.0756,1.1515,1.2367,1.332,1.4707,1.6665,1.6961,1.7649,1.8715,1.9789,2.0684,2.1318,2.2416,2.3262,-0.1743,-0.2582,-0.3199,-0.2057,-0.1702,-0.1704,-0.1479,-0.129,-0.16,-0.325,0.0,-0.3637,-0.4373,-0.4532,-0.4563,-0.4601,0.0,-0.6229,-0.8754,-0.9681,-1.1056,-1.3497,-1.3717,-1.3294,-1.2413,-1.2066,-1.1657,-1.1102,-1.1744,-1.2299,-1.2649,-1.0542,-0.9237,-0.9019,-0.7736,-0.7118,-0.7158,-0.6917,-0.6873,-0.6929,-0.6888,-0.6729,-0.6471,-0.6454,-0.6376,-0.6338,-0.6338,-0.6795,-0.7629,-0.7629,-0.812,-0.8739,-0.7565,-0.7231,-0.7062,-0.5042,-0.3667,-0.2643,-0.0837,0.0,-0.0207,-0.2693,-0.5784,-0.929,-1.3176,-1.8139,-2.3061,-2.6106,-2.7927,-2.8956,-2.8876,-2.719,-2.5314,-2.4537,-2.2819,-2.0979,-1.9685,-1.8228,-1.6532,-1.4433,-1.2749,-1.1066,-0.9319,-0.8452,-0.7381,-0.5638,-0.5389,-0.4164,-0.0801,0.2994,0.5665,0.6453,0.7962,0.9011,0.9139,0.9913,1.0322,1.0004,1.0639,1.127,1.1882,1.3058,1.4467,1.6049,1.6811,1.758,1.839,1.998,2.0741,2.079,2.3364,2.453,-0.0299,-0.0503,-0.06,-0.0386,-0.0367,-0.0344,-0.0314,-0.0284,0.0,0.0,-0.2475,-0.2863,-0.4242,-0.4565,-0.4731,-0.4975,0.0,0.0,0.0,0.0,-1.163,0.0,0.0,0.0,0.0,0.0,0.0,0.0,0.0,-0.9867,-1.0154,-0.9705,-0.8525,-0.6385,-0.509,-0.4858,-0.5749,-0.5537,-0.5904,-0.6926,-0.6671,-0.6522,-0.6468,-0.6349,-0.6285,-0.6338,-0.6338,0.0,-0.6567,-0.6567,-0.7071,-0.7638,-0.5858,-0.6058,-0.6974,-0.4167,-0.2592,-0.1671,-0.0475,0.0942,0.1884,-0.0067,-0.3031,-0.6822,-1.1882,-1.698,-2.1792,-2.566,-2.7998,-2.9063,-2.798,-2.6326,-2.4421,-2.2469,-2.1015,-1.9634,-1.8251,-1.6254,-1.4418,-1.3416,-1.1903,-1.0281,-0.8533,-0.8086,-0.7381,-0.5638,-0.5389,-0.4643,-0.2476,0.2204,0.5435,0.5595,0.6515,0.7437,0.8156,0.9005,0.9512,0.9464,1.0223,1.1002,1.1783,1.2682,1.3843,1.5429,1.6797,1.8132,1.9436,1.9804,2.0683,2.1987,2.2083,2.2813,0.0,0.0,0.0,0.0,0.0,0.0,0.0,0.0,0.0,0.0,-0.2199,-0.2676,-0.4236,-0.4577,0.0,0.0,0.0,0.0,0.0,0.0,0.0,0.0,0.0,0.0,0.0,0.0,0.0,0.0,0.0,-0.847,-0.937,-0.8102,-0.6482,-0.4624,-0.3987,-0.4216,-0.5269,-0.5127,-0.5642,-0.6688,-0.6542,-0.6188,-0.5556,-0.5505,-0.5172,-0.4606,-0.463,-0.4637,-0.4606,-0.4627,-0.4833,-0.5,-0.4145,-0.4197,-0.4637,-0.2256,-0.0816,0.0203,0.207,0.3,0.3276,0.2863,-0.0525,-0.5481,-1.0573,-1.6105,-2.1258,-2.4452,-2.7151,-2.8702,-2.7046,-2.5332,-2.3527,-2.1439,-1.9458,-1.7752,-1.6623,-1.4896,-1.3322,-1.2504,-1.1413,-1.004,-0.8285,-0.8027,-0.7381,-0.5638,-0.4625,-0.4049,-0.4122,-0.0205,0.3334,0.5229,0.58,0.6384,0.7242,0.8549,0.9274,0.9274,1.011,1.0989,1.1772,1.2573,1.3604,1.4857,1.6394,1.7706,1.8702,1.9745,2.1015,2.2533,2.3134,2.4316,0.0,0.0,0.0,0.0,0.0,0.0,0.0,0.0,0.0,0.0,-0.2063,-0.2619,-0.4012,0.0,-0.4436,0.0,0.0,0.0,0.0,0.0,0.0,0.0,0.0,0.0,0.0,0.0,0.0,0.0,0.0,-0.7224,-0.8407,-0.6251,-0.4435,-0.328,-0.3003,-0.3328,-0.4409,-0.454,-0.5194,-0.6147,-0.6115,-0.5632,-0.4727,-0.4429,-0.3888,-0.3074,-0.3111,-0.3116,-0.3073,-0.3092,-0.3024,-0.2873,-0.2673,-0.2676,-0.2476,-0.0468,0.0734,0.1663,0.4389,0.4998,0.4674,0.513,0.1508,-0.3883,-0.8348,-1.443,-2.0205,-2.2242,-2.5528,-2.7947,-2.5848,-2.4124,-2.2422,-2.0358,-1.7921,-1.5833,-1.5206,-1.3673,-1.2251,-1.1633,-1.0717,-0.9582,-0.7957,-0.7697,-0.719,-0.5645,-0.3844,-0.3356,-0.5145,-0.224,0.1108,0.3931,0.4964,0.5668,0.6334,0.8032,0.8941,0.8748,0.9771,1.0665,1.1212,1.2259,1.3211,1.4147,1.5781,1.7016,1.7785,1.9439,2.1021,2.2485,2.4033,2.5522,0.0,0.0,0.0,0.0,0.0,0.0,0.0,0.0,0.0,-0.1008,-0.173,-0.2454,-0.3287,-0.3863,-0.4301,0.0,0.0,-0.4331,0.0,0.0,0.0,0.0,0.0,0.0,0.0,0.0,0.0,0.0,0.0,-0.5642,-0.5737,-0.4519,-0.3214,-0.1998,-0.094,-0.0938,-0.2079,-0.291,-0.3899,-0.5017,-0.4909,-0.4799,-0.4688,-0.3701,-0.3197,-0.3076,-0.3067,-0.3133,0.0,-0.3065,-0.3015,-0.2802,-0.2028,-0.2128,-0.2409,0.0201,0.1202,0.1663,0.4389,0.5789,0.6322,0.5526,0.2722,-0.0988,-0.4187,-1.0812,-1.7364,-1.8367,-2.2802,-2.6643,-2.405,-2.2542,-2.1083,-1.8472,-1.6079,-1.4382,-1.4323,-1.2403,-1.0739,-1.0613,-0.9354,-0.7957,-0.6981,-0.685,-0.647,-0.5522,-0.3849,-0.336,-0.5167,-0.2251,0.014,0.0487,0.3466,0.5442,0.5509,0.7125,0.7762,0.6981,0.8607,0.9568,0.953,1.1113,1.2382,1.3132,1.5015,1.6541,1.7618,1.8673,1.9986,2.1644,2.2842,2.3601,0.0,0.0,0.0,0.0,0.0,0.0,0.0,0.0,-0.0224,-0.095,-0.1675,-0.2397,-0.3176,-0.3914,-0.4385,0.0,0.0,0.0,0.0,0.0,0.0,0.0,0.0,0.0,0.0,0.0,0.0,0.0,-0.5999,-0.5044,-0.4163,-0.3118,-0.1955,-0.0767,-0.0254,-0.0504,-0.1668,-0.2046,-0.2717,-0.3805,-0.3766,-0.3425,-0.2788,-0.2362,-0.184,-0.1264,-0.1239,-0.1232,0.0,-0.1217,-0.0918,-0.0348,0.0,0.0338,0.0734,0.2339,0.2941,0.3195,0.5223,0.6298,0.6698,0.6766,0.5481,0.3342,0.0,-0.6569,-1.286,-1.2627,-1.8087,-2.3666,-2.2097,-2.0118,-1.8384,-1.7775,-1.5871,-1.4094,-1.3606,-1.192,-1.0415,-0.9953,-0.8891,-0.7741,-0.694,-0.673,-0.6374,-0.5508,-0.3889,-0.26,-0.2224,-0.0922,0.0,0.0,0.1257,0.309,0.5378,0.6094,0.6542,0.6823,0.8038,0.8865,0.9285,1.0948,1.2239,1.3017,1.4828,1.6395,1.762,1.874,2.0454,2.2745,2.3871,2.4957,0.0,0.0,0.0,0.0,0.0,0.0,0.0,0.0,-0.0166,-0.067,-0.1507,-0.2343,-0.2899,-0.3762,-0.4365,0.0,0.0,-0.4043,-0.4297,0.0,0.0,0.0,0.0,0.0,0.0,0.0,0.0,0.0,-0.5879,-0.4687,-0.3404,-0.2289,-0.1238,0.0,0.0,-0.0327,-0.1126,-0.1447,-0.1968,-0.2642,-0.2642,-0.2256,-0.1566,-0.1295,-0.0717,0.0,0.0,0.0141,0.0,0.0419,0.0899,0.1721,0.1688,0.2143,0.2811,0.368,0.3995,0.4213,0.6105,0.6845,0.7122,0.7793,0.7933,0.7388,0.5293,-0.0664,-0.6433,-0.4783,-1.0584,-1.7747,-1.9599,-1.8495,-1.6922,-1.7191,-1.5861,-1.4246,-1.3243,-1.148,-0.9907,-0.9217,-0.8057,-0.7034,-0.6578,-0.6396,-0.6119,-0.547,-0.3827,-0.2039,-0.0216,0.0,0.0,0.0,0.0,0.106,0.3818,0.4893,0.5786,0.6476,0.7313,0.8158,0.893,1.0406,1.1652,1.2642,1.3901,1.526,1.6729,1.78,1.9814,2.2651,2.3599,2.4681,0.0,0.0,0.0,0.0,0.0,0.0,0.0,0.0,0.0,0.0,-0.1174,-0.2174,-0.223,-0.3312,-0.4197,-0.4197,-0.3992,0.0,-0.4002,0.0,0.0,0.0,0.0,0.0,0.0,0.0,0.0,-0.6702,-0.558,0.0,-0.3482,-0.2221,-0.1111,0.0,0.0,0.0,0.0,-0.1098,-0.1626,-0.1586,-0.1586,-0.164,-0.1528,-0.0509,0.0,0.0,0.0,0.0483,0.0,0.1274,0.181,0.2678,0.2678,0.2678,0.2811,0.368,0.3941,0.4163,0.6621,0.7561,0.7804,0.8544,0.9575,1.0711,1.2253,0.7424,0.2161,0.5498,0.0301,-0.8207,-1.6537,-1.8178,-1.7413,-1.6652,-1.5861,-1.4838,-1.3356,-1.1023,-0.9,-0.8151,-0.6621,-0.5411,-0.5393,-0.5426,-0.5415,-0.5416,-0.3849,-0.2026,-0.0211,0.0,0.0,0.0,0.0,0.0,0.0073,0.3525,0.5706,0.5745,0.6503,0.7278,0.816,0.8992,1.0173,1.1772,1.1928,1.2835,1.4723,1.5284,1.7277,2.0623,2.1128,2.1532,0.0748,0.0387,0.0,0.0,0.0,0.0,0.0,0.0,0.0,0.0,-0.1098,-0.2065,-0.2166,-0.3247,-0.404,-0.404,-0.3924,0.0,0.0,0.0,0.0,0.0,0.0,0.0,0.0,0.0,-0.5533,-0.5365,-0.3732,-0.2887,-0.3016,-0.1421,-0.0378,0.0,0.0,0.0,0.0,-0.0306,-0.0529,-0.0516,-0.0507,-0.0501,-0.0497,-0.0139,0.0,0.0,0.0,0.0475,0.1273,0.1273,0.2209,0.3613,0.3613,0.4339,0.5384,0.4903,0.5098,0.5653,0.6147,0.7141,0.8244,0.8889,1.0319,1.2071,1.3633,1.2791,0.9755,0.2219,-0.1376,-0.5385,-1.5975,-1.8167,-1.7523,-1.7302,-1.6239,-1.4906,-1.3356,-1.1023,-0.8988,-0.8286,-0.6672,-0.5484,-0.5637,-0.5538,-0.543,-0.5393,-0.388,-0.2052,-0.021,0.0,0.0,0.0,0.0,0.0,0.0,0.1108,0.2928,0.5541,0.5922,0.641,0.7154,0.8634,0.9848,1.0878,1.145,1.2629,1.4274,1.4961,1.7525,2.1787,2.2855,2.3106,0.0,0.0978,0.0423,0.0398,0.019,0.0,0.0,0.0,0.0,0.0,-0.0863,-0.1756,-0.2091,-0.2951,-0.3701,-0.3896,-0.39,0.0,0.0,0.0,0.0,0.0,0.0,0.0,0.0,-0.4325,-0.4396,-0.4644,-0.3195,-0.233,-0.2401,-0.1236,-0.0438,0.0,0.0,0.0,0.0,0.0,0.0,0.0,0.0,0.0,0.0,0.0,0.0135,0.0408,0.0401,0.1052,0.0,0.2141,0.3257,0.4925,0.4807,0.5653,0.6912,0.6158,0.617,0.656,0.6596,0.7494,0.8783,0.9659,1.1779,1.4369,1.6457,1.7974,1.6308,0.3344,0.0612,-0.1498,-1.4851,-1.795,-1.7523,-1.7246,-1.6239,-1.4954,-1.3682,-1.1181,-0.8982,-0.8271,-0.6676,-0.543,-0.562,-0.5686,-0.5658,-0.5447,-0.4472,-0.285,-0.035,0.0,0.0,0.0,0.0,0.0,0.0,0.0,0.1353,0.4489,0.5252,0.6091,0.7274,0.8353,0.925,1.0002,1.0753,1.1526,1.2313,1.464,1.746,2.0753,2.2384,2.2473,0.0,0.1808,0.0,0.0,0.0,0.0,0.0,0.0,0.0,0.0,-0.0582,-0.1253,-0.1828,-0.2507,-0.3161,-0.3602,-0.3775,0.0,0.0,0.0,0.0,0.0,0.0,0.0,-0.4906,-0.3804,-0.3336,-0.419,-0.3401,-0.2534,-0.1591,-0.1519,-0.1003,0.007,0.0072,0.0072,0.0,0.0,0.0,0.007,0.007,0.014,0.021,0.0205,0.053,0.0,0.1223,0.2086,0.3623,0.3684,0.4732,0.6349,0.618,0.6698,0.7516,0.718,0.7026,0.7074,0.7672,0.849,0.9466,1.0875,1.3743,1.721,2.0074,2.2559,2.1617,0.8308,0.5585,0.2912,-1.3411,-1.7611,-1.7368,-1.6641,-1.5861,-1.5061,-1.4232,-1.1461,-0.8937,-0.8146,-0.6621,-0.5421,-0.5433,-0.5892,-0.6029,-0.5549,-0.545,-0.411,-0.0491,0.0,0.0,0.0,0.0,0.0,0.0,0.0,0.0839,0.2722,0.4455,0.6286,0.8238,0.8117,0.842,0.9274,0.991,1.0112,0.989,1.4505,1.7242,1.8189,2.0223,2.0079,0.4035,0.0,0.1778,0.1221,0.0943,0.0667,0.0,0.0,0.0,0.0,0.0,0.0,0.0,-0.1759,-0.2172,-0.2403,-0.2385,-0.2301,-0.2159,0.0,0.0,-0.2158,-0.214,-0.1911,-0.132,-0.1713,-0.1945,-0.2046,-0.1201,-0.0911,-0.1369,-0.0754,0.0068,0.0949,0.1022,0.069,0.0,0.0,0.0353,0.0979,0.1027,0.1355,0.2097,0.2083,0.2112,0.2186,0.2186,0.2717,0.3623,0.4221,0.5093,0.6172,0.6667,0.7389,0.806,0.7238,0.7353,0.7852,0.7767,0.8572,0.9948,1.2198,1.4534,1.689,1.9712,2.2688,2.3025,1.2954,0.8683,0.322,-1.3819,-1.7679,-1.7024,-1.6623,-1.5861,-1.4954,-1.3571,-1.1126,-0.8937,-0.8146,-0.6573,-0.542,-0.5621,-0.5594,-0.5688,-0.6058,-0.5692,-0.4099,-0.0433,0.0,0.0,0.0,0.0,0.0,0.0,0.0,0.0232,0.0685,0.3829,0.6246,0.7389,0.7792,0.842,0.9274,1.0705,1.2392,1.4292,1.6473,1.7889,1.8591,1.9946,1.9698,0.4382,0.3526,0.2609,0.2235,0.1597,0.0997,0.0589,0.0,0.0,0.0,0.0,0.0,0.0,0.0,0.0,0.0,-0.1883,0.0,0.0,0.0,0.0,-0.1896,-0.1689,-0.137,0.0,-0.1025,-0.0954,-0.1258,-0.0463,-0.0197,-0.0646,0.0065,0.0781,0.125,0.1644,0.1667,0.1236,0.1237,0.1432,0.1884,0.1855,0.209,0.2447,0.2447,0.2663,0.2897,0.2897,0.3332,0.4057,0.48,0.5657,0.656,0.7151,0.792,0.8732,0.8386,0.8511,0.8931,0.9075,1.001,1.134,1.2757,1.4821,1.7144,1.9391,2.2264,2.3138,1.5444,1.1498,0.6139,-0.8917,-1.4872,-1.6765,-1.6095,-1.51,-1.4031,-1.3141,-1.0705,-0.8511,-0.8086,-0.6605,-0.5447,-0.555,-0.4094,-0.3035,-0.3358,-0.3143,-0.2187,-0.0219,0.0,0.0,0.0,0.0,0.0,0.0,0.0,0.039,0.1381,0.3265,0.544,0.7778,0.7927,0.8796,1.0395,1.1676,1.3838,1.6877,1.779,1.8724,1.9629,1.9955,1.97,0.4234,0.386,0.3456,0.34,0.2389,0.1376,0.1283,0.0,0.0,0.0,0.0,0.0,0.0,-0.0768,0.0,0.0,0.0,0.0,0.0,0.0,-0.1377,-0.2012,-0.1528,0.0,-0.2217,-0.0893,-0.0317,-0.1049,-0.0308,0.0185,0.0185,0.0862,0.137,0.1661,0.23,0.2777,0.3039,0.2788,0.2696,0.2699,0.2686,0.2645,0.264,0.264,0.2957,0.3571,0.0,0.0,0.468,0.5382,0.6248,0.7242,0.7697,0.846,0.935,0.9664,0.9865,1.0064,1.0864,1.1837,1.2831,1.3084,1.4933,1.7385,1.9075,2.1511,2.263,1.7563,1.4464,0.9851,-0.2323,-1.0714,-1.5802,-1.4888,-1.3553,-1.2411,-1.2364,-0.9945,-0.7832,-0.7832,-0.6478,-0.5369,-0.5411,-0.2884,-0.0635,-0.0071,0.0,0.0,0.0,0.0,0.0,0.0,-0.055,-0.0943,-0.0942,0.0236,0.1568,0.2888,0.3147,0.4901,0.8543,0.8638,0.9761,1.2212,1.3202,1.5402,1.8917,1.9118,1.9841,2.1004,2.0295,2.0016,0.4234,0.4244,0.4181,0.3456,0.3056,0.2617,0.202,0.0,0.0,0.0,0.0,0.0,0.0,-0.0142,-0.0145,0.0,0.0,-0.0112,0.0,0.0,0.0,0.0476,0.0,-0.0246,-0.0419,-0.0184,-0.0062,-0.0185,0.0493,0.0924,0.0924,0.166,0.2402,0.3217,0.334,0.3781,0.4547,0.3194,0.2902,0.3587,0.3504,0.3827,0.4485,0.4485,0.4471,0.4513,0.0,0.4823,0.5378,0.6145,0.6874,0.7668,0.8387,0.9081,0.9732,0.9777,1.0167,1.0813,1.2083,1.2619,1.2966,1.4086,1.54,1.6828,1.86,2.0567,2.2227,2.2242,1.8394,1.1695,0.0636,-0.7121,-1.2069,-1.194,-1.0798,-0.9813,-0.9737,-0.8238,-0.6915,-0.6915,-0.6086,-0.5403,-0.5399,-0.4939,-0.3534,-0.046,0.0,0.0,0.0,0.0,0.0,0.0,-0.3228,-0.5297,-0.5367,0.1256,0.4487,0.2413,0.4427,0.6496,0.8206,1.0409,1.2516,1.4456,1.635,1.9065,2.2661,2.16,2.1562,2.2429,2.1148,2.0748,0.4113,0.4172,0.4118,0.3745,0.3486,0.3133,0.2704,0.209,0.0,0.0,0.0,0.0,0.0,0.0,0.0391,0.0053,0.0,0.0731,0.1028,0.1143,0.1323,0.0,0.0,0.1194,0.1176,0.0834,0.0775,0.1171,0.1111,0.1287,0.1694,0.2394,0.3058,0.3592,0.4014,0.4411,0.4918,0.4105,0.3914,0.4278,0.4219,0.4392,0.4674,0.4674,0.4633,0.4622,0.0,0.5294,0.5597,0.6745,0.7396,0.7777,0.8533,0.9211,0.9865,1.061,1.1557,1.2492,1.313,1.3548,1.3924,1.4514,1.5684,1.7113,1.8564,2.0544,2.2409,2.2695,2.0095,1.5343,0.7266,-0.059,-0.7007,-0.9313,-0.9505,-0.9095,-0.8971,-0.7917,-0.7021,-0.7311,-0.6316,-0.5393,-0.5409,-0.5372,-0.4198,-0.0526,0.0,0.0,0.0,0.0,0.0,0.0,-0.3783,-0.6264,-0.6332,-0.275,0.0857,0.4148,0.6073,0.7599,0.8829,1.1348,1.3821,1.6032,1.9168,2.1735,2.3714,2.3602,2.3557,2.3533,2.2268,2.2091,0.406,0.4019,0.4005,0.3934,0.0,0.3456,0.3352,0.2803,0.0,0.0,0.0,0.0,0.0,0.1034,0.0,0.0527,0.0821,0.1229,0.1563,0.1952,0.2252,0.2483,0.2317,0.2201,0.2201,0.1682,0.1606,0.2179,0.1842,0.1842,0.2452,0.3176,0.3666,0.382,0.4346,0.4694,0.4809,0.4697,0.4657,0.4691,0.4653,0.4688,0.4732,0.4732,0.4842,0.5007,0.5546,0.5869,0.6086,0.723,0.7877,0.8249,0.8791,0.9658,1.0653,1.1855,1.3034,1.405,1.4307,1.4721,1.5174,1.5528,1.6528,1.7822,1.9031,2.0948,2.2578,2.2108,2.061,1.7884,1.2378,0.4802,-0.254,-0.712,-0.8187,-0.8121,-0.8037,-0.6964,-0.6234,-0.6659,-0.5309,-0.4144,-0.4082,-0.4106,-0.3001,0.0222,0.0306,0.0,0.0,0.0,-0.0393,-0.1336,-0.4339,-0.626,-0.6329,-0.5416,-0.1698,0.5825,0.7275,0.8365,0.9576,1.2102,1.4814,1.7693,2.1491,2.3812,2.4652,2.529,2.5333,2.4866,2.3648,2.3732,0.421,0.4019,0.3955,0.368,0.3681,0.0,0.3893,0.338,0.0,0.2985,0.0,0.0,0.0,0.1369,0.1119,0.1744,0.1422,0.1563,0.2954,0.0,0.2456,0.3244,0.2631,0.2183,0.2183,0.2127,0.2125,0.2176,0.2788,0.3176,0.3231,0.3956,0.4411,0.4421,0.448,0.4539,0.4553,0.4539,0.4551,0.4691,0.4548,0.4853,0.5433,0.5433,0.5819,0.6426,0.648,0.6912,0.7557,0.767,0.8455,0.9658,0.971,1.0897,1.2667,1.3369,1.405,1.4789,1.5872,1.625,1.6536,1.8034,1.8589,1.8935,2.028,2.1592,2.2469,2.1823,2.006,1.7258,1.2366,0.6257,0.0058,-0.5427,-0.6191,-0.5656,-0.5627,-0.4228,-0.3011,-0.308,-0.1603,-0.034,-0.0072,-0.0217,0.0369,0.2547,0.125,0.0,0.0,0.0,-0.1493,-0.546,-0.6097,-0.6332,-0.6329,-0.2825,0.1363,0.6028,0.7261,0.8566,1.0153,1.2867,1.6098,1.9999,2.3029,2.5318,2.6869,2.6624,2.6634,2.6842,2.5464,2.5573,0.4771,0.4286,0.3829,0.3629,0.4002,0.0,0.0,0.3846,0.3708,0.3674,0.3532,0.0,0.0,0.0,0.1574,0.1837,0.2077,0.2407,0.2982,0.319,0.3453,0.3715,0.3505,0.3294,0.3294,0.293,0.2826,0.3294,0.3138,0.3481,0.4464,0.4851,0.5165,0.5527,0.5707,0.5712,0.5584,0.5271,0.5144,0.5206,0.4709,0.4838,0.5487,0.5487,0.5928,0.6642,0.7074,0.7652,0.833,0.8362,0.919,1.0509,1.134,1.2132,1.2918,1.3982,1.4949,1.5828,1.625,1.7055,1.7995,1.8589,1.9343,2.0151,2.1035,2.2273,2.3215,2.2637,2.0453,1.7261,1.2722,0.7882,0.3021,-0.1643,-0.2314,-0.2516,-0.4906,-0.3111,-0.0333,0.1874,0.2008,0.2099,0.3523,0.3817,0.3756,0.3195,0.3371,0.276,0.0306,0.0,-0.0603,-0.2225,-0.4768,-0.6332,-0.626,-0.2595,0.1429,0.5454,0.6349,0.7982,1.0947,1.3725,1.7211,2.1478,2.492,2.6993,2.7594,2.7466,2.7308,2.7095,2.6451,2.6576,0.5234,0.468,0.4225,0.0,0.0,0.0,0.4714,0.4502,0.4378,0.4213,0.4168,0.0,0.0,0.0,0.0,0.0,0.269,0.3063,0.3459,0.3873,0.4188,0.4379,0.4428,0.4312,0.4072,0.3759,0.3646,0.3902,0.3494,0.3802,0.5081,0.5191,0.5442,0.6036,0.6241,0.628,0.6186,0.5802,0.569,0.5814,0.5271,0.5329,0.5869,0.6086,0.6578,0.7343,0.783,0.8402,0.9058,0.9093,1.0012,1.1548,1.2677,1.3348,1.3799,1.4846,1.5872,1.676,1.7261,1.8201,1.9256,1.9682,2.056,2.1506,2.2065,2.3107,2.3908,2.3074,2.0773,1.7616,1.3478,0.913,0.4877,0.1269,0.0718,0.0494,-0.1533,-0.0524,0.1735,0.4785,0.437,0.4071,0.558,0.6072,0.5672,0.4208,0.4997,0.4838,0.2166,0.1924,0.1487,0.0153,-0.2172,-0.3845,-0.4249,-0.1285,0.2228,0.5897,0.6449,0.8079,1.1272,1.4771,1.8507,2.2541,2.6009,2.7892,2.8215,2.8177,2.7985,2.7639,2.7419,2.7548,0.5484,0.5183,0.5252,0.0,0.0,0.0,0.5973,0.5443,0.4809,0.4562,0.4222,0.4019,0.4019,0.0,0.0,0.3695,0.3277,0.3357,0.4697,0.4598,0.4621,0.5208,0.53,0.4993,0.428,0.4636,0.4577,0.3842,0.3924,0.426,0.4902,0.4902,0.5189,0.5814,0.5814,0.5967,0.6232,0.5923,0.6087,0.6578,0.6348,0.6358,0.6637,0.7343,0.8096,0.8804,0.8804,0.9211,0.9814,0.9814,1.0998,1.287,1.3521,1.4538,1.5676,1.6219,1.6773,1.7531,1.9082,1.9782,2.0235,2.1653,2.247,2.3003,2.3467,2.4111,2.4399,2.292,2.0877,1.8282,1.4743,0.9923,0.5325,0.2832,0.2462,0.3226,0.5018,0.402,0.3282,0.5052,0.5386,0.5542,0.5915,0.5978,0.6026,0.6013,0.5904,0.5793,0.5795,0.607,0.4675,0.0468,0.1325,0.1556,0.0156,0.1707,0.4152,0.7525,0.7957,0.9108,1.1243,1.6059,2.0176,2.3252,2.602,2.7901,2.8902,2.8838,2.8796,2.8796,2.8415,2.8603,0.644,0.5655,0.0,0.5419,0.0,0.0,0.0,0.5639,0.0,0.0,0.407,0.389,0.3999,0.0,0.0,0.3643,0.367,0.3796,0.4192,0.4332,0.4455,0.4657,0.4657,0.4593,0.4373,0.4196,0.4156,0.4216,0.3983,0.4423,0.5763,0.5829,0.6169,0.6982,0.7185,0.7228,0.7105,0.6729,0.6564,0.6762,0.6684,0.6784,0.7091,0.7298,0.8063,0.9235,0.9235,1.0,1.1266,1.1792,1.2325,1.2918,1.3982,1.4915,1.572,1.6701,1.7572,1.8513,1.9527,2.0591,2.162,2.2418,2.3141,2.3823,2.4245,2.4687,2.4775,2.3438,2.1479,1.8986,1.5437,1.1902,0.8507,0.55,0.4969,0.5218,0.5395,0.4845,0.4579,0.5292,0.5376,0.5528,0.5827,0.5799,0.5858,0.6139,0.5932,0.532,0.4346,0.4156,0.4139,0.4397,0.3448,0.3278,0.4304,0.4638,0.5722,0.7747,0.9319,1.1163,1.3526,1.733,2.1078,2.472,2.7476,2.9084,2.9537,2.9365,2.9363,2.9502,2.9264,2.9471,0.6708,0.6061,0.0,0.6106,0.6594,0.6936,0.6707,0.0,0.0,0.0,0.0,0.3873,0.3849,0.3781,0.0,0.3703,0.3967,0.4249,0.4487,0.4575,0.4692,0.4875,0.4912,0.4806,0.4495,0.4433,0.4389,0.4335,0.4149,0.4573,0.578,0.5989,0.6429,0.7176,0.7546,0.763,0.7549,0.7152,0.7036,0.723,0.7348,0.748,0.7708,0.7824,0.8449,0.9461,0.996,1.0824,1.1996,1.2899,1.3554,1.3986,1.4767,1.5413,1.6019,1.7411,1.829,1.9081,2.0464,2.167,2.2678,2.3298,2.3962,2.4549,2.4821,2.5029,2.4893,2.3657,2.2001,1.9784,1.6153,1.3547,1.0953,0.7406,0.6522,0.6418,0.6194,0.5825,0.5743,0.6314,0.5888,0.5589,0.6246,0.5892,0.5701,0.603,0.5752,0.5238,0.4499,0.4346,0.4767,0.6169,0.5039,0.4799,0.6203,0.6293,0.7093,0.8802,1.0773,1.3238,1.6218,1.9002,2.2007,2.5203,2.7818,2.9402,2.9963,2.9844,2.9842,2.9953,2.9879,3.0056,0.6646,0.0,0.0,0.6974,0.7502,0.0,0.7259,0.635,0.5522,0.5289,0.0,0.3986,0.3698,0.3848,0.4003,0.3884,0.4176,0.4653,0.5188,0.5074,0.5146,0.5671,0.5671,0.5431,0.478,0.5057,0.5015,0.4362,0.4427,0.4777,0.5374,0.5762,0.6245,0.6833,0.7201,0.7469,0.7568,0.7302,0.7403,0.7855,0.8062,0.8237,0.8361,0.8633,0.9059,0.969,1.0862,1.1699,1.2288,1.3356,1.4467,1.5445,1.5477,1.5785,1.6428,1.8083,1.8798,1.928,2.1545,2.2723,2.3389,2.4204,2.4736,2.5103,2.5184,2.5146,2.4791,2.3549,2.227,2.0473,1.6862,1.4725,1.2567,0.8851,0.7471,0.7048,0.7384,0.6824,0.6656,0.7757,0.6715,0.5985,0.6995,0.6356,0.5748,0.5742,0.5621,0.5562,0.5704,0.596,0.6155,0.624,0.6139,0.6112,0.6264,0.6946,0.8155,1.0217,1.2204,1.5037,1.8905,2.0891,2.2938,2.5258,2.7568,2.925,3.0237,3.023,3.0227,3.0229,3.0238,3.0396,0.7812,0.7448,0.0,0.0,0.7655,0.7822,0.7478,0.6812,0.5919,0.4833,0.4722,0.4675,0.4013,0.4151,0.4317,0.4276,0.4567,0.4839,0.4986,0.511,0.5364,0.5804,0.5589,0.544,0.5609,0.5364,0.519,0.5074,0.532,0.5683,0.6047,0.6465,0.6861,0.7265,0.7352,0.7424,0.7428,0.7085,0.7078,0.7502,0.7258,0.7663,0.869,0.8903,0.9615,1.0639,1.1656,1.2382,1.285,1.3114,1.3652,1.4399,1.4691,1.5182,1.5856,1.7245,1.8125,1.894,2.1164,2.236,2.3124,2.4492,2.5018,2.5114,2.5176,2.501,2.4472,2.2951,2.1533,1.9798,1.6957,1.4933,1.3172,1.1355,0.919,0.7755,0.8497,0.7777,0.7184,0.7529,0.7521,0.7522,0.7913,0.7113,0.6273,0.5585,0.6105,0.6374,0.5703,0.6369,0.6672,0.6139,0.6162,0.6224,0.6261,0.6978,0.8373,1.0472,1.276,1.5613,1.9159,2.1832,2.4339,2.6637,2.8765,3.0073,3.0509,3.0458,3.0455,3.0506,3.0469,3.0494,0.802,0.0,0.0,0.738,0.0,0.7637,0.7157,0.6787,0.6157,0.4973,0.4796,0.4646,0.4014,0.4183,0.4326,0.411,0.4388,0.4778,0.5086,0.5267,0.556,0.6136,0.6006,0.5944,0.616,0.596,0.5836,0.5882,0.6045,0.6215,0.6378,0.6792,0.7075,0.7255,0.7436,0.7531,0.7441,0.7227,0.7238,0.7388,0.7443,0.7971,0.8919,0.9424,1.0134,1.0983,1.1747,1.2461,1.3151,1.3427,1.4,1.475,1.4955,1.5432,1.6149,1.7481,1.8383,1.9328,2.1626,2.2545,2.2975,2.4683,2.4972,2.4738,2.5044,2.4962,2.4452,2.2983,2.1632,2.0083,1.7642,1.5752,1.4233,1.3052,1.0679,0.8851,0.9514,0.8577,0.7816,0.8609,0.8221,0.797,0.8703,0.8061,0.7224,0.6745,0.7074,0.7342,0.7055,0.7509,0.7542,0.6934,0.7342,0.7458,0.7092,0.8198,0.9902,1.1939,1.3975,1.6598,1.9904,2.2481,2.4789,2.6879,2.8579,2.9726,3.0318,3.0332,3.0361,3.0403,3.0238,3.0197,0.817,0.0,0.7634,0.744,0.7482,0.0,0.6694,0.6548,0.6266,0.5268,0.4913,0.4618,0.3973,0.4204,0.435,0.3944,0.4216,0.4705,0.539,0.5483,0.5769,0.6498,0.6548,0.6493,0.6487,0.6517,0.6424,0.6277,0.6474,0.6576,0.6517,0.6934,0.7216,0.7216,0.7539,0.7651,0.7539,0.7466,0.7438,0.7447,0.8059,0.8539,0.9017,0.988,1.0491,1.0925,1.1534,1.2351,1.3301,1.3848,1.4549,1.5316,1.5389,1.5817,1.6503,1.7814,1.8716,1.9627,2.19,2.2653,2.2898,2.4631,2.482,2.4475,2.4919,2.4855,2.4354,2.3084,2.1878,2.0432,1.8257,1.6571,1.5157,1.4064,1.1944,1.0192,1.0371,0.9309,0.8681,0.9821,0.8936,0.8312,0.93,0.8842,0.8312,0.8052,0.8215,0.8443,0.8568,0.8829,0.8791,0.8121,0.8649,0.8753,0.8147,0.9748,1.1572,1.346,1.5414,1.78,2.0699,2.2824,2.4788,2.6609,2.7959,2.9083,2.996,3.0086,3.0132,3.0125,2.9883,2.9813,0.0,0.0,0.7961,0.0,0.7737,0.7248,0.0,0.0,0.6049,0.0,0.5222,0.5258,0.4308,0.4477,0.4717,0.4675,0.4692,0.4992,0.5733,0.5831,0.614,0.6916,0.6721,0.6513,0.6508,0.6501,0.6195,0.5423,0.6385,0.6859,0.6528,0.7215,0.7637,0.7637,0.7666,0.7695,0.7655,0.7329,0.7326,0.766,0.8438,0.8828,0.8942,0.9745,1.0212,1.0442,1.1328,1.2209,1.3076,1.3664,1.4226,1.4672,1.5022,1.54,1.5854,1.6956,1.7832,1.8699,2.0418,2.1708,2.279,2.3985,2.4724,2.5104,2.4898,2.4425,2.3673,2.2383,2.1212,1.984,1.7822,1.6376,1.5182,1.4075,1.2638,1.1375,1.0828,1.0531,1.0186,0.9836,0.9964,1.0009,0.9438,0.9256,0.8916,0.8096,0.9227,0.9799,0.8703,0.9858,1.0331,0.9246,0.8936,0.8891,0.9054,1.0676,1.2189,1.3531,1.6462,1.8996,2.0711,2.2953,2.484,2.6334,2.7985,2.919,2.9817,2.9844,2.9857,2.9857,2.9747,2.9727,0.9898,0.8948,0.8135,0.0,0.753,0.7207,0.6285,0.0,0.6145,0.5551,0.5628,0.5509,0.4502,0.4762,0.4993,0.4585,0.4749,0.5167,0.5865,0.6175,0.6628,0.7356,0.7091,0.6914,0.714,0.6734,0.6505,0.6602,0.692,0.7116,0.7159,0.7722,0.8033,0.8033,0.8033,0.8033,0.8033,0.7869,0.7945,0.8326,0.8671,0.8959,0.9136,0.9694,1.0185,1.0614,1.1204,1.2071,1.3046,1.3481,1.4248,1.5138,1.5301,1.5846,1.6652,1.7422,1.8108,1.8897,2.0408,2.1405,2.2263,2.3691,2.4316,2.4555,2.4726,2.4369,2.3702,2.2588,2.1407,2.0097,1.8494,1.707,1.5704,1.4595,1.3606,1.2638,1.1616,1.0918,1.0355,0.9978,1.0267,1.0498,1.011,1.0047,1.0034,1.0123,1.0752,1.1347,1.162,1.1852,1.1681,1.0797,1.0605,1.0456,1.0343,1.151,1.3264,1.5462,1.6842,1.877,2.1411,2.2649,2.4126,2.5979,2.7647,2.8873,2.9567,2.9345,2.9232,2.9232,2.8872,2.8699,0.0,0.0,0.8439,0.7482,0.7379,0.7245,0.0,0.0,0.6112,0.0,0.5921,0.5764,0.483,0.5078,0.5176,0.453,0.4709,0.5168,0.5859,0.6426,0.6997,0.7585,0.7467,0.74,0.7585,0.6851,0.6572,0.7111,0.6963,0.7058,0.7484,0.7966,0.8293,0.841,0.8421,0.8368,0.8223,0.8212,0.8404,0.8789,0.8958,0.9189,0.9444,0.9869,1.0348,1.0836,1.124,1.2079,1.3226,1.3653,1.463,1.5902,1.5982,1.6584,1.7476,1.8031,1.8609,1.9263,2.042,2.1302,2.2108,2.3359,2.3967,2.4249,2.468,2.4383,2.3658,2.2698,2.1645,2.0445,1.8987,1.7625,1.628,1.5005,1.4236,1.3488,1.2328,1.1361,1.0733,1.0816,1.0891,1.0926,1.0926,1.0926,1.1108,1.171,1.2135,1.2821,1.3925,1.3701,1.3081,1.227,1.2193,1.1859,1.1259,1.2275,1.4008,1.656,1.7083,1.868,2.1784,2.2303,2.3522,2.5743,2.7118,2.8188,2.9038,2.8735,2.8579,2.8555,2.8094,2.7897,0.0,0.9875,0.0,0.7893,0.7587,0.0,0.0,0.0,0.0,0.549,0.5978,0.6242,0.5497,0.5384,0.5258,0.4842,0.4743,0.4969,0.5701,0.6474,0.7139,0.754,0.7805,0.7785,0.7357,0.6639,0.6034,0.565,0.6003,0.6484,0.7005,0.7653,0.8257,0.875,0.8761,0.8539,0.802,0.802,0.8279,0.8816,0.9442,0.9766,0.9805,1.0519,1.0852,1.0924,1.1434,1.2479,1.38,1.4382,1.5461,1.6773,1.7003,1.7363,1.7764,1.8412,1.8971,1.9445,1.99,2.1221,2.2747,2.2843,2.3802,2.4929,2.4823,2.4189,2.3307,2.2245,2.1493,2.0552,1.8646,1.7652,1.6764,1.5084,1.4236,1.3614,1.2958,1.2312,1.2028,1.2715,1.2258,1.1772,1.1772,1.1772,1.1772,1.1764,1.3105,1.4066,1.4122,1.4737,1.4678,1.3354,1.2983,1.2458,1.1491,1.2722,1.4077,1.5231,1.716,1.9151,2.1264,2.208,2.3522,2.5743,2.6303,2.704,2.7982,2.7964,2.7936,2.7936,2.7926,2.7897,0.0,0.0,0.0,0.8126,0.786,0.7568,0.65,0.6144,0.6029,0.5928,0.5984,0.5979,0.5697,0.5857,0.5819,0.5114,0.5231,0.5504,0.5776,0.6405,0.692,0.7077,0.7061,0.7091,0.7212,0.6476,0.6162,0.6565,0.6468,0.676,0.7591,0.7757,0.8037,0.8595,0.8269,0.8177,0.8315,0.8713,0.9219,0.983,1.0084,1.0489,1.1036,1.1283,1.1622,1.203,1.268,1.3289,1.3864,1.4457,1.5655,1.715,1.7419,1.7715,1.8115,1.8768,1.9216,1.9518,1.9922,2.1296,2.2837,2.2701,2.3677,2.4809,2.4416,2.3833,2.3077,2.195,2.1332,2.0552,1.8608,1.737,1.6108,1.4039,1.3382,1.3283,1.3618,1.3077,1.2465,1.2248,1.202,1.1834,1.1834,1.1834,1.2135,1.3174,1.3846,1.4463,1.5256,1.5079,1.4753,1.4371,1.3688,1.3196,1.3208,1.3697,1.4921,1.7189,1.7625,1.8944,2.1368,2.1794,2.2849,2.472,2.5373,2.6387,2.7897,2.7619,2.75,2.75,2.7241,2.7115,1.1117,0.0,0.0,0.0,0.0,0.7724,0.6781,0.0,0.6074,0.6013,0.596,0.5933,0.5933,0.6074,0.5967,0.5224,0.5432,0.5692,0.5692,0.6392,0.6913,0.6913,0.6832,0.6932,0.7244,0.6501,0.6234,0.6821,0.6572,0.0,0.7656,0.7628,0.7864,0.8429,0.8168,0.8297,0.8874,0.9367,0.9942,1.0581,1.0756,1.1148,1.1721,1.1911,1.2229,1.2642,1.3284,1.3833,1.4335,1.4973,1.617,1.7631,1.7885,1.822,1.8608,1.9198,1.9532,1.9755,2.0059,2.1367,2.2851,2.2634,2.3579,2.4712,2.4173,2.3627,2.2961,2.1802,2.1241,2.0552,1.8608,1.7096,1.5612,1.3909,1.3334,1.3381,1.3945,1.3692,1.3146,1.2723,1.2381,1.2143,1.1834,1.202,1.2679,1.3999,1.4601,1.5302,1.6357,1.603,1.5442,1.4568,1.4035,1.3655,1.3398,1.3666,1.4831,1.7273,1.7523,1.863,2.0862,2.1434,2.2505,2.4178,2.4847,2.595,2.7517,2.7241,2.7083,2.7083,2.6808,2.6691,0.0,0.0,0.0,0.0,0.0,0.0,0.6879,0.0,0.5863,0.5659,0.5927,0.6191,0.6191,0.5988,0.5667,0.5195,0.533,0.5511,0.5511,0.6413,0.7082,0.7082,0.7252,0.7381,0.7381,0.6675,0.6206,0.6206,0.6206,0.6481,0.709,0.7316,0.7683,0.8257,0.8552,0.8997,0.9572,0.9884,1.0334,1.092,1.1454,1.1707,1.1764,1.2329,1.263,1.2668,1.3157,1.4081,1.5305,1.6005,1.7067,1.8229,1.8508,1.8842,1.9243,1.9651,1.9926,2.0115,2.0258,2.1437,2.2859,2.2575,2.3531,2.4697,2.4137,2.3605,2.2961,2.1819,2.1258,2.0567,1.8569,1.6844,1.541,1.4835,1.419,1.3838,1.4041,1.4077,1.4112,1.4178,1.3554,1.2765,1.202,1.2512,1.3287,1.4055,1.5505,1.6649,1.711,1.7549,1.6693,1.3933,1.4028,1.3695,1.2065,1.2634,1.37,1.5245,1.6757,1.8197,1.9608,2.0997,2.2505,2.4122,2.4847,2.5709,2.6691,2.6691,2.6691,2.6691,2.6691,2.6708,1.1542,0.0,0.0,0.0,0.0,0.0,0.0,0.0,0.6341,0.6094,0.6001,0.598,0.598,0.5922,0.583,0.57,0.5576,0.5568,0.5763,0.6179,0.6451,0.6451,0.6656,0.6824,0.6824,0.6622,0.65,0.0,0.65,0.6812,0.7572,0.7785,0.7775,0.7512,0.8485,0.907,0.9247,1.0184,1.092,1.1476,1.1636,1.2036,1.2652,1.2815,1.3053,1.3395,1.4676,1.554,1.601,1.6219,1.7165,1.8508,1.8789,1.9014,1.9243,1.9651,1.9933,2.0109,2.0247,2.1354,2.2631,2.2372,2.3328,2.4441,2.3666,2.331,2.2912,2.1546,2.107,2.0469,1.8074,1.6225,1.4789,1.419,1.36,1.3342,1.3945,1.4077,1.4112,1.4178,1.4025,1.3786,1.3597,1.3726,1.4314,1.5641,1.6234,1.6534,1.667,1.6785,1.6351,1.5043,1.5018,1.493,1.446,1.4628,1.5148,1.612,1.7069,1.8004,1.8967,2.0752,2.2264,2.3507,2.4642,2.5709,2.6691,2.6691,2.6691,2.6691,2.6367,2.6474,0.0,0.0,0.0,0.0,0.0,0.0,0.7941,0.7236,0.6697,0.0,0.6278,0.6201,0.6201,0.6039,0.5918,0.5973,0.5863,0.5893,0.6333,0.6373,0.6456,0.6675,0.6636,0.6599,0.6599,0.6599,0.6599,0.6599,0.6599,0.6842,0.7398,0.7608,0.769,0.7612,0.8692,0.9396,0.9685,1.0843,1.1608,1.19,1.2148,1.2543,1.3123,1.321,1.3427,1.3791,1.5161,1.6015,1.6465,1.6974,1.7794,1.8789,1.9016,1.9234,1.9484,1.9812,2.0036,2.0197,2.0273,2.1308,2.2556,2.2294,2.3142,2.4155,2.3424,2.2979,2.2487,2.1336,2.0418,1.9468,1.7944,1.6506,1.5287,1.4675,1.42,1.3986,1.4205,1.4301,1.4378,1.4205,1.4213,1.4085,1.3786,1.3965,1.4728,1.6213,1.6733,1.6978,1.6978,1.7151,1.6623,1.5059,1.5084,1.5188,1.5188,1.5027,1.5293,1.6242,1.7143,1.7797,1.8232,2.0492,2.2094,2.2966,2.424,2.5281,2.6087,2.6505,2.659,2.6401,2.5888,2.6171,0.0,0.0,0.0,0.0,0.0,0.0,0.8841,0.7905,0.7009,0.0,0.6672,0.6672,0.6672,0.6331,0.6111,0.629,0.6272,0.6445,0.7054,0.6877,0.6874,0.7344,0.6969,0.6662,0.6611,0.6599,0.6599,0.6599,0.6651,0.6757,0.696,0.7176,0.7597,0.8296,0.9152,0.9922,1.0628,1.1693,1.2251,1.2291,1.2778,1.314,1.3345,1.3555,1.3736,1.3991,1.4986,1.5896,1.6755,1.7937,1.8675,1.9052,1.9204,1.9489,1.9824,2.0027,2.0177,2.0303,2.0285,2.1277,2.2517,2.2256,2.2978,2.3871,2.3356,2.2686,2.191,2.1086,1.9519,1.8106,1.8027,1.7216,1.6238,1.5632,1.5291,1.4963,1.444,1.4536,1.4609,1.4313,1.4296,1.4094,1.3373,1.3846,1.4836,1.6218,1.7092,1.7578,1.7468,1.7957,1.7301,1.4606,1.4793,1.5031,1.4939,1.4638,1.4893,1.5967,1.7034,1.7578,1.7578,2.023,2.1937,2.2493,2.3876,2.4862,2.5371,2.6322,2.648,2.593,2.5545,2.6002,0.0,0.0,0.0,0.0,0.0,0.0,0.8345,0.7826,0.7591,0.0,0.7193,0.7082,0.7082,0.7005,0.7133,0.7698,0.7344,0.7069,0.7306,0.7287,0.7281,0.7393,0.7306,0.7069,0.6637,0.6599,0.6599,0.6599,0.6898,0.7191,0.7453,0.765,0.8169,0.905,0.971,1.0492,1.1377,1.2145,1.2646,1.285,1.3106,1.3362,1.3555,1.3736,1.3955,1.4185,1.5145,1.6146,1.7164,1.8083,1.8769,1.9274,1.958,1.9731,1.9824,2.0027,2.0186,2.0273,2.018,2.1082,2.2256,2.2092,2.2812,2.3678,2.3305,2.2686,2.1778,2.0304,1.9022,1.7987,1.7585,1.6617,1.5632,1.5017,1.4488,1.401,1.3711,1.3949,1.434,1.4646,1.4946,1.5108,1.4932,1.505,1.5449,1.6358,1.7135,1.7413,1.6821,1.7617,1.7496,1.5381,1.5879,1.6061,1.5359,1.5532,1.5701,1.5557,1.6853,1.7578,1.7578,2.023,2.1937,2.2493,2.4713,2.6086,2.6575,2.6944,2.6566,2.555,2.5971,2.6639,0.0,0.0,0.0,1.1028,0.0,0.0,0.0,0.8198,0.8359,0.8926,0.8379,0.7753,0.7576,0.8619,0.9133,0.803,0.8598,0.8858,0.7896,0.7421,0.7554,0.8537,0.7676,0.6899,0.6624,0.6599,0.6651,0.674,0.7331,0.7703,0.7695,0.8561,0.9297,0.9875,1.0541,1.1291,1.21,1.2547,1.2926,1.3158,1.3345,1.3617,1.3896,1.4069,1.4265,1.4511,1.5871,1.6746,1.7359,1.8726,1.9425,1.9619,1.9857,1.9945,1.9973,2.0191,2.0552,2.0923,2.0764,2.1646,2.2788,2.2465,2.2844,2.3392,2.3045,2.2317,2.1272,2.0024,1.8902,1.8027,1.7787,1.6883,1.5964,1.5656,1.5062,1.4505,1.4408,1.4405,1.4521,1.4746,1.5127,1.541,1.541,1.541,1.5806,1.6866,1.7034,1.7121,1.7359,1.7608,1.7254,1.5871,1.6133,1.6221,1.5771,1.5732,1.5732,1.5732,1.6928,1.7578,1.7578,2.023,2.2402,2.3968,2.5249,2.6154,2.6709,2.7186,2.6871,2.5883,2.597,2.652,0.0,0.0,0.0,0.0,0.0,1.0539,0.0,0.0,0.0,1.0408,0.9559,0.0,0.0,0.0,0.0,0.0,0.0,0.0,0.0,0.7441,0.0,0.9356,0.7866,0.6723,0.6723,0.6723,0.6778,0.6944,0.7659,0.8087,0.8093,0.9328,1.0254,1.0768,1.14,1.2085,1.2785,1.3053,1.3244,1.341,1.3615,1.3899,1.4201,1.4549,1.477,1.5015,1.6649,1.7444,1.7738,1.9281,1.9938,2.0005,2.0111,2.0133,2.0134,2.0348,2.0797,2.1315,2.1297,2.2133,2.3157,2.2776,2.2808,2.2905,2.2521,2.1665,2.0649,1.9681,1.8765,1.8066,1.7867,1.7146,1.6466,1.6337,1.583,1.535,1.5344,1.507,1.4899,1.4978,1.5231,1.541,1.541,1.541,1.5853,1.7191,1.6866,1.6846,1.784,1.7605,1.7038,1.6417,1.6506,1.6536,1.6548,1.6098,1.597,1.6158,1.7241,1.7868,1.7779,2.0552,2.3155,2.5455,2.5697,2.6091,2.6681,2.7303,2.7191,2.6442,2.6149,2.6529,0.0,0.0,0.0,0.0,1.186,0.0,1.0862,0.0,0.9897,1.0704,0.0,0.0,0.0,0.0,0.0,0.0,0.0,0.0,0.7071,0.7367,0.7924,0.8264,0.7618,0.713,0.713,0.713,0.7146,0.7162,0.7479,0.8108,0.9079,0.9296,1.0159,1.1777,1.2082,1.2643,1.349,1.3691,1.3795,1.3824,1.4038,1.4162,1.4219,1.5265,1.5732,1.582,1.7036,1.7991,1.8749,1.9072,1.9657,2.0342,2.037,2.0298,2.0203,2.0408,2.0408,2.0355,2.0985,2.1635,2.2219,2.2462,2.2377,2.2096,2.1397,2.0797,2.0093,1.866,1.8185,1.7867,1.6909,1.6595,1.638,1.582,1.5635,1.5531,1.5479,1.5286,1.5226,1.5708,1.5552,1.541,1.541,1.541,1.569,1.6482,1.6539,1.656,1.6669,1.7336,1.7622,1.7263,1.7843,1.8247,1.8242,1.7786,1.7202,1.6503,1.8032,1.8753,1.8385,2.1627,2.4009,2.5373,2.6105,2.6741,2.7319,2.7482,2.725,2.6579,2.7115,2.743,0.0,0.0,0.0,0.0,0.0,0.0,1.1829,0.0,1.0779,0.0,0.0,0.0,0.0,0.0,0.0,0.0,1.0183,0.0,0.0,0.0,0.7338,0.0,0.0,0.0,0.792,0.7483,0.7195,0.7195,0.7878,0.8651,0.9498,1.0335,1.1267,1.2254,1.2787,1.3288,1.3766,1.387,1.3955,1.4083,1.4228,1.4379,1.4537,1.563,1.6139,1.6223,1.7788,1.868,1.907,1.9655,2.0123,2.045,2.0508,2.0458,2.0377,2.0429,2.0942,2.1636,2.1731,2.2384,2.3088,2.2727,2.2263,2.1698,2.1165,2.0682,2.0128,1.9266,1.8574,1.7987,1.7544,1.6951,1.6423,1.6194,1.6094,1.6136,1.6382,1.6306,1.6233,1.6261,1.6131,1.5921,1.5468,1.541,1.5642,1.6379,1.6151,1.6128,1.68,1.7053,1.7307,1.7711,1.7799,1.7933,1.8175,1.7326,1.6759,1.6598,1.8175,1.9564,2.0649,2.2551,2.4546,2.6561,2.6622,2.7043,2.8046,2.7758,2.7475,2.7171,2.744,2.7625,1.3578,0.0,0.0,0.0,0.0,0.0,0.0,0.0,0.0,0.0,0.0,0.0,0.0,0.0,0.0,0.0,0.0,1.0742,0.0,0.8826,0.0,0.0,0.0,0.0,0.0,0.7795,0.738,0.738,0.8137,0.9034,0.9983,1.1103,1.2031,1.2771,1.3427,1.3824,1.3983,1.4038,1.4162,1.4338,1.4651,1.4924,1.5131,1.6409,1.7003,1.7099,1.8737,1.9444,1.9545,2.0216,2.0511,2.0539,2.0566,2.0684,2.0859,2.0809,2.1549,2.2592,2.2489,2.2969,2.3527,2.2912,2.2113,2.1368,2.1086,2.0599,2.0019,1.9427,1.8688,1.8027,1.7747,1.7076,1.6522,1.6522,1.6613,1.6807,1.7303,1.7171,1.6902,1.6837,1.6482,1.6036,1.5468,1.541,1.5642,1.6379,1.5864,1.586,1.7071,1.7114,1.7439,1.8411,1.8417,1.848,1.8812,1.7737,1.7205,1.7426,1.8599,2.0194,2.2127,2.3406,2.4997,2.6914,2.6883,2.7327,2.8238,2.781,2.7664,2.7844,2.7715,2.773,0.0,0.0,0.0,1.4875,0.0,0.0,0.0,0.0,1.2904,0.0,0.0,0.0,0.0,0.0,0.0,0.0,0.0,0.0,0.0,0.0,0.0,0.0,0.0,0.0,0.0,0.8121,0.7855,0.7782,0.7996,0.8922,1.0753,1.1099,1.1932,1.3515,1.3965,1.4175,1.4188,1.4387,1.4537,1.4697,1.5482,1.5909,1.612,1.7907,1.8762,1.8866,1.9838,2.0346,2.0467,2.0488,2.054,2.0586,2.0537,2.1015,2.1752,2.1769,2.2029,2.2475,2.2922,2.292,2.2746,2.2721,2.1927,2.1023,2.0991,2.0413,1.9515,1.8458,1.8145,1.7867,1.6837,1.6522,1.6522,1.6522,1.6961,1.7526,1.8031,1.7435,1.6933,1.7477,1.6415,1.541,1.541,1.541,1.5642,1.6379,1.5864,1.586,1.7071,1.7641,1.8462,1.9711,2.0442,2.0877,2.0913,2.0102,1.9495,1.9225,1.9646,2.0517,2.1935,2.4182,2.5392,2.5582,2.6885,2.7595,2.7625,2.7625,2.7919,2.8547,2.7874,2.7934,1.4282,1.436,1.4584,1.494,0.0,0.0,0.0,0.0,0.0,0.0,0.0,0.0,0.0,0.0,0.0,0.0,0.0,0.0,0.0,0.0,0.0,0.0,0.0,0.0,0.0,0.0,0.8119,0.8187,0.8962,1.0123,1.1747,1.1982,1.2662,1.3948,1.4136,1.4302,1.4541,1.4603,1.4968,1.5621,1.5997,1.6481,1.714,1.8409,1.9032,1.9143,2.0048,2.0467,2.049,2.0508,2.0504,2.0575,2.111,2.1721,2.2262,2.1681,2.2199,2.319,2.3162,2.2967,2.2617,2.213,2.1519,2.0926,2.0616,2.0139,1.9566,1.8817,1.838,1.7947,1.7229,1.6752,1.6522,1.6522,1.7237,1.7978,1.8166,1.8486,1.8553,1.7763,1.7191,1.6528,1.5584,1.541,1.5468,1.5748,1.5584,1.5684,1.6357,1.6878,1.7624,1.8922,1.8997,1.9512,2.0648,1.9951,1.9243,1.8847,1.981,2.0802,2.1765,2.4125,2.563,2.6179,2.7528,2.8248,2.8248,2.8697,2.9026,2.925,2.9011,2.9026,1.4589,1.4629,1.4813,1.5131,1.536,0.0,1.5257,0.0,1.5821,0.0,0.0,0.0,0.0,0.0,0.0,0.0,0.0,0.0,0.0,1.2372,0.0,0.0,0.0,0.0,0.0,0.8898,0.8552,0.9243,0.9795,1.0768,1.2292,1.2596,1.317,1.417,1.4314,1.4478,1.4707,1.5028,1.5527,1.6174,1.6888,1.7547,1.8171,1.9128,1.9593,1.9681,2.0238,2.0483,2.0507,2.0472,2.0453,2.0545,2.126,2.1975,2.2565,2.2315,2.2795,2.3489,2.298,2.2583,2.2214,2.1595,2.1118,2.0682,2.0382,2.0035,1.9566,1.8817,1.838,1.7947,1.7188,1.6752,1.6572,1.6773,1.7539,1.8254,1.8455,1.897,1.9044,1.7852,1.7413,1.6922,1.5979,1.5713,1.5586,1.5439,1.5537,1.592,1.6658,1.74,1.8344,1.9613,1.9813,2.0009,2.059,1.9814,1.9041,1.8434,1.977,2.0812,2.126,2.3709,2.5342,2.6068,2.7467,2.8314,2.8607,2.9265,2.9699,2.9909,2.9909,3.0043]}]]